<?xml version="1.0" encoding="UTF-8" standalone="no" ?>
<gpx xmlns="http://www.topografix.com/GPX/1/1" xmlns:xsi="http://www.w3.org/2001/XMLSchema-instance" xsi:schemaLocation="http://www.topografix.com/GPX/1/1 http://www.topografix.com/GPX/1/1/gpx.xsd" version="1.1" creator="VisuGPX - https://www.visugpx.com">
  <metadata>
    <name>21 JUIN 2020 10:59</name>
  </metadata>
  <trk>
    <name><![CDATA[21 JUIN 2020 10:59]]></name>
    <trkseg>
      <trkpt lat="44.90228" lon="5.56873">
        <ele>1096.04</ele>
        <time>2020-06-21T08:59:32Z</time>
      </trkpt>
      <trkpt lat="44.90228" lon="5.56872">
        <ele>1099.4</ele>
        <time>2020-06-21T08:59:40Z</time>
      </trkpt>
      <trkpt lat="44.90229" lon="5.56871">
        <ele>1102.77</ele>
        <time>2020-06-21T08:59:41Z</time>
      </trkpt>
      <trkpt lat="44.9023" lon="5.56871">
        <ele>1108.54</ele>
        <time>2020-06-21T08:59:43Z</time>
      </trkpt>
      <trkpt lat="44.90231" lon="5.5687">
        <ele>1114.31</ele>
        <time>2020-06-21T08:59:45Z</time>
      </trkpt>
      <trkpt lat="44.90231" lon="5.56869">
        <ele>1119.11</ele>
        <time>2020-06-21T08:59:47Z</time>
      </trkpt>
      <trkpt lat="44.90232" lon="5.56868">
        <ele>1123.92</ele>
        <time>2020-06-21T08:59:49Z</time>
      </trkpt>
      <trkpt lat="44.90232" lon="5.56867">
        <ele>1128.73</ele>
        <time>2020-06-21T08:59:51Z</time>
      </trkpt>
      <trkpt lat="44.90232" lon="5.56867">
        <ele>1132.09</ele>
        <time>2020-06-21T08:59:53Z</time>
      </trkpt>
      <trkpt lat="44.9023" lon="5.56869">
        <ele>1136.42</ele>
        <time>2020-06-21T08:59:55Z</time>
      </trkpt>
      <trkpt lat="44.90228" lon="5.56871">
        <ele>1140.26</ele>
        <time>2020-06-21T08:59:57Z</time>
      </trkpt>
      <trkpt lat="44.90228" lon="5.56872">
        <ele>1143.63</ele>
        <time>2020-06-21T08:59:59Z</time>
      </trkpt>
      <trkpt lat="44.90227" lon="5.56872">
        <ele>1146.51</ele>
        <time>2020-06-21T09:00:01Z</time>
      </trkpt>
      <trkpt lat="44.90227" lon="5.56874">
        <ele>1151.32</ele>
        <time>2020-06-21T09:00:04Z</time>
      </trkpt>
      <trkpt lat="44.90226" lon="5.56875">
        <ele>1155.64</ele>
        <time>2020-06-21T09:00:07Z</time>
      </trkpt>
      <trkpt lat="44.90226" lon="5.56876">
        <ele>1159.01</ele>
        <time>2020-06-21T09:00:10Z</time>
      </trkpt>
      <trkpt lat="44.90226" lon="5.56877">
        <ele>1162.37</ele>
        <time>2020-06-21T09:00:13Z</time>
      </trkpt>
      <trkpt lat="44.90227" lon="5.56877">
        <ele>1165.74</ele>
        <time>2020-06-21T09:00:16Z</time>
      </trkpt>
      <trkpt lat="44.90227" lon="5.56877">
        <ele>1169.1</ele>
        <time>2020-06-21T09:00:20Z</time>
      </trkpt>
      <trkpt lat="44.90227" lon="5.56877">
        <ele>1172.47</ele>
        <time>2020-06-21T09:00:24Z</time>
      </trkpt>
      <trkpt lat="44.90226" lon="5.56876">
        <ele>1175.83</ele>
        <time>2020-06-21T09:00:27Z</time>
      </trkpt>
      <trkpt lat="44.90226" lon="5.56877">
        <ele>1178.71</ele>
        <time>2020-06-21T09:00:30Z</time>
      </trkpt>
      <trkpt lat="44.90226" lon="5.56877">
        <ele>1178.71</ele>
        <time>2020-06-21T09:00:31Z</time>
      </trkpt>
      <trkpt lat="44.90226" lon="5.56877">
        <ele>1180.64</ele>
        <time>2020-06-21T09:00:34Z</time>
      </trkpt>
      <trkpt lat="44.90225" lon="5.56877">
        <ele>1182.56</ele>
        <time>2020-06-21T09:00:37Z</time>
      </trkpt>
      <trkpt lat="44.90226" lon="5.56877">
        <ele>1184.48</ele>
        <time>2020-06-21T09:00:41Z</time>
      </trkpt>
      <trkpt lat="44.90225" lon="5.56875">
        <ele>1187.37</ele>
        <time>2020-06-21T09:00:47Z</time>
      </trkpt>
      <trkpt lat="44.90226" lon="5.56876">
        <ele>1190.73</ele>
        <time>2020-06-21T09:00:57Z</time>
      </trkpt>
      <trkpt lat="44.90222" lon="5.56875">
        <ele>1194.09</ele>
        <time>2020-06-21T09:01:09Z</time>
      </trkpt>
      <trkpt lat="44.90223" lon="5.56871">
        <ele>1195.06</ele>
        <time>2020-06-21T09:01:28Z</time>
      </trkpt>
      <trkpt lat="44.90225" lon="5.56866">
        <ele>1196.02</ele>
        <time>2020-06-21T09:01:31Z</time>
      </trkpt>
      <trkpt lat="44.90227" lon="5.56841">
        <ele>1195.54</ele>
        <time>2020-06-21T09:01:39Z</time>
      </trkpt>
      <trkpt lat="44.9023" lon="5.56818">
        <ele>1195.54</ele>
        <time>2020-06-21T09:01:46Z</time>
      </trkpt>
      <trkpt lat="44.90246" lon="5.56829">
        <ele>1195.06</ele>
        <time>2020-06-21T09:01:56Z</time>
      </trkpt>
      <trkpt lat="44.90279" lon="5.56866">
        <ele>1193.13</ele>
        <time>2020-06-21T09:02:09Z</time>
      </trkpt>
      <trkpt lat="44.90288" lon="5.56882">
        <ele>1192.65</ele>
        <time>2020-06-21T09:02:12Z</time>
      </trkpt>
      <trkpt lat="44.90292" lon="5.56887">
        <ele>1191.69</ele>
        <time>2020-06-21T09:02:13Z</time>
      </trkpt>
      <trkpt lat="44.90296" lon="5.56892">
        <ele>1191.21</ele>
        <time>2020-06-21T09:02:14Z</time>
      </trkpt>
      <trkpt lat="44.90301" lon="5.56897">
        <ele>1190.73</ele>
        <time>2020-06-21T09:02:15Z</time>
      </trkpt>
      <trkpt lat="44.90305" lon="5.56902">
        <ele>1190.73</ele>
        <time>2020-06-21T09:02:16Z</time>
      </trkpt>
      <trkpt lat="44.90314" lon="5.56913">
        <ele>1189.29</ele>
        <time>2020-06-21T09:02:18Z</time>
      </trkpt>
      <trkpt lat="44.90319" lon="5.56918">
        <ele>1189.29</ele>
        <time>2020-06-21T09:02:19Z</time>
      </trkpt>
      <trkpt lat="44.90324" lon="5.56923">
        <ele>1188.33</ele>
        <time>2020-06-21T09:02:20Z</time>
      </trkpt>
      <trkpt lat="44.90329" lon="5.56928">
        <ele>1187.85</ele>
        <time>2020-06-21T09:02:21Z</time>
      </trkpt>
      <trkpt lat="44.90334" lon="5.56933">
        <ele>1187.37</ele>
        <time>2020-06-21T09:02:22Z</time>
      </trkpt>
      <trkpt lat="44.9034" lon="5.56937">
        <ele>1186.4</ele>
        <time>2020-06-21T09:02:23Z</time>
      </trkpt>
      <trkpt lat="44.90346" lon="5.56941">
        <ele>1185.92</ele>
        <time>2020-06-21T09:02:24Z</time>
      </trkpt>
      <trkpt lat="44.90352" lon="5.56944">
        <ele>1185.92</ele>
        <time>2020-06-21T09:02:25Z</time>
      </trkpt>
      <trkpt lat="44.90358" lon="5.56946">
        <ele>1185.92</ele>
        <time>2020-06-21T09:02:26Z</time>
      </trkpt>
      <trkpt lat="44.90388" lon="5.56954">
        <ele>1184.48</ele>
        <time>2020-06-21T09:02:31Z</time>
      </trkpt>
      <trkpt lat="44.90393" lon="5.56955">
        <ele>1184</ele>
        <time>2020-06-21T09:02:32Z</time>
      </trkpt>
      <trkpt lat="44.90399" lon="5.56956">
        <ele>1184.48</ele>
        <time>2020-06-21T09:02:33Z</time>
      </trkpt>
      <trkpt lat="44.90421" lon="5.5696">
        <ele>1183.04</ele>
        <time>2020-06-21T09:02:37Z</time>
      </trkpt>
      <trkpt lat="44.90467" lon="5.56967">
        <ele>1179.67</ele>
        <time>2020-06-21T09:02:45Z</time>
      </trkpt>
      <trkpt lat="44.90491" lon="5.56968">
        <ele>1179.19</ele>
        <time>2020-06-21T09:02:49Z</time>
      </trkpt>
      <trkpt lat="44.90509" lon="5.56971">
        <ele>1178.71</ele>
        <time>2020-06-21T09:02:52Z</time>
      </trkpt>
      <trkpt lat="44.9054" lon="5.5699">
        <ele>1175.35</ele>
        <time>2020-06-21T09:02:57Z</time>
      </trkpt>
      <trkpt lat="44.90546" lon="5.56995">
        <ele>1175.35</ele>
        <time>2020-06-21T09:02:58Z</time>
      </trkpt>
      <trkpt lat="44.90566" lon="5.57007">
        <ele>1175.35</ele>
        <time>2020-06-21T09:03:01Z</time>
      </trkpt>
      <trkpt lat="44.90574" lon="5.5701">
        <ele>1173.91</ele>
        <time>2020-06-21T09:03:02Z</time>
      </trkpt>
      <trkpt lat="44.90581" lon="5.57012">
        <ele>1173.43</ele>
        <time>2020-06-21T09:03:03Z</time>
      </trkpt>
      <trkpt lat="44.90589" lon="5.57013">
        <ele>1172.95</ele>
        <time>2020-06-21T09:03:04Z</time>
      </trkpt>
      <trkpt lat="44.90596" lon="5.57013">
        <ele>1172.47</ele>
        <time>2020-06-21T09:03:05Z</time>
      </trkpt>
      <trkpt lat="44.90611" lon="5.57013">
        <ele>1171.5</ele>
        <time>2020-06-21T09:03:07Z</time>
      </trkpt>
      <trkpt lat="44.90705" lon="5.5699">
        <ele>1168.62</ele>
        <time>2020-06-21T09:03:19Z</time>
      </trkpt>
      <trkpt lat="44.90796" lon="5.56957">
        <ele>1165.26</ele>
        <time>2020-06-21T09:03:31Z</time>
      </trkpt>
      <trkpt lat="44.90819" lon="5.56953">
        <ele>1162.85</ele>
        <time>2020-06-21T09:03:34Z</time>
      </trkpt>
      <trkpt lat="44.9091" lon="5.56958">
        <ele>1162.37</ele>
        <time>2020-06-21T09:03:47Z</time>
      </trkpt>
      <trkpt lat="44.91009" lon="5.56959">
        <ele>1159.49</ele>
        <time>2020-06-21T09:04:03Z</time>
      </trkpt>
      <trkpt lat="44.91015" lon="5.56959">
        <ele>1159.49</ele>
        <time>2020-06-21T09:04:04Z</time>
      </trkpt>
      <trkpt lat="44.91021" lon="5.56957">
        <ele>1159.49</ele>
        <time>2020-06-21T09:04:05Z</time>
      </trkpt>
      <trkpt lat="44.91027" lon="5.56955">
        <ele>1159.49</ele>
        <time>2020-06-21T09:04:06Z</time>
      </trkpt>
      <trkpt lat="44.91107" lon="5.56927">
        <ele>1158.53</ele>
        <time>2020-06-21T09:04:19Z</time>
      </trkpt>
      <trkpt lat="44.91187" lon="5.56897">
        <ele>1156.6</ele>
        <time>2020-06-21T09:04:32Z</time>
      </trkpt>
      <trkpt lat="44.91264" lon="5.56867">
        <ele>1156.12</ele>
        <time>2020-06-21T09:04:45Z</time>
      </trkpt>
      <trkpt lat="44.91269" lon="5.56863">
        <ele>1156.12</ele>
        <time>2020-06-21T09:04:46Z</time>
      </trkpt>
      <trkpt lat="44.91272" lon="5.56858">
        <ele>1155.64</ele>
        <time>2020-06-21T09:04:47Z</time>
      </trkpt>
      <trkpt lat="44.91274" lon="5.56852">
        <ele>1155.64</ele>
        <time>2020-06-21T09:04:48Z</time>
      </trkpt>
      <trkpt lat="44.91275" lon="5.56845">
        <ele>1155.64</ele>
        <time>2020-06-21T09:04:49Z</time>
      </trkpt>
      <trkpt lat="44.91274" lon="5.56837">
        <ele>1155.64</ele>
        <time>2020-06-21T09:04:50Z</time>
      </trkpt>
      <trkpt lat="44.91273" lon="5.5683">
        <ele>1156.12</ele>
        <time>2020-06-21T09:04:51Z</time>
      </trkpt>
      <trkpt lat="44.91262" lon="5.56778">
        <ele>1157.08</ele>
        <time>2020-06-21T09:04:59Z</time>
      </trkpt>
      <trkpt lat="44.91261" lon="5.56772">
        <ele>1157.08</ele>
        <time>2020-06-21T09:05:00Z</time>
      </trkpt>
      <trkpt lat="44.91256" lon="5.56753">
        <ele>1157.56</ele>
        <time>2020-06-21T09:05:03Z</time>
      </trkpt>
      <trkpt lat="44.91239" lon="5.56717">
        <ele>1158.53</ele>
        <time>2020-06-21T09:05:10Z</time>
      </trkpt>
      <trkpt lat="44.91237" lon="5.56712">
        <ele>1159.01</ele>
        <time>2020-06-21T09:05:11Z</time>
      </trkpt>
      <trkpt lat="44.912" lon="5.5665">
        <ele>1160.93</ele>
        <time>2020-06-21T09:05:26Z</time>
      </trkpt>
      <trkpt lat="44.91165" lon="5.56598">
        <ele>1163.33</ele>
        <time>2020-06-21T09:05:41Z</time>
      </trkpt>
      <trkpt lat="44.91136" lon="5.56564">
        <ele>1165.74</ele>
        <time>2020-06-21T09:05:56Z</time>
      </trkpt>
      <trkpt lat="44.91102" lon="5.56527">
        <ele>1168.62</ele>
        <time>2020-06-21T09:06:13Z</time>
      </trkpt>
      <trkpt lat="44.91065" lon="5.56483">
        <ele>1170.06</ele>
        <time>2020-06-21T09:06:31Z</time>
      </trkpt>
      <trkpt lat="44.91034" lon="5.5644">
        <ele>1171.5</ele>
        <time>2020-06-21T09:06:47Z</time>
      </trkpt>
      <trkpt lat="44.91005" lon="5.5638">
        <ele>1173.43</ele>
        <time>2020-06-21T09:07:05Z</time>
      </trkpt>
      <trkpt lat="44.90976" lon="5.56322">
        <ele>1175.35</ele>
        <time>2020-06-21T09:07:23Z</time>
      </trkpt>
      <trkpt lat="44.90949" lon="5.56272">
        <ele>1177.27</ele>
        <time>2020-06-21T09:07:40Z</time>
      </trkpt>
      <trkpt lat="44.90916" lon="5.56231">
        <ele>1179.19</ele>
        <time>2020-06-21T09:07:57Z</time>
      </trkpt>
      <trkpt lat="44.90885" lon="5.56184">
        <ele>1180.64</ele>
        <time>2020-06-21T09:08:15Z</time>
      </trkpt>
      <trkpt lat="44.90863" lon="5.56138">
        <ele>1183.04</ele>
        <time>2020-06-21T09:08:31Z</time>
      </trkpt>
      <trkpt lat="44.90843" lon="5.56079">
        <ele>1184.48</ele>
        <time>2020-06-21T09:08:51Z</time>
      </trkpt>
      <trkpt lat="44.90835" lon="5.5603">
        <ele>1187.37</ele>
        <time>2020-06-21T09:09:07Z</time>
      </trkpt>
      <trkpt lat="44.90843" lon="5.55984">
        <ele>1190.73</ele>
        <time>2020-06-21T09:09:22Z</time>
      </trkpt>
      <trkpt lat="44.90852" lon="5.55949">
        <ele>1193.13</ele>
        <time>2020-06-21T09:09:35Z</time>
      </trkpt>
      <trkpt lat="44.90853" lon="5.55905">
        <ele>1195.06</ele>
        <time>2020-06-21T09:09:51Z</time>
      </trkpt>
      <trkpt lat="44.90844" lon="5.55852">
        <ele>1197.46</ele>
        <time>2020-06-21T09:10:11Z</time>
      </trkpt>
      <trkpt lat="44.90835" lon="5.55814">
        <ele>1199.38</ele>
        <time>2020-06-21T09:10:25Z</time>
      </trkpt>
      <trkpt lat="44.90826" lon="5.55775">
        <ele>1201.3</ele>
        <time>2020-06-21T09:10:40Z</time>
      </trkpt>
      <trkpt lat="44.90822" lon="5.55734">
        <ele>1202.75</ele>
        <time>2020-06-21T09:10:53Z</time>
      </trkpt>
      <trkpt lat="44.90819" lon="5.55674">
        <ele>1205.63</ele>
        <time>2020-06-21T09:11:12Z</time>
      </trkpt>
      <trkpt lat="44.90815" lon="5.5562">
        <ele>1206.59</ele>
        <time>2020-06-21T09:11:29Z</time>
      </trkpt>
      <trkpt lat="44.90812" lon="5.55566">
        <ele>1207.07</ele>
        <time>2020-06-21T09:11:43Z</time>
      </trkpt>
      <trkpt lat="44.90807" lon="5.55505">
        <ele>1208.51</ele>
        <time>2020-06-21T09:11:57Z</time>
      </trkpt>
      <trkpt lat="44.90806" lon="5.55478">
        <ele>1209</ele>
        <time>2020-06-21T09:12:03Z</time>
      </trkpt>
      <trkpt lat="44.90807" lon="5.55475">
        <ele>1208.51</ele>
        <time>2020-06-21T09:12:04Z</time>
      </trkpt>
      <trkpt lat="44.90807" lon="5.55471">
        <ele>1209.48</ele>
        <time>2020-06-21T09:12:05Z</time>
      </trkpt>
      <trkpt lat="44.90808" lon="5.55468">
        <ele>1209.48</ele>
        <time>2020-06-21T09:12:06Z</time>
      </trkpt>
      <trkpt lat="44.90809" lon="5.55427">
        <ele>1210.92</ele>
        <time>2020-06-21T09:12:17Z</time>
      </trkpt>
      <trkpt lat="44.90815" lon="5.55373">
        <ele>1211.88</ele>
        <time>2020-06-21T09:12:29Z</time>
      </trkpt>
      <trkpt lat="44.90824" lon="5.55314">
        <ele>1214.28</ele>
        <time>2020-06-21T09:12:45Z</time>
      </trkpt>
      <trkpt lat="44.90843" lon="5.55287">
        <ele>1216.69</ele>
        <time>2020-06-21T09:12:56Z</time>
      </trkpt>
      <trkpt lat="44.90869" lon="5.5529">
        <ele>1219.09</ele>
        <time>2020-06-21T09:13:10Z</time>
      </trkpt>
      <trkpt lat="44.90894" lon="5.55295">
        <ele>1221.97</ele>
        <time>2020-06-21T09:13:25Z</time>
      </trkpt>
      <trkpt lat="44.9092" lon="5.5529">
        <ele>1223.9</ele>
        <time>2020-06-21T09:13:41Z</time>
      </trkpt>
      <trkpt lat="44.90946" lon="5.55267">
        <ele>1226.78</ele>
        <time>2020-06-21T09:13:58Z</time>
      </trkpt>
      <trkpt lat="44.90969" lon="5.55241">
        <ele>1228.22</ele>
        <time>2020-06-21T09:14:14Z</time>
      </trkpt>
      <trkpt lat="44.91003" lon="5.55202">
        <ele>1230.14</ele>
        <time>2020-06-21T09:14:34Z</time>
      </trkpt>
      <trkpt lat="44.91023" lon="5.55176">
        <ele>1229.66</ele>
        <time>2020-06-21T09:14:44Z</time>
      </trkpt>
      <trkpt lat="44.91067" lon="5.55134">
        <ele>1227.26</ele>
        <time>2020-06-21T09:15:00Z</time>
      </trkpt>
      <trkpt lat="44.91085" lon="5.55115">
        <ele>1224.86</ele>
        <time>2020-06-21T09:15:05Z</time>
      </trkpt>
      <trkpt lat="44.91095" lon="5.55109">
        <ele>1223.42</ele>
        <time>2020-06-21T09:15:07Z</time>
      </trkpt>
      <trkpt lat="44.91101" lon="5.55107">
        <ele>1222.93</ele>
        <time>2020-06-21T09:15:08Z</time>
      </trkpt>
      <trkpt lat="44.91107" lon="5.55104">
        <ele>1221.97</ele>
        <time>2020-06-21T09:15:09Z</time>
      </trkpt>
      <trkpt lat="44.91127" lon="5.55095">
        <ele>1218.61</ele>
        <time>2020-06-21T09:15:12Z</time>
      </trkpt>
      <trkpt lat="44.91141" lon="5.55084">
        <ele>1215.24</ele>
        <time>2020-06-21T09:15:14Z</time>
      </trkpt>
      <trkpt lat="44.91148" lon="5.55076">
        <ele>1214.28</ele>
        <time>2020-06-21T09:15:15Z</time>
      </trkpt>
      <trkpt lat="44.91154" lon="5.55065">
        <ele>1214.28</ele>
        <time>2020-06-21T09:15:16Z</time>
      </trkpt>
      <trkpt lat="44.91171" lon="5.55031">
        <ele>1209.96</ele>
        <time>2020-06-21T09:15:19Z</time>
      </trkpt>
      <trkpt lat="44.91185" lon="5.55006">
        <ele>1207.55</ele>
        <time>2020-06-21T09:15:21Z</time>
      </trkpt>
      <trkpt lat="44.91199" lon="5.54984">
        <ele>1203.71</ele>
        <time>2020-06-21T09:15:23Z</time>
      </trkpt>
      <trkpt lat="44.91208" lon="5.54977">
        <ele>1201.3</ele>
        <time>2020-06-21T09:15:24Z</time>
      </trkpt>
      <trkpt lat="44.91218" lon="5.54972">
        <ele>1201.79</ele>
        <time>2020-06-21T09:15:25Z</time>
      </trkpt>
      <trkpt lat="44.91239" lon="5.54963">
        <ele>1197.94</ele>
        <time>2020-06-21T09:15:27Z</time>
      </trkpt>
      <trkpt lat="44.91261" lon="5.54954">
        <ele>1194.09</ele>
        <time>2020-06-21T09:15:29Z</time>
      </trkpt>
      <trkpt lat="44.91272" lon="5.5495">
        <ele>1191.69</ele>
        <time>2020-06-21T09:15:30Z</time>
      </trkpt>
      <trkpt lat="44.91283" lon="5.54948">
        <ele>1192.17</ele>
        <time>2020-06-21T09:15:31Z</time>
      </trkpt>
      <trkpt lat="44.91306" lon="5.54945">
        <ele>1187.85</ele>
        <time>2020-06-21T09:15:33Z</time>
      </trkpt>
      <trkpt lat="44.9133" lon="5.54945">
        <ele>1184.96</ele>
        <time>2020-06-21T09:15:35Z</time>
      </trkpt>
      <trkpt lat="44.9134" lon="5.54944">
        <ele>1185.44</ele>
        <time>2020-06-21T09:15:36Z</time>
      </trkpt>
      <trkpt lat="44.91363" lon="5.54949">
        <ele>1183.04</ele>
        <time>2020-06-21T09:15:39Z</time>
      </trkpt>
      <trkpt lat="44.9137" lon="5.54954">
        <ele>1181.6</ele>
        <time>2020-06-21T09:15:40Z</time>
      </trkpt>
      <trkpt lat="44.91377" lon="5.54961">
        <ele>1180.16</ele>
        <time>2020-06-21T09:15:41Z</time>
      </trkpt>
      <trkpt lat="44.91382" lon="5.54967">
        <ele>1180.16</ele>
        <time>2020-06-21T09:15:42Z</time>
      </trkpt>
      <trkpt lat="44.91388" lon="5.54973">
        <ele>1178.71</ele>
        <time>2020-06-21T09:15:43Z</time>
      </trkpt>
      <trkpt lat="44.91391" lon="5.54978">
        <ele>1177.75</ele>
        <time>2020-06-21T09:15:44Z</time>
      </trkpt>
      <trkpt lat="44.91395" lon="5.54985">
        <ele>1176.31</ele>
        <time>2020-06-21T09:15:45Z</time>
      </trkpt>
      <trkpt lat="44.91396" lon="5.54986">
        <ele>1174.87</ele>
        <time>2020-06-21T09:15:46Z</time>
      </trkpt>
      <trkpt lat="44.91397" lon="5.54986">
        <ele>1173.43</ele>
        <time>2020-06-21T09:15:47Z</time>
      </trkpt>
      <trkpt lat="44.91409" lon="5.54973">
        <ele>1171.98</ele>
        <time>2020-06-21T09:15:48Z</time>
      </trkpt>
      <trkpt lat="44.91414" lon="5.54968">
        <ele>1170.06</ele>
        <time>2020-06-21T09:15:49Z</time>
      </trkpt>
      <trkpt lat="44.9143" lon="5.54953">
        <ele>1166.7</ele>
        <time>2020-06-21T09:15:51Z</time>
      </trkpt>
      <trkpt lat="44.91435" lon="5.54947">
        <ele>1164.29</ele>
        <time>2020-06-21T09:15:52Z</time>
      </trkpt>
      <trkpt lat="44.91443" lon="5.54933">
        <ele>1161.89</ele>
        <time>2020-06-21T09:15:54Z</time>
      </trkpt>
      <trkpt lat="44.91477" lon="5.54888">
        <ele>1160.45</ele>
        <time>2020-06-21T09:15:57Z</time>
      </trkpt>
      <trkpt lat="44.91499" lon="5.54868">
        <ele>1158.05</ele>
        <time>2020-06-21T09:15:58Z</time>
      </trkpt>
      <trkpt lat="44.91525" lon="5.54845">
        <ele>1154.68</ele>
        <time>2020-06-21T09:16:00Z</time>
      </trkpt>
      <trkpt lat="44.91535" lon="5.54839">
        <ele>1153.72</ele>
        <time>2020-06-21T09:16:01Z</time>
      </trkpt>
      <trkpt lat="44.91546" lon="5.54836">
        <ele>1150.84</ele>
        <time>2020-06-21T09:16:02Z</time>
      </trkpt>
      <trkpt lat="44.91567" lon="5.54828">
        <ele>1146.99</ele>
        <time>2020-06-21T09:16:04Z</time>
      </trkpt>
      <trkpt lat="44.9158" lon="5.54821">
        <ele>1146.03</ele>
        <time>2020-06-21T09:16:05Z</time>
      </trkpt>
      <trkpt lat="44.91591" lon="5.54818">
        <ele>1144.59</ele>
        <time>2020-06-21T09:16:06Z</time>
      </trkpt>
      <trkpt lat="44.91637" lon="5.54803">
        <ele>1140.26</ele>
        <time>2020-06-21T09:16:10Z</time>
      </trkpt>
      <trkpt lat="44.91647" lon="5.54799">
        <ele>1139.78</ele>
        <time>2020-06-21T09:16:11Z</time>
      </trkpt>
      <trkpt lat="44.91656" lon="5.548">
        <ele>1138.34</ele>
        <time>2020-06-21T09:16:12Z</time>
      </trkpt>
      <trkpt lat="44.91665" lon="5.54802">
        <ele>1138.34</ele>
        <time>2020-06-21T09:16:13Z</time>
      </trkpt>
      <trkpt lat="44.91673" lon="5.54803">
        <ele>1136.9</ele>
        <time>2020-06-21T09:16:14Z</time>
      </trkpt>
      <trkpt lat="44.91681" lon="5.548">
        <ele>1137.86</ele>
        <time>2020-06-21T09:16:15Z</time>
      </trkpt>
      <trkpt lat="44.9168" lon="5.548">
        <ele>1135.45</ele>
        <time>2020-06-21T09:16:20Z</time>
      </trkpt>
      <trkpt lat="44.91671" lon="5.54798">
        <ele>1134.01</ele>
        <time>2020-06-21T09:16:21Z</time>
      </trkpt>
      <trkpt lat="44.91657" lon="5.54792">
        <ele>1133.05</ele>
        <time>2020-06-21T09:16:22Z</time>
      </trkpt>
      <trkpt lat="44.91644" lon="5.54789">
        <ele>1131.61</ele>
        <time>2020-06-21T09:16:23Z</time>
      </trkpt>
      <trkpt lat="44.91632" lon="5.54788">
        <ele>1129.21</ele>
        <time>2020-06-21T09:16:24Z</time>
      </trkpt>
      <trkpt lat="44.91621" lon="5.54786">
        <ele>1127.76</ele>
        <time>2020-06-21T09:16:25Z</time>
      </trkpt>
      <trkpt lat="44.9161" lon="5.54784">
        <ele>1126.32</ele>
        <time>2020-06-21T09:16:26Z</time>
      </trkpt>
      <trkpt lat="44.91576" lon="5.54775">
        <ele>1122.96</ele>
        <time>2020-06-21T09:16:29Z</time>
      </trkpt>
      <trkpt lat="44.91557" lon="5.54772">
        <ele>1122</ele>
        <time>2020-06-21T09:16:31Z</time>
      </trkpt>
      <trkpt lat="44.91534" lon="5.54768">
        <ele>1119.59</ele>
        <time>2020-06-21T09:16:34Z</time>
      </trkpt>
      <trkpt lat="44.9151" lon="5.5476">
        <ele>1116.23</ele>
        <time>2020-06-21T09:16:37Z</time>
      </trkpt>
      <trkpt lat="44.91498" lon="5.54754">
        <ele>1115.75</ele>
        <time>2020-06-21T09:16:38Z</time>
      </trkpt>
      <trkpt lat="44.91488" lon="5.5475">
        <ele>1114.79</ele>
        <time>2020-06-21T09:16:39Z</time>
      </trkpt>
      <trkpt lat="44.91478" lon="5.54746">
        <ele>1114.31</ele>
        <time>2020-06-21T09:16:40Z</time>
      </trkpt>
      <trkpt lat="44.91469" lon="5.54743">
        <ele>1114.31</ele>
        <time>2020-06-21T09:16:41Z</time>
      </trkpt>
      <trkpt lat="44.91462" lon="5.54738">
        <ele>1114.31</ele>
        <time>2020-06-21T09:16:42Z</time>
      </trkpt>
      <trkpt lat="44.91458" lon="5.54732">
        <ele>1113.82</ele>
        <time>2020-06-21T09:16:43Z</time>
      </trkpt>
      <trkpt lat="44.91459" lon="5.54725">
        <ele>1112.86</ele>
        <time>2020-06-21T09:16:44Z</time>
      </trkpt>
      <trkpt lat="44.91462" lon="5.54719">
        <ele>1111.42</ele>
        <time>2020-06-21T09:16:45Z</time>
      </trkpt>
      <trkpt lat="44.91467" lon="5.54715">
        <ele>1110.94</ele>
        <time>2020-06-21T09:16:46Z</time>
      </trkpt>
      <trkpt lat="44.91473" lon="5.54711">
        <ele>1109.98</ele>
        <time>2020-06-21T09:16:47Z</time>
      </trkpt>
      <trkpt lat="44.91481" lon="5.54709">
        <ele>1109.02</ele>
        <time>2020-06-21T09:16:48Z</time>
      </trkpt>
      <trkpt lat="44.91488" lon="5.54708">
        <ele>1106.61</ele>
        <time>2020-06-21T09:16:49Z</time>
      </trkpt>
      <trkpt lat="44.91497" lon="5.54707">
        <ele>1105.17</ele>
        <time>2020-06-21T09:16:50Z</time>
      </trkpt>
      <trkpt lat="44.91514" lon="5.54703">
        <ele>1104.21</ele>
        <time>2020-06-21T09:16:52Z</time>
      </trkpt>
      <trkpt lat="44.91522" lon="5.54699">
        <ele>1103.25</ele>
        <time>2020-06-21T09:16:53Z</time>
      </trkpt>
      <trkpt lat="44.91531" lon="5.54694">
        <ele>1102.29</ele>
        <time>2020-06-21T09:16:54Z</time>
      </trkpt>
      <trkpt lat="44.9154" lon="5.54687">
        <ele>1099.89</ele>
        <time>2020-06-21T09:16:55Z</time>
      </trkpt>
      <trkpt lat="44.91549" lon="5.5468">
        <ele>1098.44</ele>
        <time>2020-06-21T09:16:56Z</time>
      </trkpt>
      <trkpt lat="44.91559" lon="5.54675">
        <ele>1097.96</ele>
        <time>2020-06-21T09:16:57Z</time>
      </trkpt>
      <trkpt lat="44.9158" lon="5.54664">
        <ele>1096.04</ele>
        <time>2020-06-21T09:16:59Z</time>
      </trkpt>
      <trkpt lat="44.91591" lon="5.54661">
        <ele>1095.56</ele>
        <time>2020-06-21T09:17:00Z</time>
      </trkpt>
      <trkpt lat="44.91601" lon="5.54657">
        <ele>1093.64</ele>
        <time>2020-06-21T09:17:01Z</time>
      </trkpt>
      <trkpt lat="44.91611" lon="5.54653">
        <ele>1093.16</ele>
        <time>2020-06-21T09:17:02Z</time>
      </trkpt>
      <trkpt lat="44.91621" lon="5.54651">
        <ele>1092.2</ele>
        <time>2020-06-21T09:17:03Z</time>
      </trkpt>
      <trkpt lat="44.91631" lon="5.54649">
        <ele>1090.75</ele>
        <time>2020-06-21T09:17:04Z</time>
      </trkpt>
      <trkpt lat="44.91642" lon="5.54647">
        <ele>1089.31</ele>
        <time>2020-06-21T09:17:05Z</time>
      </trkpt>
      <trkpt lat="44.91692" lon="5.54639">
        <ele>1085.47</ele>
        <time>2020-06-21T09:17:10Z</time>
      </trkpt>
      <trkpt lat="44.91703" lon="5.54637">
        <ele>1084.5</ele>
        <time>2020-06-21T09:17:11Z</time>
      </trkpt>
      <trkpt lat="44.91734" lon="5.54636">
        <ele>1081.14</ele>
        <time>2020-06-21T09:17:14Z</time>
      </trkpt>
      <trkpt lat="44.91766" lon="5.54634">
        <ele>1077.29</ele>
        <time>2020-06-21T09:17:17Z</time>
      </trkpt>
      <trkpt lat="44.91811" lon="5.54623">
        <ele>1073.93</ele>
        <time>2020-06-21T09:17:21Z</time>
      </trkpt>
      <trkpt lat="44.91822" lon="5.54616">
        <ele>1072.49</ele>
        <time>2020-06-21T09:17:22Z</time>
      </trkpt>
      <trkpt lat="44.91832" lon="5.54607">
        <ele>1071.53</ele>
        <time>2020-06-21T09:17:23Z</time>
      </trkpt>
      <trkpt lat="44.9184" lon="5.54596">
        <ele>1070.57</ele>
        <time>2020-06-21T09:17:24Z</time>
      </trkpt>
      <trkpt lat="44.91848" lon="5.54585">
        <ele>1070.08</ele>
        <time>2020-06-21T09:17:25Z</time>
      </trkpt>
      <trkpt lat="44.91856" lon="5.54577">
        <ele>1068.64</ele>
        <time>2020-06-21T09:17:26Z</time>
      </trkpt>
      <trkpt lat="44.91866" lon="5.5457">
        <ele>1067.2</ele>
        <time>2020-06-21T09:17:27Z</time>
      </trkpt>
      <trkpt lat="44.91895" lon="5.54558">
        <ele>1064.32</ele>
        <time>2020-06-21T09:17:30Z</time>
      </trkpt>
      <trkpt lat="44.91915" lon="5.54548">
        <ele>1062.39</ele>
        <time>2020-06-21T09:17:32Z</time>
      </trkpt>
      <trkpt lat="44.91925" lon="5.54542">
        <ele>1061.43</ele>
        <time>2020-06-21T09:17:33Z</time>
      </trkpt>
      <trkpt lat="44.91965" lon="5.54524">
        <ele>1057.11</ele>
        <time>2020-06-21T09:17:37Z</time>
      </trkpt>
      <trkpt lat="44.91976" lon="5.54523">
        <ele>1055.67</ele>
        <time>2020-06-21T09:17:38Z</time>
      </trkpt>
      <trkpt lat="44.91996" lon="5.54522">
        <ele>1053.74</ele>
        <time>2020-06-21T09:17:40Z</time>
      </trkpt>
      <trkpt lat="44.92016" lon="5.54521">
        <ele>1053.26</ele>
        <time>2020-06-21T09:17:42Z</time>
      </trkpt>
      <trkpt lat="44.92025" lon="5.54521">
        <ele>1053.74</ele>
        <time>2020-06-21T09:17:43Z</time>
      </trkpt>
      <trkpt lat="44.92035" lon="5.54521">
        <ele>1052.78</ele>
        <time>2020-06-21T09:17:44Z</time>
      </trkpt>
      <trkpt lat="44.92045" lon="5.54521">
        <ele>1052.78</ele>
        <time>2020-06-21T09:17:45Z</time>
      </trkpt>
      <trkpt lat="44.92055" lon="5.5452">
        <ele>1052.3</ele>
        <time>2020-06-21T09:17:46Z</time>
      </trkpt>
      <trkpt lat="44.92064" lon="5.54519">
        <ele>1052.3</ele>
        <time>2020-06-21T09:17:47Z</time>
      </trkpt>
      <trkpt lat="44.92072" lon="5.54518">
        <ele>1051.82</ele>
        <time>2020-06-21T09:17:48Z</time>
      </trkpt>
      <trkpt lat="44.92119" lon="5.54514">
        <ele>1047.97</ele>
        <time>2020-06-21T09:17:53Z</time>
      </trkpt>
      <trkpt lat="44.92128" lon="5.54511">
        <ele>1046.05</ele>
        <time>2020-06-21T09:17:54Z</time>
      </trkpt>
      <trkpt lat="44.92137" lon="5.54506">
        <ele>1045.57</ele>
        <time>2020-06-21T09:17:55Z</time>
      </trkpt>
      <trkpt lat="44.92164" lon="5.54491">
        <ele>1045.09</ele>
        <time>2020-06-21T09:17:58Z</time>
      </trkpt>
      <trkpt lat="44.92173" lon="5.54489">
        <ele>1044.61</ele>
        <time>2020-06-21T09:17:59Z</time>
      </trkpt>
      <trkpt lat="44.92193" lon="5.54485">
        <ele>1041.73</ele>
        <time>2020-06-21T09:18:01Z</time>
      </trkpt>
      <trkpt lat="44.92216" lon="5.54483">
        <ele>1038.36</ele>
        <time>2020-06-21T09:18:03Z</time>
      </trkpt>
      <trkpt lat="44.92236" lon="5.54477">
        <ele>1036.44</ele>
        <time>2020-06-21T09:18:05Z</time>
      </trkpt>
      <trkpt lat="44.92245" lon="5.54474">
        <ele>1035</ele>
        <time>2020-06-21T09:18:06Z</time>
      </trkpt>
      <trkpt lat="44.92255" lon="5.54474">
        <ele>1033.07</ele>
        <time>2020-06-21T09:18:07Z</time>
      </trkpt>
      <trkpt lat="44.92266" lon="5.54477">
        <ele>1031.63</ele>
        <time>2020-06-21T09:18:08Z</time>
      </trkpt>
      <trkpt lat="44.92276" lon="5.54481">
        <ele>1030.67</ele>
        <time>2020-06-21T09:18:09Z</time>
      </trkpt>
      <trkpt lat="44.92286" lon="5.54483">
        <ele>1029.71</ele>
        <time>2020-06-21T09:18:10Z</time>
      </trkpt>
      <trkpt lat="44.92297" lon="5.54483">
        <ele>1029.23</ele>
        <time>2020-06-21T09:18:11Z</time>
      </trkpt>
      <trkpt lat="44.9233" lon="5.54487">
        <ele>1024.9</ele>
        <time>2020-06-21T09:18:14Z</time>
      </trkpt>
      <trkpt lat="44.92341" lon="5.5449">
        <ele>1023.94</ele>
        <time>2020-06-21T09:18:15Z</time>
      </trkpt>
      <trkpt lat="44.92376" lon="5.54502">
        <ele>1020.58</ele>
        <time>2020-06-21T09:18:18Z</time>
      </trkpt>
      <trkpt lat="44.92399" lon="5.54509">
        <ele>1018.17</ele>
        <time>2020-06-21T09:18:20Z</time>
      </trkpt>
      <trkpt lat="44.92433" lon="5.54522">
        <ele>1016.25</ele>
        <time>2020-06-21T09:18:23Z</time>
      </trkpt>
      <trkpt lat="44.92444" lon="5.54524">
        <ele>1015.77</ele>
        <time>2020-06-21T09:18:24Z</time>
      </trkpt>
      <trkpt lat="44.92485" lon="5.54537">
        <ele>1015.29</ele>
        <time>2020-06-21T09:18:28Z</time>
      </trkpt>
      <trkpt lat="44.92494" lon="5.54543">
        <ele>1014.81</ele>
        <time>2020-06-21T09:18:29Z</time>
      </trkpt>
      <trkpt lat="44.92529" lon="5.54567">
        <ele>1013.85</ele>
        <time>2020-06-21T09:18:33Z</time>
      </trkpt>
      <trkpt lat="44.92539" lon="5.54569">
        <ele>1013.37</ele>
        <time>2020-06-21T09:18:34Z</time>
      </trkpt>
      <trkpt lat="44.92549" lon="5.54568">
        <ele>1012.89</ele>
        <time>2020-06-21T09:18:35Z</time>
      </trkpt>
      <trkpt lat="44.92558" lon="5.54564">
        <ele>1012.89</ele>
        <time>2020-06-21T09:18:36Z</time>
      </trkpt>
      <trkpt lat="44.92567" lon="5.54559">
        <ele>1012.89</ele>
        <time>2020-06-21T09:18:37Z</time>
      </trkpt>
      <trkpt lat="44.92577" lon="5.54555">
        <ele>1012.41</ele>
        <time>2020-06-21T09:18:38Z</time>
      </trkpt>
      <trkpt lat="44.92586" lon="5.54552">
        <ele>1011.93</ele>
        <time>2020-06-21T09:18:39Z</time>
      </trkpt>
      <trkpt lat="44.92595" lon="5.54551">
        <ele>1012.41</ele>
        <time>2020-06-21T09:18:40Z</time>
      </trkpt>
      <trkpt lat="44.92603" lon="5.54551">
        <ele>1012.89</ele>
        <time>2020-06-21T09:18:41Z</time>
      </trkpt>
      <trkpt lat="44.92612" lon="5.54553">
        <ele>1012.89</ele>
        <time>2020-06-21T09:18:42Z</time>
      </trkpt>
      <trkpt lat="44.9262" lon="5.54556">
        <ele>1012.41</ele>
        <time>2020-06-21T09:18:43Z</time>
      </trkpt>
      <trkpt lat="44.92627" lon="5.54559">
        <ele>1013.37</ele>
        <time>2020-06-21T09:18:44Z</time>
      </trkpt>
      <trkpt lat="44.92673" lon="5.54577">
        <ele>1012.89</ele>
        <time>2020-06-21T09:18:51Z</time>
      </trkpt>
      <trkpt lat="44.92708" lon="5.54578">
        <ele>1013.37</ele>
        <time>2020-06-21T09:18:57Z</time>
      </trkpt>
      <trkpt lat="44.92714" lon="5.54576">
        <ele>1012.89</ele>
        <time>2020-06-21T09:18:58Z</time>
      </trkpt>
      <trkpt lat="44.92718" lon="5.54574">
        <ele>1013.85</ele>
        <time>2020-06-21T09:18:59Z</time>
      </trkpt>
      <trkpt lat="44.92723" lon="5.5457">
        <ele>1014.33</ele>
        <time>2020-06-21T09:19:00Z</time>
      </trkpt>
      <trkpt lat="44.92727" lon="5.54566">
        <ele>1014.33</ele>
        <time>2020-06-21T09:19:01Z</time>
      </trkpt>
      <trkpt lat="44.92737" lon="5.54559">
        <ele>1013.85</ele>
        <time>2020-06-21T09:19:03Z</time>
      </trkpt>
      <trkpt lat="44.92742" lon="5.54556">
        <ele>1013.85</ele>
        <time>2020-06-21T09:19:04Z</time>
      </trkpt>
      <trkpt lat="44.92748" lon="5.54555">
        <ele>1014.33</ele>
        <time>2020-06-21T09:19:05Z</time>
      </trkpt>
      <trkpt lat="44.92754" lon="5.54555">
        <ele>1014.33</ele>
        <time>2020-06-21T09:19:06Z</time>
      </trkpt>
      <trkpt lat="44.9276" lon="5.54556">
        <ele>1013.37</ele>
        <time>2020-06-21T09:19:07Z</time>
      </trkpt>
      <trkpt lat="44.92766" lon="5.54557">
        <ele>1012.89</ele>
        <time>2020-06-21T09:19:08Z</time>
      </trkpt>
      <trkpt lat="44.92772" lon="5.54557">
        <ele>1012.89</ele>
        <time>2020-06-21T09:19:09Z</time>
      </trkpt>
      <trkpt lat="44.92778" lon="5.54556">
        <ele>1013.37</ele>
        <time>2020-06-21T09:19:10Z</time>
      </trkpt>
      <trkpt lat="44.92783" lon="5.54555">
        <ele>1012.89</ele>
        <time>2020-06-21T09:19:11Z</time>
      </trkpt>
      <trkpt lat="44.92789" lon="5.54552">
        <ele>1013.37</ele>
        <time>2020-06-21T09:19:12Z</time>
      </trkpt>
      <trkpt lat="44.92794" lon="5.5455">
        <ele>1013.85</ele>
        <time>2020-06-21T09:19:13Z</time>
      </trkpt>
      <trkpt lat="44.92799" lon="5.54547">
        <ele>1013.37</ele>
        <time>2020-06-21T09:19:14Z</time>
      </trkpt>
      <trkpt lat="44.92804" lon="5.54545">
        <ele>1013.37</ele>
        <time>2020-06-21T09:19:15Z</time>
      </trkpt>
      <trkpt lat="44.92871" lon="5.54519">
        <ele>1013.85</ele>
        <time>2020-06-21T09:19:29Z</time>
      </trkpt>
      <trkpt lat="44.92875" lon="5.5452">
        <ele>1014.33</ele>
        <time>2020-06-21T09:19:30Z</time>
      </trkpt>
      <trkpt lat="44.92879" lon="5.54521">
        <ele>1014.33</ele>
        <time>2020-06-21T09:19:31Z</time>
      </trkpt>
      <trkpt lat="44.92884" lon="5.54523">
        <ele>1014.81</ele>
        <time>2020-06-21T09:19:32Z</time>
      </trkpt>
      <trkpt lat="44.92889" lon="5.54525">
        <ele>1014.81</ele>
        <time>2020-06-21T09:19:33Z</time>
      </trkpt>
      <trkpt lat="44.92893" lon="5.54527">
        <ele>1015.29</ele>
        <time>2020-06-21T09:19:34Z</time>
      </trkpt>
      <trkpt lat="44.92897" lon="5.54529">
        <ele>1014.81</ele>
        <time>2020-06-21T09:19:35Z</time>
      </trkpt>
      <trkpt lat="44.92901" lon="5.54531">
        <ele>1014.81</ele>
        <time>2020-06-21T09:19:36Z</time>
      </trkpt>
      <trkpt lat="44.92906" lon="5.54533">
        <ele>1014.81</ele>
        <time>2020-06-21T09:19:37Z</time>
      </trkpt>
      <trkpt lat="44.9291" lon="5.54534">
        <ele>1014.81</ele>
        <time>2020-06-21T09:19:38Z</time>
      </trkpt>
      <trkpt lat="44.92936" lon="5.54533">
        <ele>1014.33</ele>
        <time>2020-06-21T09:19:44Z</time>
      </trkpt>
      <trkpt lat="44.9294" lon="5.54531">
        <ele>1014.81</ele>
        <time>2020-06-21T09:19:45Z</time>
      </trkpt>
      <trkpt lat="44.92945" lon="5.54531">
        <ele>1014.81</ele>
        <time>2020-06-21T09:19:46Z</time>
      </trkpt>
      <trkpt lat="44.92983" lon="5.54526">
        <ele>1014.33</ele>
        <time>2020-06-21T09:19:55Z</time>
      </trkpt>
      <trkpt lat="44.93018" lon="5.54539">
        <ele>1015.29</ele>
        <time>2020-06-21T09:20:04Z</time>
      </trkpt>
      <trkpt lat="44.93057" lon="5.54543">
        <ele>1014.81</ele>
        <time>2020-06-21T09:20:13Z</time>
      </trkpt>
      <trkpt lat="44.93062" lon="5.54542">
        <ele>1014.81</ele>
        <time>2020-06-21T09:20:14Z</time>
      </trkpt>
      <trkpt lat="44.93066" lon="5.5454">
        <ele>1014.81</ele>
        <time>2020-06-21T09:20:15Z</time>
      </trkpt>
      <trkpt lat="44.9307" lon="5.54537">
        <ele>1015.29</ele>
        <time>2020-06-21T09:20:16Z</time>
      </trkpt>
      <trkpt lat="44.93075" lon="5.54533">
        <ele>1014.81</ele>
        <time>2020-06-21T09:20:17Z</time>
      </trkpt>
      <trkpt lat="44.93078" lon="5.54528">
        <ele>1014.81</ele>
        <time>2020-06-21T09:20:18Z</time>
      </trkpt>
      <trkpt lat="44.93081" lon="5.54522">
        <ele>1014.81</ele>
        <time>2020-06-21T09:20:19Z</time>
      </trkpt>
      <trkpt lat="44.93086" lon="5.54511">
        <ele>1014.81</ele>
        <time>2020-06-21T09:20:21Z</time>
      </trkpt>
      <trkpt lat="44.93088" lon="5.54505">
        <ele>1014.33</ele>
        <time>2020-06-21T09:20:22Z</time>
      </trkpt>
      <trkpt lat="44.93094" lon="5.54484">
        <ele>1014.33</ele>
        <time>2020-06-21T09:20:25Z</time>
      </trkpt>
      <trkpt lat="44.93101" lon="5.54456">
        <ele>1013.85</ele>
        <time>2020-06-21T09:20:29Z</time>
      </trkpt>
      <trkpt lat="44.93103" lon="5.5445">
        <ele>1013.37</ele>
        <time>2020-06-21T09:20:30Z</time>
      </trkpt>
      <trkpt lat="44.93107" lon="5.54446">
        <ele>1013.85</ele>
        <time>2020-06-21T09:20:31Z</time>
      </trkpt>
      <trkpt lat="44.93112" lon="5.54443">
        <ele>1013.85</ele>
        <time>2020-06-21T09:20:32Z</time>
      </trkpt>
      <trkpt lat="44.93117" lon="5.54443">
        <ele>1013.85</ele>
        <time>2020-06-21T09:20:33Z</time>
      </trkpt>
      <trkpt lat="44.93121" lon="5.54446">
        <ele>1013.37</ele>
        <time>2020-06-21T09:20:34Z</time>
      </trkpt>
      <trkpt lat="44.93126" lon="5.54451">
        <ele>1013.37</ele>
        <time>2020-06-21T09:20:35Z</time>
      </trkpt>
      <trkpt lat="44.9313" lon="5.54456">
        <ele>1013.37</ele>
        <time>2020-06-21T09:20:36Z</time>
      </trkpt>
      <trkpt lat="44.93167" lon="5.54528">
        <ele>1012.89</ele>
        <time>2020-06-21T09:20:49Z</time>
      </trkpt>
      <trkpt lat="44.93172" lon="5.54535">
        <ele>1013.85</ele>
        <time>2020-06-21T09:20:50Z</time>
      </trkpt>
      <trkpt lat="44.93175" lon="5.54539">
        <ele>1014.33</ele>
        <time>2020-06-21T09:20:51Z</time>
      </trkpt>
      <trkpt lat="44.93179" lon="5.54543">
        <ele>1014.33</ele>
        <time>2020-06-21T09:20:52Z</time>
      </trkpt>
      <trkpt lat="44.93188" lon="5.5455">
        <ele>1014.81</ele>
        <time>2020-06-21T09:20:54Z</time>
      </trkpt>
      <trkpt lat="44.93193" lon="5.54551">
        <ele>1015.29</ele>
        <time>2020-06-21T09:20:55Z</time>
      </trkpt>
      <trkpt lat="44.93197" lon="5.54552">
        <ele>1015.29</ele>
        <time>2020-06-21T09:20:56Z</time>
      </trkpt>
      <trkpt lat="44.93212" lon="5.54554">
        <ele>1014.81</ele>
        <time>2020-06-21T09:20:59Z</time>
      </trkpt>
      <trkpt lat="44.93263" lon="5.54546">
        <ele>1015.77</ele>
        <time>2020-06-21T09:21:11Z</time>
      </trkpt>
      <trkpt lat="44.93267" lon="5.54546">
        <ele>1015.77</ele>
        <time>2020-06-21T09:21:12Z</time>
      </trkpt>
      <trkpt lat="44.93277" lon="5.54549">
        <ele>1014.81</ele>
        <time>2020-06-21T09:21:14Z</time>
      </trkpt>
      <trkpt lat="44.93281" lon="5.54551">
        <ele>1015.77</ele>
        <time>2020-06-21T09:21:15Z</time>
      </trkpt>
      <trkpt lat="44.93319" lon="5.5455">
        <ele>1015.77</ele>
        <time>2020-06-21T09:21:25Z</time>
      </trkpt>
      <trkpt lat="44.93343" lon="5.54516">
        <ele>1016.73</ele>
        <time>2020-06-21T09:21:34Z</time>
      </trkpt>
      <trkpt lat="44.93355" lon="5.54479">
        <ele>1018.17</ele>
        <time>2020-06-21T09:21:41Z</time>
      </trkpt>
      <trkpt lat="44.93359" lon="5.54475">
        <ele>1018.17</ele>
        <time>2020-06-21T09:21:42Z</time>
      </trkpt>
      <trkpt lat="44.93366" lon="5.54468">
        <ele>1017.69</ele>
        <time>2020-06-21T09:21:44Z</time>
      </trkpt>
      <trkpt lat="44.9337" lon="5.54465">
        <ele>1018.17</ele>
        <time>2020-06-21T09:21:45Z</time>
      </trkpt>
      <trkpt lat="44.93374" lon="5.54463">
        <ele>1017.69</ele>
        <time>2020-06-21T09:21:46Z</time>
      </trkpt>
      <trkpt lat="44.93379" lon="5.54462">
        <ele>1017.69</ele>
        <time>2020-06-21T09:21:47Z</time>
      </trkpt>
      <trkpt lat="44.93384" lon="5.54463">
        <ele>1017.69</ele>
        <time>2020-06-21T09:21:48Z</time>
      </trkpt>
      <trkpt lat="44.93389" lon="5.54465">
        <ele>1017.69</ele>
        <time>2020-06-21T09:21:49Z</time>
      </trkpt>
      <trkpt lat="44.93393" lon="5.54469">
        <ele>1017.69</ele>
        <time>2020-06-21T09:21:50Z</time>
      </trkpt>
      <trkpt lat="44.93397" lon="5.54473">
        <ele>1017.69</ele>
        <time>2020-06-21T09:21:51Z</time>
      </trkpt>
      <trkpt lat="44.93419" lon="5.54505">
        <ele>1018.65</ele>
        <time>2020-06-21T09:21:58Z</time>
      </trkpt>
      <trkpt lat="44.93439" lon="5.54545">
        <ele>1017.69</ele>
        <time>2020-06-21T09:22:06Z</time>
      </trkpt>
      <trkpt lat="44.93442" lon="5.54549">
        <ele>1018.17</ele>
        <time>2020-06-21T09:22:07Z</time>
      </trkpt>
      <trkpt lat="44.93445" lon="5.54552">
        <ele>1018.17</ele>
        <time>2020-06-21T09:22:08Z</time>
      </trkpt>
      <trkpt lat="44.93448" lon="5.54554">
        <ele>1018.65</ele>
        <time>2020-06-21T09:22:09Z</time>
      </trkpt>
      <trkpt lat="44.93451" lon="5.54555">
        <ele>1018.65</ele>
        <time>2020-06-21T09:22:10Z</time>
      </trkpt>
      <trkpt lat="44.93482" lon="5.54544">
        <ele>1020.1</ele>
        <time>2020-06-21T09:22:19Z</time>
      </trkpt>
      <trkpt lat="44.93522" lon="5.54544">
        <ele>1020.58</ele>
        <time>2020-06-21T09:22:30Z</time>
      </trkpt>
      <trkpt lat="44.93563" lon="5.54528">
        <ele>1022.02</ele>
        <time>2020-06-21T09:22:43Z</time>
      </trkpt>
      <trkpt lat="44.93597" lon="5.54492">
        <ele>1023.94</ele>
        <time>2020-06-21T09:22:57Z</time>
      </trkpt>
      <trkpt lat="44.93631" lon="5.54475">
        <ele>1025.38</ele>
        <time>2020-06-21T09:23:10Z</time>
      </trkpt>
      <trkpt lat="44.93642" lon="5.54467">
        <ele>1026.34</ele>
        <time>2020-06-21T09:23:18Z</time>
      </trkpt>
      <trkpt lat="44.93651" lon="5.54462">
        <ele>1026.83</ele>
        <time>2020-06-21T09:23:23Z</time>
      </trkpt>
      <trkpt lat="44.93653" lon="5.54464">
        <ele>1026.83</ele>
        <time>2020-06-21T09:23:24Z</time>
      </trkpt>
      <trkpt lat="44.93656" lon="5.54465">
        <ele>1026.34</ele>
        <time>2020-06-21T09:23:25Z</time>
      </trkpt>
      <trkpt lat="44.93685" lon="5.54485">
        <ele>1028.27</ele>
        <time>2020-06-21T09:23:35Z</time>
      </trkpt>
      <trkpt lat="44.93729" lon="5.54527">
        <ele>1030.19</ele>
        <time>2020-06-21T09:23:52Z</time>
      </trkpt>
      <trkpt lat="44.9376" lon="5.54559">
        <ele>1031.63</ele>
        <time>2020-06-21T09:24:07Z</time>
      </trkpt>
      <trkpt lat="44.9379" lon="5.54589">
        <ele>1033.55</ele>
        <time>2020-06-21T09:24:22Z</time>
      </trkpt>
      <trkpt lat="44.93822" lon="5.54611">
        <ele>1034.52</ele>
        <time>2020-06-21T09:24:36Z</time>
      </trkpt>
      <trkpt lat="44.93845" lon="5.54578">
        <ele>1034.52</ele>
        <time>2020-06-21T09:24:46Z</time>
      </trkpt>
      <trkpt lat="44.93868" lon="5.54548">
        <ele>1036.44</ele>
        <time>2020-06-21T09:24:56Z</time>
      </trkpt>
      <trkpt lat="44.93905" lon="5.54553">
        <ele>1035.96</ele>
        <time>2020-06-21T09:25:08Z</time>
      </trkpt>
      <trkpt lat="44.93949" lon="5.5456">
        <ele>1035.96</ele>
        <time>2020-06-21T09:25:21Z</time>
      </trkpt>
      <trkpt lat="44.93987" lon="5.54535">
        <ele>1037.88</ele>
        <time>2020-06-21T09:25:33Z</time>
      </trkpt>
      <trkpt lat="44.94026" lon="5.54491">
        <ele>1039.8</ele>
        <time>2020-06-21T09:25:48Z</time>
      </trkpt>
      <trkpt lat="44.94031" lon="5.54483">
        <ele>1039.32</ele>
        <time>2020-06-21T09:25:50Z</time>
      </trkpt>
      <trkpt lat="44.94034" lon="5.5448">
        <ele>1039.32</ele>
        <time>2020-06-21T09:25:51Z</time>
      </trkpt>
      <trkpt lat="44.94042" lon="5.54475">
        <ele>1039.32</ele>
        <time>2020-06-21T09:25:53Z</time>
      </trkpt>
      <trkpt lat="44.94047" lon="5.54473">
        <ele>1038.84</ele>
        <time>2020-06-21T09:25:54Z</time>
      </trkpt>
      <trkpt lat="44.94051" lon="5.54472">
        <ele>1039.32</ele>
        <time>2020-06-21T09:25:55Z</time>
      </trkpt>
      <trkpt lat="44.94055" lon="5.54472">
        <ele>1039.32</ele>
        <time>2020-06-21T09:25:56Z</time>
      </trkpt>
      <trkpt lat="44.94059" lon="5.54472">
        <ele>1039.32</ele>
        <time>2020-06-21T09:25:57Z</time>
      </trkpt>
      <trkpt lat="44.94063" lon="5.54474">
        <ele>1039.8</ele>
        <time>2020-06-21T09:25:58Z</time>
      </trkpt>
      <trkpt lat="44.94114" lon="5.54475">
        <ele>1040.76</ele>
        <time>2020-06-21T09:26:13Z</time>
      </trkpt>
      <trkpt lat="44.94161" lon="5.54436">
        <ele>1042.69</ele>
        <time>2020-06-21T09:26:30Z</time>
      </trkpt>
      <trkpt lat="44.94159" lon="5.54394">
        <ele>1043.65</ele>
        <time>2020-06-21T09:26:41Z</time>
      </trkpt>
      <trkpt lat="44.94144" lon="5.54352">
        <ele>1045.57</ele>
        <time>2020-06-21T09:26:53Z</time>
      </trkpt>
      <trkpt lat="44.94145" lon="5.54338">
        <ele>1045.09</ele>
        <time>2020-06-21T09:26:56Z</time>
      </trkpt>
      <trkpt lat="44.94147" lon="5.54335">
        <ele>1045.57</ele>
        <time>2020-06-21T09:26:57Z</time>
      </trkpt>
      <trkpt lat="44.94148" lon="5.54332">
        <ele>1045.57</ele>
        <time>2020-06-21T09:26:58Z</time>
      </trkpt>
      <trkpt lat="44.9415" lon="5.54329">
        <ele>1045.57</ele>
        <time>2020-06-21T09:26:59Z</time>
      </trkpt>
      <trkpt lat="44.94153" lon="5.54326">
        <ele>1045.57</ele>
        <time>2020-06-21T09:27:00Z</time>
      </trkpt>
      <trkpt lat="44.94156" lon="5.54324">
        <ele>1046.05</ele>
        <time>2020-06-21T09:27:01Z</time>
      </trkpt>
      <trkpt lat="44.94166" lon="5.54314">
        <ele>1046.53</ele>
        <time>2020-06-21T09:27:05Z</time>
      </trkpt>
      <trkpt lat="44.94169" lon="5.54312">
        <ele>1046.05</ele>
        <time>2020-06-21T09:27:06Z</time>
      </trkpt>
      <trkpt lat="44.94202" lon="5.54322">
        <ele>1047.01</ele>
        <time>2020-06-21T09:27:16Z</time>
      </trkpt>
      <trkpt lat="44.94237" lon="5.54361">
        <ele>1047.01</ele>
        <time>2020-06-21T09:27:28Z</time>
      </trkpt>
      <trkpt lat="44.94262" lon="5.54408">
        <ele>1046.05</ele>
        <time>2020-06-21T09:27:37Z</time>
      </trkpt>
      <trkpt lat="44.94266" lon="5.54413">
        <ele>1046.53</ele>
        <time>2020-06-21T09:27:38Z</time>
      </trkpt>
      <trkpt lat="44.9427" lon="5.54417">
        <ele>1046.05</ele>
        <time>2020-06-21T09:27:39Z</time>
      </trkpt>
      <trkpt lat="44.94275" lon="5.5442">
        <ele>1046.05</ele>
        <time>2020-06-21T09:27:40Z</time>
      </trkpt>
      <trkpt lat="44.9428" lon="5.54422">
        <ele>1046.05</ele>
        <time>2020-06-21T09:27:41Z</time>
      </trkpt>
      <trkpt lat="44.94285" lon="5.54424">
        <ele>1045.57</ele>
        <time>2020-06-21T09:27:42Z</time>
      </trkpt>
      <trkpt lat="44.9429" lon="5.54426">
        <ele>1045.57</ele>
        <time>2020-06-21T09:27:43Z</time>
      </trkpt>
      <trkpt lat="44.94333" lon="5.54435">
        <ele>1045.09</ele>
        <time>2020-06-21T09:27:52Z</time>
      </trkpt>
      <trkpt lat="44.94337" lon="5.54436">
        <ele>1046.05</ele>
        <time>2020-06-21T09:27:53Z</time>
      </trkpt>
      <trkpt lat="44.94346" lon="5.54439">
        <ele>1046.53</ele>
        <time>2020-06-21T09:27:55Z</time>
      </trkpt>
      <trkpt lat="44.94359" lon="5.5444">
        <ele>1046.05</ele>
        <time>2020-06-21T09:27:58Z</time>
      </trkpt>
      <trkpt lat="44.94414" lon="5.5442">
        <ele>1047.97</ele>
        <time>2020-06-21T09:28:13Z</time>
      </trkpt>
      <trkpt lat="44.94445" lon="5.54404">
        <ele>1046.53</ele>
        <time>2020-06-21T09:28:21Z</time>
      </trkpt>
      <trkpt lat="44.94457" lon="5.54392">
        <ele>1047.01</ele>
        <time>2020-06-21T09:28:24Z</time>
      </trkpt>
      <trkpt lat="44.94461" lon="5.54388">
        <ele>1047.01</ele>
        <time>2020-06-21T09:28:25Z</time>
      </trkpt>
      <trkpt lat="44.94464" lon="5.54385">
        <ele>1046.53</ele>
        <time>2020-06-21T09:28:26Z</time>
      </trkpt>
      <trkpt lat="44.94469" lon="5.54385">
        <ele>1047.01</ele>
        <time>2020-06-21T09:28:27Z</time>
      </trkpt>
      <trkpt lat="44.94473" lon="5.54386">
        <ele>1047.01</ele>
        <time>2020-06-21T09:28:28Z</time>
      </trkpt>
      <trkpt lat="44.94477" lon="5.54388">
        <ele>1047.49</ele>
        <time>2020-06-21T09:28:29Z</time>
      </trkpt>
      <trkpt lat="44.9448" lon="5.54391">
        <ele>1047.49</ele>
        <time>2020-06-21T09:28:30Z</time>
      </trkpt>
      <trkpt lat="44.94484" lon="5.54393">
        <ele>1047.97</ele>
        <time>2020-06-21T09:28:31Z</time>
      </trkpt>
      <trkpt lat="44.94511" lon="5.54445">
        <ele>1050.38</ele>
        <time>2020-06-21T09:28:43Z</time>
      </trkpt>
      <trkpt lat="44.94533" lon="5.54502">
        <ele>1049.42</ele>
        <time>2020-06-21T09:28:55Z</time>
      </trkpt>
      <trkpt lat="44.94535" lon="5.54507">
        <ele>1049.42</ele>
        <time>2020-06-21T09:28:56Z</time>
      </trkpt>
      <trkpt lat="44.94537" lon="5.54514">
        <ele>1048.94</ele>
        <time>2020-06-21T09:28:57Z</time>
      </trkpt>
      <trkpt lat="44.94543" lon="5.54533">
        <ele>1047.97</ele>
        <time>2020-06-21T09:29:00Z</time>
      </trkpt>
      <trkpt lat="44.94553" lon="5.5455">
        <ele>1047.97</ele>
        <time>2020-06-21T09:29:03Z</time>
      </trkpt>
      <trkpt lat="44.94585" lon="5.54605">
        <ele>1047.01</ele>
        <time>2020-06-21T09:29:12Z</time>
      </trkpt>
      <trkpt lat="44.946" lon="5.54654">
        <ele>1043.65</ele>
        <time>2020-06-21T09:29:18Z</time>
      </trkpt>
      <trkpt lat="44.94618" lon="5.54694">
        <ele>1043.65</ele>
        <time>2020-06-21T09:29:23Z</time>
      </trkpt>
      <trkpt lat="44.94675" lon="5.54761">
        <ele>1041.73</ele>
        <time>2020-06-21T09:29:35Z</time>
      </trkpt>
      <trkpt lat="44.9468" lon="5.54763">
        <ele>1041.73</ele>
        <time>2020-06-21T09:29:36Z</time>
      </trkpt>
      <trkpt lat="44.94685" lon="5.54763">
        <ele>1041.25</ele>
        <time>2020-06-21T09:29:37Z</time>
      </trkpt>
      <trkpt lat="44.9469" lon="5.54761">
        <ele>1041.73</ele>
        <time>2020-06-21T09:29:38Z</time>
      </trkpt>
      <trkpt lat="44.94696" lon="5.54759">
        <ele>1041.25</ele>
        <time>2020-06-21T09:29:39Z</time>
      </trkpt>
      <trkpt lat="44.947" lon="5.54757">
        <ele>1041.73</ele>
        <time>2020-06-21T09:29:40Z</time>
      </trkpt>
      <trkpt lat="44.94704" lon="5.54754">
        <ele>1041.73</ele>
        <time>2020-06-21T09:29:41Z</time>
      </trkpt>
      <trkpt lat="44.94751" lon="5.54714">
        <ele>1042.21</ele>
        <time>2020-06-21T09:29:52Z</time>
      </trkpt>
      <trkpt lat="44.94756" lon="5.54712">
        <ele>1042.69</ele>
        <time>2020-06-21T09:29:53Z</time>
      </trkpt>
      <trkpt lat="44.94762" lon="5.54711">
        <ele>1041.73</ele>
        <time>2020-06-21T09:29:54Z</time>
      </trkpt>
      <trkpt lat="44.94767" lon="5.5471">
        <ele>1041.73</ele>
        <time>2020-06-21T09:29:55Z</time>
      </trkpt>
      <trkpt lat="44.94773" lon="5.5471">
        <ele>1041.73</ele>
        <time>2020-06-21T09:29:56Z</time>
      </trkpt>
      <trkpt lat="44.94778" lon="5.54711">
        <ele>1041.73</ele>
        <time>2020-06-21T09:29:57Z</time>
      </trkpt>
      <trkpt lat="44.94784" lon="5.54713">
        <ele>1042.21</ele>
        <time>2020-06-21T09:29:58Z</time>
      </trkpt>
      <trkpt lat="44.94789" lon="5.54715">
        <ele>1041.73</ele>
        <time>2020-06-21T09:29:59Z</time>
      </trkpt>
      <trkpt lat="44.94829" lon="5.54733">
        <ele>1039.8</ele>
        <time>2020-06-21T09:30:07Z</time>
      </trkpt>
      <trkpt lat="44.94834" lon="5.54737">
        <ele>1040.28</ele>
        <time>2020-06-21T09:30:08Z</time>
      </trkpt>
      <trkpt lat="44.9484" lon="5.54741">
        <ele>1039.8</ele>
        <time>2020-06-21T09:30:09Z</time>
      </trkpt>
      <trkpt lat="44.94845" lon="5.54746">
        <ele>1040.28</ele>
        <time>2020-06-21T09:30:10Z</time>
      </trkpt>
      <trkpt lat="44.94851" lon="5.54751">
        <ele>1039.8</ele>
        <time>2020-06-21T09:30:11Z</time>
      </trkpt>
      <trkpt lat="44.94871" lon="5.5477">
        <ele>1038.84</ele>
        <time>2020-06-21T09:30:15Z</time>
      </trkpt>
      <trkpt lat="44.94893" lon="5.54796">
        <ele>1038.84</ele>
        <time>2020-06-21T09:30:20Z</time>
      </trkpt>
      <trkpt lat="44.94899" lon="5.54799">
        <ele>1038.36</ele>
        <time>2020-06-21T09:30:21Z</time>
      </trkpt>
      <trkpt lat="44.94905" lon="5.54802">
        <ele>1037.4</ele>
        <time>2020-06-21T09:30:22Z</time>
      </trkpt>
      <trkpt lat="44.94912" lon="5.54803">
        <ele>1038.36</ele>
        <time>2020-06-21T09:30:23Z</time>
      </trkpt>
      <trkpt lat="44.94918" lon="5.54802">
        <ele>1037.88</ele>
        <time>2020-06-21T09:30:24Z</time>
      </trkpt>
      <trkpt lat="44.94925" lon="5.54799">
        <ele>1036.92</ele>
        <time>2020-06-21T09:30:25Z</time>
      </trkpt>
      <trkpt lat="44.94932" lon="5.54796">
        <ele>1036.92</ele>
        <time>2020-06-21T09:30:26Z</time>
      </trkpt>
      <trkpt lat="44.94991" lon="5.54768">
        <ele>1035.48</ele>
        <time>2020-06-21T09:30:35Z</time>
      </trkpt>
      <trkpt lat="44.94997" lon="5.54764">
        <ele>1035</ele>
        <time>2020-06-21T09:30:36Z</time>
      </trkpt>
      <trkpt lat="44.95002" lon="5.54759">
        <ele>1035.48</ele>
        <time>2020-06-21T09:30:37Z</time>
      </trkpt>
      <trkpt lat="44.95007" lon="5.54752">
        <ele>1035.48</ele>
        <time>2020-06-21T09:30:38Z</time>
      </trkpt>
      <trkpt lat="44.95012" lon="5.54745">
        <ele>1035</ele>
        <time>2020-06-21T09:30:39Z</time>
      </trkpt>
      <trkpt lat="44.95016" lon="5.54738">
        <ele>1035</ele>
        <time>2020-06-21T09:30:40Z</time>
      </trkpt>
      <trkpt lat="44.95036" lon="5.54699">
        <ele>1033.55</ele>
        <time>2020-06-21T09:30:45Z</time>
      </trkpt>
      <trkpt lat="44.95049" lon="5.54674">
        <ele>1033.07</ele>
        <time>2020-06-21T09:30:48Z</time>
      </trkpt>
      <trkpt lat="44.95072" lon="5.54626">
        <ele>1032.59</ele>
        <time>2020-06-21T09:30:54Z</time>
      </trkpt>
      <trkpt lat="44.95074" lon="5.54618">
        <ele>1032.59</ele>
        <time>2020-06-21T09:30:55Z</time>
      </trkpt>
      <trkpt lat="44.95076" lon="5.5461">
        <ele>1032.59</ele>
        <time>2020-06-21T09:30:56Z</time>
      </trkpt>
      <trkpt lat="44.9508" lon="5.54589">
        <ele>1032.11</ele>
        <time>2020-06-21T09:30:59Z</time>
      </trkpt>
      <trkpt lat="44.95084" lon="5.54574">
        <ele>1031.63</ele>
        <time>2020-06-21T09:31:01Z</time>
      </trkpt>
      <trkpt lat="44.95092" lon="5.5456">
        <ele>1031.63</ele>
        <time>2020-06-21T09:31:03Z</time>
      </trkpt>
      <trkpt lat="44.95097" lon="5.54554">
        <ele>1032.11</ele>
        <time>2020-06-21T09:31:04Z</time>
      </trkpt>
      <trkpt lat="44.95103" lon="5.54552">
        <ele>1033.07</ele>
        <time>2020-06-21T09:31:05Z</time>
      </trkpt>
      <trkpt lat="44.95108" lon="5.5455">
        <ele>1032.11</ele>
        <time>2020-06-21T09:31:06Z</time>
      </trkpt>
      <trkpt lat="44.95114" lon="5.54552">
        <ele>1032.11</ele>
        <time>2020-06-21T09:31:07Z</time>
      </trkpt>
      <trkpt lat="44.95121" lon="5.54554">
        <ele>1031.63</ele>
        <time>2020-06-21T09:31:08Z</time>
      </trkpt>
      <trkpt lat="44.95125" lon="5.54558">
        <ele>1032.11</ele>
        <time>2020-06-21T09:31:09Z</time>
      </trkpt>
      <trkpt lat="44.95129" lon="5.54561">
        <ele>1032.11</ele>
        <time>2020-06-21T09:31:10Z</time>
      </trkpt>
      <trkpt lat="44.95133" lon="5.54565">
        <ele>1031.63</ele>
        <time>2020-06-21T09:31:11Z</time>
      </trkpt>
      <trkpt lat="44.95194" lon="5.5462">
        <ele>1030.19</ele>
        <time>2020-06-21T09:31:22Z</time>
      </trkpt>
      <trkpt lat="44.95204" lon="5.54627">
        <ele>1029.23</ele>
        <time>2020-06-21T09:31:24Z</time>
      </trkpt>
      <trkpt lat="44.95209" lon="5.5463">
        <ele>1029.23</ele>
        <time>2020-06-21T09:31:25Z</time>
      </trkpt>
      <trkpt lat="44.95214" lon="5.54633">
        <ele>1029.71</ele>
        <time>2020-06-21T09:31:26Z</time>
      </trkpt>
      <trkpt lat="44.95301" lon="5.54658">
        <ele>1029.23</ele>
        <time>2020-06-21T09:31:40Z</time>
      </trkpt>
      <trkpt lat="44.95385" lon="5.5466">
        <ele>1026.34</ele>
        <time>2020-06-21T09:31:54Z</time>
      </trkpt>
      <trkpt lat="44.95391" lon="5.54661">
        <ele>1025.86</ele>
        <time>2020-06-21T09:31:55Z</time>
      </trkpt>
      <trkpt lat="44.95397" lon="5.54665">
        <ele>1025.38</ele>
        <time>2020-06-21T09:31:56Z</time>
      </trkpt>
      <trkpt lat="44.95402" lon="5.54669">
        <ele>1024.9</ele>
        <time>2020-06-21T09:31:57Z</time>
      </trkpt>
      <trkpt lat="44.95407" lon="5.54675">
        <ele>1024.9</ele>
        <time>2020-06-21T09:31:58Z</time>
      </trkpt>
      <trkpt lat="44.95411" lon="5.54681">
        <ele>1024.42</ele>
        <time>2020-06-21T09:31:59Z</time>
      </trkpt>
      <trkpt lat="44.95414" lon="5.54688">
        <ele>1023.46</ele>
        <time>2020-06-21T09:32:00Z</time>
      </trkpt>
      <trkpt lat="44.95417" lon="5.54695">
        <ele>1023.94</ele>
        <time>2020-06-21T09:32:01Z</time>
      </trkpt>
      <trkpt lat="44.9542" lon="5.54701">
        <ele>1023.94</ele>
        <time>2020-06-21T09:32:02Z</time>
      </trkpt>
      <trkpt lat="44.95423" lon="5.54706">
        <ele>1023.94</ele>
        <time>2020-06-21T09:32:03Z</time>
      </trkpt>
      <trkpt lat="44.95427" lon="5.5471">
        <ele>1022.98</ele>
        <time>2020-06-21T09:32:04Z</time>
      </trkpt>
      <trkpt lat="44.95431" lon="5.54713">
        <ele>1023.94</ele>
        <time>2020-06-21T09:32:05Z</time>
      </trkpt>
      <trkpt lat="44.95435" lon="5.54715">
        <ele>1023.46</ele>
        <time>2020-06-21T09:32:06Z</time>
      </trkpt>
      <trkpt lat="44.95439" lon="5.54716">
        <ele>1022.5</ele>
        <time>2020-06-21T09:32:07Z</time>
      </trkpt>
      <trkpt lat="44.95443" lon="5.54716">
        <ele>1022.98</ele>
        <time>2020-06-21T09:32:08Z</time>
      </trkpt>
      <trkpt lat="44.95447" lon="5.54714">
        <ele>1022.98</ele>
        <time>2020-06-21T09:32:09Z</time>
      </trkpt>
      <trkpt lat="44.95454" lon="5.54713">
        <ele>1022.5</ele>
        <time>2020-06-21T09:32:10Z</time>
      </trkpt>
      <trkpt lat="44.95461" lon="5.54711">
        <ele>1022.5</ele>
        <time>2020-06-21T09:32:11Z</time>
      </trkpt>
      <trkpt lat="44.95468" lon="5.54709">
        <ele>1022.5</ele>
        <time>2020-06-21T09:32:12Z</time>
      </trkpt>
      <trkpt lat="44.95516" lon="5.5469">
        <ele>1022.5</ele>
        <time>2020-06-21T09:32:19Z</time>
      </trkpt>
      <trkpt lat="44.95523" lon="5.54689">
        <ele>1022.98</ele>
        <time>2020-06-21T09:32:20Z</time>
      </trkpt>
      <trkpt lat="44.95531" lon="5.5469">
        <ele>1021.54</ele>
        <time>2020-06-21T09:32:21Z</time>
      </trkpt>
      <trkpt lat="44.95537" lon="5.54694">
        <ele>1021.54</ele>
        <time>2020-06-21T09:32:22Z</time>
      </trkpt>
      <trkpt lat="44.95543" lon="5.547">
        <ele>1021.54</ele>
        <time>2020-06-21T09:32:23Z</time>
      </trkpt>
      <trkpt lat="44.95548" lon="5.54708">
        <ele>1021.54</ele>
        <time>2020-06-21T09:32:24Z</time>
      </trkpt>
      <trkpt lat="44.95553" lon="5.54715">
        <ele>1020.58</ele>
        <time>2020-06-21T09:32:25Z</time>
      </trkpt>
      <trkpt lat="44.95557" lon="5.54722">
        <ele>1021.06</ele>
        <time>2020-06-21T09:32:26Z</time>
      </trkpt>
      <trkpt lat="44.95561" lon="5.54729">
        <ele>1020.58</ele>
        <time>2020-06-21T09:32:27Z</time>
      </trkpt>
      <trkpt lat="44.95566" lon="5.54736">
        <ele>1020.58</ele>
        <time>2020-06-21T09:32:28Z</time>
      </trkpt>
      <trkpt lat="44.9557" lon="5.54741">
        <ele>1021.06</ele>
        <time>2020-06-21T09:32:29Z</time>
      </trkpt>
      <trkpt lat="44.95576" lon="5.54746">
        <ele>1019.62</ele>
        <time>2020-06-21T09:32:30Z</time>
      </trkpt>
      <trkpt lat="44.95582" lon="5.54751">
        <ele>1020.1</ele>
        <time>2020-06-21T09:32:31Z</time>
      </trkpt>
      <trkpt lat="44.95588" lon="5.54755">
        <ele>1019.62</ele>
        <time>2020-06-21T09:32:32Z</time>
      </trkpt>
      <trkpt lat="44.95665" lon="5.54805">
        <ele>1019.13</ele>
        <time>2020-06-21T09:32:45Z</time>
      </trkpt>
      <trkpt lat="44.95669" lon="5.5481">
        <ele>1019.62</ele>
        <time>2020-06-21T09:32:46Z</time>
      </trkpt>
      <trkpt lat="44.95674" lon="5.54815">
        <ele>1019.62</ele>
        <time>2020-06-21T09:32:47Z</time>
      </trkpt>
      <trkpt lat="44.95721" lon="5.54884">
        <ele>1021.06</ele>
        <time>2020-06-21T09:33:00Z</time>
      </trkpt>
      <trkpt lat="44.95734" lon="5.54899">
        <ele>1022.02</ele>
        <time>2020-06-21T09:33:04Z</time>
      </trkpt>
      <trkpt lat="44.95738" lon="5.54902">
        <ele>1022.5</ele>
        <time>2020-06-21T09:33:05Z</time>
      </trkpt>
      <trkpt lat="44.95793" lon="5.54942">
        <ele>1022.5</ele>
        <time>2020-06-21T09:33:19Z</time>
      </trkpt>
      <trkpt lat="44.95855" lon="5.55014">
        <ele>1020.1</ele>
        <time>2020-06-21T09:33:34Z</time>
      </trkpt>
      <trkpt lat="44.95936" lon="5.55085">
        <ele>1016.73</ele>
        <time>2020-06-21T09:33:50Z</time>
      </trkpt>
      <trkpt lat="44.96004" lon="5.55117">
        <ele>1014.33</ele>
        <time>2020-06-21T09:34:01Z</time>
      </trkpt>
      <trkpt lat="44.96041" lon="5.55139">
        <ele>1014.33</ele>
        <time>2020-06-21T09:34:07Z</time>
      </trkpt>
      <trkpt lat="44.96046" lon="5.55145">
        <ele>1014.81</ele>
        <time>2020-06-21T09:34:08Z</time>
      </trkpt>
      <trkpt lat="44.9605" lon="5.55151">
        <ele>1014.81</ele>
        <time>2020-06-21T09:34:09Z</time>
      </trkpt>
      <trkpt lat="44.96078" lon="5.55186">
        <ele>1018.65</ele>
        <time>2020-06-21T09:34:17Z</time>
      </trkpt>
      <trkpt lat="44.9612" lon="5.55231">
        <ele>1019.13</ele>
        <time>2020-06-21T09:34:30Z</time>
      </trkpt>
      <trkpt lat="44.96122" lon="5.55236">
        <ele>1019.62</ele>
        <time>2020-06-21T09:34:31Z</time>
      </trkpt>
      <trkpt lat="44.96138" lon="5.55301">
        <ele>1021.54</ele>
        <time>2020-06-21T09:34:45Z</time>
      </trkpt>
      <trkpt lat="44.96137" lon="5.55309">
        <ele>1022.98</ele>
        <time>2020-06-21T09:34:47Z</time>
      </trkpt>
      <trkpt lat="44.96121" lon="5.55356">
        <ele>1024.42</ele>
        <time>2020-06-21T09:35:01Z</time>
      </trkpt>
      <trkpt lat="44.96121" lon="5.55358">
        <ele>1024.42</ele>
        <time>2020-06-21T09:35:02Z</time>
      </trkpt>
      <trkpt lat="44.96121" lon="5.55362">
        <ele>1024.42</ele>
        <time>2020-06-21T09:35:03Z</time>
      </trkpt>
      <trkpt lat="44.96122" lon="5.55365">
        <ele>1024.42</ele>
        <time>2020-06-21T09:35:04Z</time>
      </trkpt>
      <trkpt lat="44.96123" lon="5.5537">
        <ele>1023.94</ele>
        <time>2020-06-21T09:35:05Z</time>
      </trkpt>
      <trkpt lat="44.96124" lon="5.55374">
        <ele>1023.46</ele>
        <time>2020-06-21T09:35:06Z</time>
      </trkpt>
      <trkpt lat="44.96134" lon="5.55399">
        <ele>1021.54</ele>
        <time>2020-06-21T09:35:11Z</time>
      </trkpt>
      <trkpt lat="44.96137" lon="5.55403">
        <ele>1022.5</ele>
        <time>2020-06-21T09:35:12Z</time>
      </trkpt>
      <trkpt lat="44.9614" lon="5.55409">
        <ele>1022.02</ele>
        <time>2020-06-21T09:35:13Z</time>
      </trkpt>
      <trkpt lat="44.96144" lon="5.55413">
        <ele>1021.54</ele>
        <time>2020-06-21T09:35:14Z</time>
      </trkpt>
      <trkpt lat="44.96148" lon="5.55416">
        <ele>1021.54</ele>
        <time>2020-06-21T09:35:15Z</time>
      </trkpt>
      <trkpt lat="44.96153" lon="5.55418">
        <ele>1020.1</ele>
        <time>2020-06-21T09:35:16Z</time>
      </trkpt>
      <trkpt lat="44.96164" lon="5.55423">
        <ele>1017.69</ele>
        <time>2020-06-21T09:35:18Z</time>
      </trkpt>
      <trkpt lat="44.9617" lon="5.55425">
        <ele>1017.69</ele>
        <time>2020-06-21T09:35:19Z</time>
      </trkpt>
      <trkpt lat="44.96186" lon="5.55431">
        <ele>1016.73</ele>
        <time>2020-06-21T09:35:22Z</time>
      </trkpt>
      <trkpt lat="44.96193" lon="5.55433">
        <ele>1015.29</ele>
        <time>2020-06-21T09:35:23Z</time>
      </trkpt>
      <trkpt lat="44.962" lon="5.55435">
        <ele>1015.29</ele>
        <time>2020-06-21T09:35:24Z</time>
      </trkpt>
      <trkpt lat="44.96207" lon="5.55436">
        <ele>1014.81</ele>
        <time>2020-06-21T09:35:25Z</time>
      </trkpt>
      <trkpt lat="44.96214" lon="5.55439">
        <ele>1013.37</ele>
        <time>2020-06-21T09:35:26Z</time>
      </trkpt>
      <trkpt lat="44.96221" lon="5.5544">
        <ele>1012.89</ele>
        <time>2020-06-21T09:35:27Z</time>
      </trkpt>
      <trkpt lat="44.96228" lon="5.55442">
        <ele>1012.41</ele>
        <time>2020-06-21T09:35:28Z</time>
      </trkpt>
      <trkpt lat="44.96236" lon="5.55445">
        <ele>1012.41</ele>
        <time>2020-06-21T09:35:29Z</time>
      </trkpt>
      <trkpt lat="44.96245" lon="5.55446">
        <ele>1009.04</ele>
        <time>2020-06-21T09:35:30Z</time>
      </trkpt>
      <trkpt lat="44.96254" lon="5.55448">
        <ele>1007.6</ele>
        <time>2020-06-21T09:35:31Z</time>
      </trkpt>
      <trkpt lat="44.96263" lon="5.55449">
        <ele>1007.12</ele>
        <time>2020-06-21T09:35:32Z</time>
      </trkpt>
      <trkpt lat="44.96272" lon="5.5545">
        <ele>1006.16</ele>
        <time>2020-06-21T09:35:33Z</time>
      </trkpt>
      <trkpt lat="44.96281" lon="5.55451">
        <ele>1004.72</ele>
        <time>2020-06-21T09:35:34Z</time>
      </trkpt>
      <trkpt lat="44.96291" lon="5.55452">
        <ele>1003.75</ele>
        <time>2020-06-21T09:35:35Z</time>
      </trkpt>
      <trkpt lat="44.96301" lon="5.55453">
        <ele>1001.83</ele>
        <time>2020-06-21T09:35:36Z</time>
      </trkpt>
      <trkpt lat="44.96311" lon="5.55453">
        <ele>1001.35</ele>
        <time>2020-06-21T09:35:37Z</time>
      </trkpt>
      <trkpt lat="44.96331" lon="5.55452">
        <ele>998.95</ele>
        <time>2020-06-21T09:35:39Z</time>
      </trkpt>
      <trkpt lat="44.96353" lon="5.55446">
        <ele>996.06</ele>
        <time>2020-06-21T09:35:41Z</time>
      </trkpt>
      <trkpt lat="44.96376" lon="5.5544">
        <ele>992.22</ele>
        <time>2020-06-21T09:35:43Z</time>
      </trkpt>
      <trkpt lat="44.96387" lon="5.55436">
        <ele>992.22</ele>
        <time>2020-06-21T09:35:44Z</time>
      </trkpt>
      <trkpt lat="44.96425" lon="5.55428">
        <ele>988.85</ele>
        <time>2020-06-21T09:35:48Z</time>
      </trkpt>
      <trkpt lat="44.96495" lon="5.55428">
        <ele>987.89</ele>
        <time>2020-06-21T09:35:57Z</time>
      </trkpt>
      <trkpt lat="44.96513" lon="5.55433">
        <ele>987.41</ele>
        <time>2020-06-21T09:36:00Z</time>
      </trkpt>
      <trkpt lat="44.9652" lon="5.55437">
        <ele>987.41</ele>
        <time>2020-06-21T09:36:01Z</time>
      </trkpt>
      <trkpt lat="44.96527" lon="5.55444">
        <ele>987.41</ele>
        <time>2020-06-21T09:36:02Z</time>
      </trkpt>
      <trkpt lat="44.96533" lon="5.55453">
        <ele>987.89</ele>
        <time>2020-06-21T09:36:03Z</time>
      </trkpt>
      <trkpt lat="44.96538" lon="5.55462">
        <ele>987.41</ele>
        <time>2020-06-21T09:36:04Z</time>
      </trkpt>
      <trkpt lat="44.96547" lon="5.55479">
        <ele>986.45</ele>
        <time>2020-06-21T09:36:06Z</time>
      </trkpt>
      <trkpt lat="44.96593" lon="5.55568">
        <ele>983.57</ele>
        <time>2020-06-21T09:36:16Z</time>
      </trkpt>
      <trkpt lat="44.96616" lon="5.55599">
        <ele>982.6</ele>
        <time>2020-06-21T09:36:21Z</time>
      </trkpt>
      <trkpt lat="44.96622" lon="5.55603">
        <ele>981.16</ele>
        <time>2020-06-21T09:36:22Z</time>
      </trkpt>
      <trkpt lat="44.96634" lon="5.55612">
        <ele>980.2</ele>
        <time>2020-06-21T09:36:24Z</time>
      </trkpt>
      <trkpt lat="44.9664" lon="5.55618">
        <ele>979.24</ele>
        <time>2020-06-21T09:36:25Z</time>
      </trkpt>
      <trkpt lat="44.96644" lon="5.55625">
        <ele>979.72</ele>
        <time>2020-06-21T09:36:26Z</time>
      </trkpt>
      <trkpt lat="44.96647" lon="5.55633">
        <ele>979.72</ele>
        <time>2020-06-21T09:36:27Z</time>
      </trkpt>
      <trkpt lat="44.96651" lon="5.5564">
        <ele>979.24</ele>
        <time>2020-06-21T09:36:28Z</time>
      </trkpt>
      <trkpt lat="44.96655" lon="5.55646">
        <ele>979.24</ele>
        <time>2020-06-21T09:36:29Z</time>
      </trkpt>
      <trkpt lat="44.96661" lon="5.55649">
        <ele>978.76</ele>
        <time>2020-06-21T09:36:30Z</time>
      </trkpt>
      <trkpt lat="44.96667" lon="5.55647">
        <ele>978.28</ele>
        <time>2020-06-21T09:36:31Z</time>
      </trkpt>
      <trkpt lat="44.9667" lon="5.55642">
        <ele>977.8</ele>
        <time>2020-06-21T09:36:32Z</time>
      </trkpt>
      <trkpt lat="44.96671" lon="5.55634">
        <ele>977.32</ele>
        <time>2020-06-21T09:36:33Z</time>
      </trkpt>
      <trkpt lat="44.9667" lon="5.55625">
        <ele>977.32</ele>
        <time>2020-06-21T09:36:34Z</time>
      </trkpt>
      <trkpt lat="44.96667" lon="5.55615">
        <ele>976.36</ele>
        <time>2020-06-21T09:36:35Z</time>
      </trkpt>
      <trkpt lat="44.96666" lon="5.55606">
        <ele>975.39</ele>
        <time>2020-06-21T09:36:36Z</time>
      </trkpt>
      <trkpt lat="44.96663" lon="5.55596">
        <ele>975.39</ele>
        <time>2020-06-21T09:36:37Z</time>
      </trkpt>
      <trkpt lat="44.96663" lon="5.55586">
        <ele>974.91</ele>
        <time>2020-06-21T09:36:38Z</time>
      </trkpt>
      <trkpt lat="44.96666" lon="5.55567">
        <ele>974.91</ele>
        <time>2020-06-21T09:36:40Z</time>
      </trkpt>
      <trkpt lat="44.96669" lon="5.55557">
        <ele>974.43</ele>
        <time>2020-06-21T09:36:41Z</time>
      </trkpt>
      <trkpt lat="44.96674" lon="5.55548">
        <ele>973.95</ele>
        <time>2020-06-21T09:36:42Z</time>
      </trkpt>
      <trkpt lat="44.9668" lon="5.5554">
        <ele>972.99</ele>
        <time>2020-06-21T09:36:43Z</time>
      </trkpt>
      <trkpt lat="44.96687" lon="5.55533">
        <ele>972.03</ele>
        <time>2020-06-21T09:36:44Z</time>
      </trkpt>
      <trkpt lat="44.96694" lon="5.55528">
        <ele>972.51</ele>
        <time>2020-06-21T09:36:45Z</time>
      </trkpt>
      <trkpt lat="44.96703" lon="5.55525">
        <ele>972.03</ele>
        <time>2020-06-21T09:36:46Z</time>
      </trkpt>
      <trkpt lat="44.96711" lon="5.55522">
        <ele>970.11</ele>
        <time>2020-06-21T09:36:47Z</time>
      </trkpt>
      <trkpt lat="44.9672" lon="5.55518">
        <ele>969.15</ele>
        <time>2020-06-21T09:36:48Z</time>
      </trkpt>
      <trkpt lat="44.96755" lon="5.55505">
        <ele>966.74</ele>
        <time>2020-06-21T09:36:52Z</time>
      </trkpt>
      <trkpt lat="44.96764" lon="5.55502">
        <ele>966.74</ele>
        <time>2020-06-21T09:36:53Z</time>
      </trkpt>
      <trkpt lat="44.96774" lon="5.55501">
        <ele>965.3</ele>
        <time>2020-06-21T09:36:54Z</time>
      </trkpt>
      <trkpt lat="44.96784" lon="5.555">
        <ele>965.3</ele>
        <time>2020-06-21T09:36:55Z</time>
      </trkpt>
      <trkpt lat="44.96804" lon="5.55501">
        <ele>963.38</ele>
        <time>2020-06-21T09:36:57Z</time>
      </trkpt>
      <trkpt lat="44.96835" lon="5.55502">
        <ele>960.98</ele>
        <time>2020-06-21T09:37:00Z</time>
      </trkpt>
      <trkpt lat="44.96845" lon="5.55504">
        <ele>960.98</ele>
        <time>2020-06-21T09:37:01Z</time>
      </trkpt>
      <trkpt lat="44.96864" lon="5.55509">
        <ele>962.42</ele>
        <time>2020-06-21T09:37:03Z</time>
      </trkpt>
      <trkpt lat="44.96873" lon="5.55511">
        <ele>961.46</ele>
        <time>2020-06-21T09:37:04Z</time>
      </trkpt>
      <trkpt lat="44.96881" lon="5.5551">
        <ele>960.49</ele>
        <time>2020-06-21T09:37:05Z</time>
      </trkpt>
      <trkpt lat="44.96889" lon="5.55509">
        <ele>960.01</ele>
        <time>2020-06-21T09:37:06Z</time>
      </trkpt>
      <trkpt lat="44.96898" lon="5.55507">
        <ele>960.01</ele>
        <time>2020-06-21T09:37:07Z</time>
      </trkpt>
      <trkpt lat="44.96926" lon="5.55502">
        <ele>959.53</ele>
        <time>2020-06-21T09:37:11Z</time>
      </trkpt>
      <trkpt lat="44.96931" lon="5.55505">
        <ele>959.53</ele>
        <time>2020-06-21T09:37:12Z</time>
      </trkpt>
      <trkpt lat="44.96934" lon="5.5551">
        <ele>959.05</ele>
        <time>2020-06-21T09:37:13Z</time>
      </trkpt>
      <trkpt lat="44.96936" lon="5.55515">
        <ele>959.05</ele>
        <time>2020-06-21T09:37:14Z</time>
      </trkpt>
      <trkpt lat="44.96938" lon="5.5552">
        <ele>959.05</ele>
        <time>2020-06-21T09:37:15Z</time>
      </trkpt>
      <trkpt lat="44.96939" lon="5.55524">
        <ele>959.05</ele>
        <time>2020-06-21T09:37:16Z</time>
      </trkpt>
      <trkpt lat="44.9694" lon="5.55528">
        <ele>958.57</ele>
        <time>2020-06-21T09:37:17Z</time>
      </trkpt>
      <trkpt lat="44.96942" lon="5.5553">
        <ele>959.05</ele>
        <time>2020-06-21T09:37:18Z</time>
      </trkpt>
      <trkpt lat="44.96945" lon="5.55531">
        <ele>959.53</ele>
        <time>2020-06-21T09:37:19Z</time>
      </trkpt>
      <trkpt lat="44.96947" lon="5.5553">
        <ele>959.53</ele>
        <time>2020-06-21T09:37:20Z</time>
      </trkpt>
      <trkpt lat="44.9695" lon="5.5553">
        <ele>959.05</ele>
        <time>2020-06-21T09:37:21Z</time>
      </trkpt>
      <trkpt lat="44.96952" lon="5.5553">
        <ele>959.05</ele>
        <time>2020-06-21T09:37:22Z</time>
      </trkpt>
      <trkpt lat="44.96955" lon="5.55531">
        <ele>959.05</ele>
        <time>2020-06-21T09:37:23Z</time>
      </trkpt>
      <trkpt lat="44.96963" lon="5.55534">
        <ele>958.57</ele>
        <time>2020-06-21T09:37:25Z</time>
      </trkpt>
      <trkpt lat="44.96975" lon="5.55544">
        <ele>959.53</ele>
        <time>2020-06-21T09:37:28Z</time>
      </trkpt>
      <trkpt lat="44.9699" lon="5.55562">
        <ele>959.05</ele>
        <time>2020-06-21T09:37:32Z</time>
      </trkpt>
      <trkpt lat="44.96993" lon="5.55567">
        <ele>958.57</ele>
        <time>2020-06-21T09:37:33Z</time>
      </trkpt>
      <trkpt lat="44.96997" lon="5.55572">
        <ele>959.53</ele>
        <time>2020-06-21T09:37:34Z</time>
      </trkpt>
      <trkpt lat="44.96999" lon="5.55578">
        <ele>958.57</ele>
        <time>2020-06-21T09:37:35Z</time>
      </trkpt>
      <trkpt lat="44.97001" lon="5.55584">
        <ele>959.05</ele>
        <time>2020-06-21T09:37:36Z</time>
      </trkpt>
      <trkpt lat="44.97003" lon="5.5559">
        <ele>959.05</ele>
        <time>2020-06-21T09:37:37Z</time>
      </trkpt>
      <trkpt lat="44.97004" lon="5.55596">
        <ele>959.05</ele>
        <time>2020-06-21T09:37:38Z</time>
      </trkpt>
      <trkpt lat="44.97005" lon="5.55603">
        <ele>959.53</ele>
        <time>2020-06-21T09:37:39Z</time>
      </trkpt>
      <trkpt lat="44.97009" lon="5.55645">
        <ele>960.49</ele>
        <time>2020-06-21T09:37:46Z</time>
      </trkpt>
      <trkpt lat="44.9701" lon="5.55651">
        <ele>960.49</ele>
        <time>2020-06-21T09:37:47Z</time>
      </trkpt>
      <trkpt lat="44.97019" lon="5.55709">
        <ele>960.98</ele>
        <time>2020-06-21T09:37:57Z</time>
      </trkpt>
      <trkpt lat="44.97023" lon="5.55758">
        <ele>961.94</ele>
        <time>2020-06-21T09:38:05Z</time>
      </trkpt>
      <trkpt lat="44.97024" lon="5.55765">
        <ele>961.94</ele>
        <time>2020-06-21T09:38:06Z</time>
      </trkpt>
      <trkpt lat="44.97025" lon="5.55771">
        <ele>961.94</ele>
        <time>2020-06-21T09:38:07Z</time>
      </trkpt>
      <trkpt lat="44.97027" lon="5.55777">
        <ele>961.46</ele>
        <time>2020-06-21T09:38:08Z</time>
      </trkpt>
      <trkpt lat="44.9703" lon="5.55782">
        <ele>961.94</ele>
        <time>2020-06-21T09:38:09Z</time>
      </trkpt>
      <trkpt lat="44.97032" lon="5.55788">
        <ele>961.94</ele>
        <time>2020-06-21T09:38:10Z</time>
      </trkpt>
      <trkpt lat="44.97035" lon="5.55792">
        <ele>961.94</ele>
        <time>2020-06-21T09:38:11Z</time>
      </trkpt>
      <trkpt lat="44.97042" lon="5.55802">
        <ele>961.94</ele>
        <time>2020-06-21T09:38:13Z</time>
      </trkpt>
      <trkpt lat="44.97046" lon="5.55806">
        <ele>961.94</ele>
        <time>2020-06-21T09:38:14Z</time>
      </trkpt>
      <trkpt lat="44.9705" lon="5.5581">
        <ele>960.98</ele>
        <time>2020-06-21T09:38:15Z</time>
      </trkpt>
      <trkpt lat="44.9706" lon="5.55817">
        <ele>960.98</ele>
        <time>2020-06-21T09:38:17Z</time>
      </trkpt>
      <trkpt lat="44.97079" lon="5.5583">
        <ele>960.98</ele>
        <time>2020-06-21T09:38:21Z</time>
      </trkpt>
      <trkpt lat="44.97083" lon="5.55835">
        <ele>960.98</ele>
        <time>2020-06-21T09:38:22Z</time>
      </trkpt>
      <trkpt lat="44.97087" lon="5.5584">
        <ele>960.98</ele>
        <time>2020-06-21T09:38:23Z</time>
      </trkpt>
      <trkpt lat="44.9709" lon="5.55846">
        <ele>960.49</ele>
        <time>2020-06-21T09:38:24Z</time>
      </trkpt>
      <trkpt lat="44.97093" lon="5.55853">
        <ele>960.49</ele>
        <time>2020-06-21T09:38:25Z</time>
      </trkpt>
      <trkpt lat="44.97094" lon="5.55861">
        <ele>960.98</ele>
        <time>2020-06-21T09:38:26Z</time>
      </trkpt>
      <trkpt lat="44.97095" lon="5.55868">
        <ele>960.49</ele>
        <time>2020-06-21T09:38:27Z</time>
      </trkpt>
      <trkpt lat="44.97096" lon="5.55876">
        <ele>960.49</ele>
        <time>2020-06-21T09:38:28Z</time>
      </trkpt>
      <trkpt lat="44.97098" lon="5.55905">
        <ele>960.01</ele>
        <time>2020-06-21T09:38:32Z</time>
      </trkpt>
      <trkpt lat="44.97098" lon="5.55912">
        <ele>960.01</ele>
        <time>2020-06-21T09:38:33Z</time>
      </trkpt>
      <trkpt lat="44.971" lon="5.55918">
        <ele>959.53</ele>
        <time>2020-06-21T09:38:34Z</time>
      </trkpt>
      <trkpt lat="44.97105" lon="5.55932">
        <ele>958.57</ele>
        <time>2020-06-21T09:38:36Z</time>
      </trkpt>
      <trkpt lat="44.97108" lon="5.55938">
        <ele>958.09</ele>
        <time>2020-06-21T09:38:37Z</time>
      </trkpt>
      <trkpt lat="44.97113" lon="5.55943">
        <ele>958.57</ele>
        <time>2020-06-21T09:38:38Z</time>
      </trkpt>
      <trkpt lat="44.97119" lon="5.55946">
        <ele>958.09</ele>
        <time>2020-06-21T09:38:39Z</time>
      </trkpt>
      <trkpt lat="44.97126" lon="5.55948">
        <ele>957.61</ele>
        <time>2020-06-21T09:38:40Z</time>
      </trkpt>
      <trkpt lat="44.97133" lon="5.55949">
        <ele>956.65</ele>
        <time>2020-06-21T09:38:41Z</time>
      </trkpt>
      <trkpt lat="44.97162" lon="5.55959">
        <ele>954.25</ele>
        <time>2020-06-21T09:38:45Z</time>
      </trkpt>
      <trkpt lat="44.9717" lon="5.55963">
        <ele>954.25</ele>
        <time>2020-06-21T09:38:46Z</time>
      </trkpt>
      <trkpt lat="44.97177" lon="5.55968">
        <ele>954.25</ele>
        <time>2020-06-21T09:38:47Z</time>
      </trkpt>
      <trkpt lat="44.97184" lon="5.55975">
        <ele>953.28</ele>
        <time>2020-06-21T09:38:48Z</time>
      </trkpt>
      <trkpt lat="44.9719" lon="5.55983">
        <ele>953.28</ele>
        <time>2020-06-21T09:38:49Z</time>
      </trkpt>
      <trkpt lat="44.97194" lon="5.55994">
        <ele>953.28</ele>
        <time>2020-06-21T09:38:50Z</time>
      </trkpt>
      <trkpt lat="44.97197" lon="5.56006">
        <ele>951.84</ele>
        <time>2020-06-21T09:38:51Z</time>
      </trkpt>
      <trkpt lat="44.97199" lon="5.56018">
        <ele>950.4</ele>
        <time>2020-06-21T09:38:52Z</time>
      </trkpt>
      <trkpt lat="44.972" lon="5.5603">
        <ele>949.92</ele>
        <time>2020-06-21T09:38:53Z</time>
      </trkpt>
      <trkpt lat="44.97205" lon="5.56054">
        <ele>948.96</ele>
        <time>2020-06-21T09:38:55Z</time>
      </trkpt>
      <trkpt lat="44.97209" lon="5.56065">
        <ele>948.48</ele>
        <time>2020-06-21T09:38:56Z</time>
      </trkpt>
      <trkpt lat="44.97214" lon="5.56075">
        <ele>947.52</ele>
        <time>2020-06-21T09:38:57Z</time>
      </trkpt>
      <trkpt lat="44.97221" lon="5.56082">
        <ele>948</ele>
        <time>2020-06-21T09:38:58Z</time>
      </trkpt>
      <trkpt lat="44.9723" lon="5.56088">
        <ele>948</ele>
        <time>2020-06-21T09:38:59Z</time>
      </trkpt>
      <trkpt lat="44.97239" lon="5.5609">
        <ele>947.52</ele>
        <time>2020-06-21T09:39:00Z</time>
      </trkpt>
      <trkpt lat="44.97248" lon="5.56089">
        <ele>947.04</ele>
        <time>2020-06-21T09:39:01Z</time>
      </trkpt>
      <trkpt lat="44.97257" lon="5.56086">
        <ele>946.07</ele>
        <time>2020-06-21T09:39:02Z</time>
      </trkpt>
      <trkpt lat="44.97285" lon="5.56077">
        <ele>944.63</ele>
        <time>2020-06-21T09:39:05Z</time>
      </trkpt>
      <trkpt lat="44.97304" lon="5.56073">
        <ele>943.67</ele>
        <time>2020-06-21T09:39:07Z</time>
      </trkpt>
      <trkpt lat="44.97313" lon="5.56077">
        <ele>942.71</ele>
        <time>2020-06-21T09:39:08Z</time>
      </trkpt>
      <trkpt lat="44.97321" lon="5.56085">
        <ele>942.23</ele>
        <time>2020-06-21T09:39:09Z</time>
      </trkpt>
      <trkpt lat="44.97325" lon="5.56097">
        <ele>942.23</ele>
        <time>2020-06-21T09:39:10Z</time>
      </trkpt>
      <trkpt lat="44.97326" lon="5.5611">
        <ele>941.75</ele>
        <time>2020-06-21T09:39:11Z</time>
      </trkpt>
      <trkpt lat="44.97325" lon="5.56122">
        <ele>941.75</ele>
        <time>2020-06-21T09:39:12Z</time>
      </trkpt>
      <trkpt lat="44.97323" lon="5.56133">
        <ele>942.23</ele>
        <time>2020-06-21T09:39:13Z</time>
      </trkpt>
      <trkpt lat="44.9732" lon="5.56143">
        <ele>942.71</ele>
        <time>2020-06-21T09:39:14Z</time>
      </trkpt>
      <trkpt lat="44.97317" lon="5.56152">
        <ele>943.19</ele>
        <time>2020-06-21T09:39:15Z</time>
      </trkpt>
      <trkpt lat="44.97313" lon="5.5616">
        <ele>943.67</ele>
        <time>2020-06-21T09:39:16Z</time>
      </trkpt>
      <trkpt lat="44.97308" lon="5.56167">
        <ele>943.19</ele>
        <time>2020-06-21T09:39:17Z</time>
      </trkpt>
      <trkpt lat="44.97303" lon="5.56173">
        <ele>943.19</ele>
        <time>2020-06-21T09:39:18Z</time>
      </trkpt>
      <trkpt lat="44.97297" lon="5.56178">
        <ele>943.19</ele>
        <time>2020-06-21T09:39:19Z</time>
      </trkpt>
      <trkpt lat="44.97274" lon="5.56199">
        <ele>943.19</ele>
        <time>2020-06-21T09:39:23Z</time>
      </trkpt>
      <trkpt lat="44.97205" lon="5.56243">
        <ele>944.63</ele>
        <time>2020-06-21T09:39:36Z</time>
      </trkpt>
      <trkpt lat="44.972" lon="5.56246">
        <ele>945.11</ele>
        <time>2020-06-21T09:39:37Z</time>
      </trkpt>
      <trkpt lat="44.97118" lon="5.56288">
        <ele>945.59</ele>
        <time>2020-06-21T09:39:54Z</time>
      </trkpt>
      <trkpt lat="44.9708" lon="5.56321">
        <ele>946.07</ele>
        <time>2020-06-21T09:40:03Z</time>
      </trkpt>
      <trkpt lat="44.9707" lon="5.56337">
        <ele>946.07</ele>
        <time>2020-06-21T09:40:06Z</time>
      </trkpt>
      <trkpt lat="44.97068" lon="5.56343">
        <ele>946.07</ele>
        <time>2020-06-21T09:40:07Z</time>
      </trkpt>
      <trkpt lat="44.97066" lon="5.5635">
        <ele>946.07</ele>
        <time>2020-06-21T09:40:08Z</time>
      </trkpt>
      <trkpt lat="44.97049" lon="5.5645">
        <ele>948.96</ele>
        <time>2020-06-21T09:40:24Z</time>
      </trkpt>
      <trkpt lat="44.97052" lon="5.56512">
        <ele>949.44</ele>
        <time>2020-06-21T09:40:37Z</time>
      </trkpt>
      <trkpt lat="44.97074" lon="5.56535">
        <ele>948.96</ele>
        <time>2020-06-21T09:40:44Z</time>
      </trkpt>
      <trkpt lat="44.97078" lon="5.56537">
        <ele>949.44</ele>
        <time>2020-06-21T09:40:45Z</time>
      </trkpt>
      <trkpt lat="44.97096" lon="5.56548">
        <ele>948.48</ele>
        <time>2020-06-21T09:40:49Z</time>
      </trkpt>
      <trkpt lat="44.97116" lon="5.56566">
        <ele>948</ele>
        <time>2020-06-21T09:40:53Z</time>
      </trkpt>
      <trkpt lat="44.97129" lon="5.56583">
        <ele>946.56</ele>
        <time>2020-06-21T09:40:56Z</time>
      </trkpt>
      <trkpt lat="44.97141" lon="5.56604">
        <ele>945.59</ele>
        <time>2020-06-21T09:40:59Z</time>
      </trkpt>
      <trkpt lat="44.97147" lon="5.56619">
        <ele>944.63</ele>
        <time>2020-06-21T09:41:01Z</time>
      </trkpt>
      <trkpt lat="44.97153" lon="5.56635">
        <ele>944.15</ele>
        <time>2020-06-21T09:41:03Z</time>
      </trkpt>
      <trkpt lat="44.97157" lon="5.56642">
        <ele>944.15</ele>
        <time>2020-06-21T09:41:04Z</time>
      </trkpt>
      <trkpt lat="44.97161" lon="5.56649">
        <ele>944.15</ele>
        <time>2020-06-21T09:41:05Z</time>
      </trkpt>
      <trkpt lat="44.97165" lon="5.56657">
        <ele>944.15</ele>
        <time>2020-06-21T09:41:06Z</time>
      </trkpt>
      <trkpt lat="44.9717" lon="5.56665">
        <ele>943.67</ele>
        <time>2020-06-21T09:41:07Z</time>
      </trkpt>
      <trkpt lat="44.97174" lon="5.56672">
        <ele>943.67</ele>
        <time>2020-06-21T09:41:08Z</time>
      </trkpt>
      <trkpt lat="44.97178" lon="5.5668">
        <ele>943.67</ele>
        <time>2020-06-21T09:41:09Z</time>
      </trkpt>
      <trkpt lat="44.97182" lon="5.56688">
        <ele>942.71</ele>
        <time>2020-06-21T09:41:10Z</time>
      </trkpt>
      <trkpt lat="44.97191" lon="5.56704">
        <ele>941.75</ele>
        <time>2020-06-21T09:41:12Z</time>
      </trkpt>
      <trkpt lat="44.97195" lon="5.56711">
        <ele>940.79</ele>
        <time>2020-06-21T09:41:13Z</time>
      </trkpt>
      <trkpt lat="44.97201" lon="5.56717">
        <ele>939.83</ele>
        <time>2020-06-21T09:41:14Z</time>
      </trkpt>
      <trkpt lat="44.97208" lon="5.56722">
        <ele>939.35</ele>
        <time>2020-06-21T09:41:15Z</time>
      </trkpt>
      <trkpt lat="44.97215" lon="5.56725">
        <ele>938.38</ele>
        <time>2020-06-21T09:41:16Z</time>
      </trkpt>
      <trkpt lat="44.97221" lon="5.56728">
        <ele>937.9</ele>
        <time>2020-06-21T09:41:17Z</time>
      </trkpt>
      <trkpt lat="44.97228" lon="5.5673">
        <ele>938.38</ele>
        <time>2020-06-21T09:41:18Z</time>
      </trkpt>
      <trkpt lat="44.97235" lon="5.56732">
        <ele>937.9</ele>
        <time>2020-06-21T09:41:19Z</time>
      </trkpt>
      <trkpt lat="44.97257" lon="5.56734">
        <ele>939.83</ele>
        <time>2020-06-21T09:41:22Z</time>
      </trkpt>
      <trkpt lat="44.97264" lon="5.56733">
        <ele>939.83</ele>
        <time>2020-06-21T09:41:23Z</time>
      </trkpt>
      <trkpt lat="44.97272" lon="5.56732">
        <ele>939.35</ele>
        <time>2020-06-21T09:41:24Z</time>
      </trkpt>
      <trkpt lat="44.9728" lon="5.56733">
        <ele>939.83</ele>
        <time>2020-06-21T09:41:25Z</time>
      </trkpt>
      <trkpt lat="44.97288" lon="5.56734">
        <ele>939.35</ele>
        <time>2020-06-21T09:41:26Z</time>
      </trkpt>
      <trkpt lat="44.97319" lon="5.5674">
        <ele>937.9</ele>
        <time>2020-06-21T09:41:30Z</time>
      </trkpt>
      <trkpt lat="44.97327" lon="5.56738">
        <ele>936.94</ele>
        <time>2020-06-21T09:41:31Z</time>
      </trkpt>
      <trkpt lat="44.97334" lon="5.56734">
        <ele>937.42</ele>
        <time>2020-06-21T09:41:32Z</time>
      </trkpt>
      <trkpt lat="44.97384" lon="5.56688">
        <ele>935.5</ele>
        <time>2020-06-21T09:41:39Z</time>
      </trkpt>
      <trkpt lat="44.97392" lon="5.56686">
        <ele>935.5</ele>
        <time>2020-06-21T09:41:40Z</time>
      </trkpt>
      <trkpt lat="44.97399" lon="5.56688">
        <ele>935.98</ele>
        <time>2020-06-21T09:41:41Z</time>
      </trkpt>
      <trkpt lat="44.97406" lon="5.56695">
        <ele>935.98</ele>
        <time>2020-06-21T09:41:42Z</time>
      </trkpt>
      <trkpt lat="44.97409" lon="5.56703">
        <ele>935.98</ele>
        <time>2020-06-21T09:41:43Z</time>
      </trkpt>
      <trkpt lat="44.9741" lon="5.56711">
        <ele>935.5</ele>
        <time>2020-06-21T09:41:44Z</time>
      </trkpt>
      <trkpt lat="44.97409" lon="5.56719">
        <ele>935.02</ele>
        <time>2020-06-21T09:41:45Z</time>
      </trkpt>
      <trkpt lat="44.97397" lon="5.56755">
        <ele>934.06</ele>
        <time>2020-06-21T09:41:48Z</time>
      </trkpt>
      <trkpt lat="44.97392" lon="5.56767">
        <ele>934.06</ele>
        <time>2020-06-21T09:41:49Z</time>
      </trkpt>
      <trkpt lat="44.97386" lon="5.56777">
        <ele>933.58</ele>
        <time>2020-06-21T09:41:50Z</time>
      </trkpt>
      <trkpt lat="44.97379" lon="5.56786">
        <ele>933.58</ele>
        <time>2020-06-21T09:41:51Z</time>
      </trkpt>
      <trkpt lat="44.97371" lon="5.56794">
        <ele>933.1</ele>
        <time>2020-06-21T09:41:52Z</time>
      </trkpt>
      <trkpt lat="44.9735" lon="5.56815">
        <ele>933.1</ele>
        <time>2020-06-21T09:41:55Z</time>
      </trkpt>
      <trkpt lat="44.97342" lon="5.56821">
        <ele>934.06</ele>
        <time>2020-06-21T09:41:56Z</time>
      </trkpt>
      <trkpt lat="44.97307" lon="5.5684">
        <ele>934.06</ele>
        <time>2020-06-21T09:42:01Z</time>
      </trkpt>
      <trkpt lat="44.97301" lon="5.56842">
        <ele>934.06</ele>
        <time>2020-06-21T09:42:02Z</time>
      </trkpt>
      <trkpt lat="44.97295" lon="5.56845">
        <ele>935.02</ele>
        <time>2020-06-21T09:42:03Z</time>
      </trkpt>
      <trkpt lat="44.97276" lon="5.56853">
        <ele>932.62</ele>
        <time>2020-06-21T09:42:06Z</time>
      </trkpt>
      <trkpt lat="44.9727" lon="5.56858">
        <ele>933.58</ele>
        <time>2020-06-21T09:42:07Z</time>
      </trkpt>
      <trkpt lat="44.97265" lon="5.56865">
        <ele>934.06</ele>
        <time>2020-06-21T09:42:08Z</time>
      </trkpt>
      <trkpt lat="44.97262" lon="5.56873">
        <ele>933.58</ele>
        <time>2020-06-21T09:42:09Z</time>
      </trkpt>
      <trkpt lat="44.97259" lon="5.56882">
        <ele>932.62</ele>
        <time>2020-06-21T09:42:10Z</time>
      </trkpt>
      <trkpt lat="44.97257" lon="5.5689">
        <ele>932.62</ele>
        <time>2020-06-21T09:42:11Z</time>
      </trkpt>
      <trkpt lat="44.97257" lon="5.56899">
        <ele>932.62</ele>
        <time>2020-06-21T09:42:12Z</time>
      </trkpt>
      <trkpt lat="44.97256" lon="5.56906">
        <ele>931.65</ele>
        <time>2020-06-21T09:42:13Z</time>
      </trkpt>
      <trkpt lat="44.97256" lon="5.56914">
        <ele>932.14</ele>
        <time>2020-06-21T09:42:14Z</time>
      </trkpt>
      <trkpt lat="44.97256" lon="5.56921">
        <ele>932.62</ele>
        <time>2020-06-21T09:42:15Z</time>
      </trkpt>
      <trkpt lat="44.97256" lon="5.56963">
        <ele>932.14</ele>
        <time>2020-06-21T09:42:20Z</time>
      </trkpt>
      <trkpt lat="44.97258" lon="5.56972">
        <ele>931.17</ele>
        <time>2020-06-21T09:42:21Z</time>
      </trkpt>
      <trkpt lat="44.97263" lon="5.5698">
        <ele>931.17</ele>
        <time>2020-06-21T09:42:22Z</time>
      </trkpt>
      <trkpt lat="44.97269" lon="5.56984">
        <ele>930.69</ele>
        <time>2020-06-21T09:42:23Z</time>
      </trkpt>
      <trkpt lat="44.97276" lon="5.56985">
        <ele>929.73</ele>
        <time>2020-06-21T09:42:24Z</time>
      </trkpt>
      <trkpt lat="44.97284" lon="5.56983">
        <ele>928.77</ele>
        <time>2020-06-21T09:42:25Z</time>
      </trkpt>
      <trkpt lat="44.97293" lon="5.5698">
        <ele>927.81</ele>
        <time>2020-06-21T09:42:26Z</time>
      </trkpt>
      <trkpt lat="44.97328" lon="5.56971">
        <ele>925.89</ele>
        <time>2020-06-21T09:42:30Z</time>
      </trkpt>
      <trkpt lat="44.97337" lon="5.56972">
        <ele>925.41</ele>
        <time>2020-06-21T09:42:31Z</time>
      </trkpt>
      <trkpt lat="44.97345" lon="5.56976">
        <ele>924.93</ele>
        <time>2020-06-21T09:42:32Z</time>
      </trkpt>
      <trkpt lat="44.97352" lon="5.5698">
        <ele>923.48</ele>
        <time>2020-06-21T09:42:33Z</time>
      </trkpt>
      <trkpt lat="44.97358" lon="5.56985">
        <ele>924.45</ele>
        <time>2020-06-21T09:42:34Z</time>
      </trkpt>
      <trkpt lat="44.97363" lon="5.56993">
        <ele>923.48</ele>
        <time>2020-06-21T09:42:35Z</time>
      </trkpt>
      <trkpt lat="44.97368" lon="5.57001">
        <ele>922.52</ele>
        <time>2020-06-21T09:42:36Z</time>
      </trkpt>
      <trkpt lat="44.97373" lon="5.5701">
        <ele>922.52</ele>
        <time>2020-06-21T09:42:37Z</time>
      </trkpt>
      <trkpt lat="44.97377" lon="5.5702">
        <ele>922.04</ele>
        <time>2020-06-21T09:42:38Z</time>
      </trkpt>
      <trkpt lat="44.9738" lon="5.5703">
        <ele>921.08</ele>
        <time>2020-06-21T09:42:39Z</time>
      </trkpt>
      <trkpt lat="44.97382" lon="5.57042">
        <ele>918.68</ele>
        <time>2020-06-21T09:42:40Z</time>
      </trkpt>
      <trkpt lat="44.97384" lon="5.57054">
        <ele>919.16</ele>
        <time>2020-06-21T09:42:41Z</time>
      </trkpt>
      <trkpt lat="44.97394" lon="5.57135">
        <ele>916.75</ele>
        <time>2020-06-21T09:42:48Z</time>
      </trkpt>
      <trkpt lat="44.97402" lon="5.57168">
        <ele>916.27</ele>
        <time>2020-06-21T09:42:51Z</time>
      </trkpt>
      <trkpt lat="44.97406" lon="5.57179">
        <ele>917.24</ele>
        <time>2020-06-21T09:42:52Z</time>
      </trkpt>
      <trkpt lat="44.97411" lon="5.57188">
        <ele>917.24</ele>
        <time>2020-06-21T09:42:53Z</time>
      </trkpt>
      <trkpt lat="44.97417" lon="5.57195">
        <ele>915.79</ele>
        <time>2020-06-21T09:42:54Z</time>
      </trkpt>
      <trkpt lat="44.97422" lon="5.57199">
        <ele>915.79</ele>
        <time>2020-06-21T09:42:55Z</time>
      </trkpt>
      <trkpt lat="44.97429" lon="5.57201">
        <ele>916.27</ele>
        <time>2020-06-21T09:42:56Z</time>
      </trkpt>
      <trkpt lat="44.97436" lon="5.57202">
        <ele>916.27</ele>
        <time>2020-06-21T09:42:57Z</time>
      </trkpt>
      <trkpt lat="44.97444" lon="5.572">
        <ele>915.31</ele>
        <time>2020-06-21T09:42:58Z</time>
      </trkpt>
      <trkpt lat="44.97453" lon="5.57197">
        <ele>915.31</ele>
        <time>2020-06-21T09:42:59Z</time>
      </trkpt>
      <trkpt lat="44.97462" lon="5.57194">
        <ele>914.35</ele>
        <time>2020-06-21T09:43:00Z</time>
      </trkpt>
      <trkpt lat="44.97478" lon="5.57189">
        <ele>913.87</ele>
        <time>2020-06-21T09:43:02Z</time>
      </trkpt>
      <trkpt lat="44.97486" lon="5.5719">
        <ele>913.87</ele>
        <time>2020-06-21T09:43:03Z</time>
      </trkpt>
      <trkpt lat="44.97493" lon="5.57195">
        <ele>913.39</ele>
        <time>2020-06-21T09:43:04Z</time>
      </trkpt>
      <trkpt lat="44.975" lon="5.57202">
        <ele>912.91</ele>
        <time>2020-06-21T09:43:05Z</time>
      </trkpt>
      <trkpt lat="44.97504" lon="5.57212">
        <ele>913.39</ele>
        <time>2020-06-21T09:43:06Z</time>
      </trkpt>
      <trkpt lat="44.97507" lon="5.57223">
        <ele>912.91</ele>
        <time>2020-06-21T09:43:07Z</time>
      </trkpt>
      <trkpt lat="44.97506" lon="5.57233">
        <ele>913.39</ele>
        <time>2020-06-21T09:43:08Z</time>
      </trkpt>
      <trkpt lat="44.97501" lon="5.57241">
        <ele>911.95</ele>
        <time>2020-06-21T09:43:09Z</time>
      </trkpt>
      <trkpt lat="44.97495" lon="5.57247">
        <ele>912.91</ele>
        <time>2020-06-21T09:43:10Z</time>
      </trkpt>
      <trkpt lat="44.97488" lon="5.57252">
        <ele>911.47</ele>
        <time>2020-06-21T09:43:11Z</time>
      </trkpt>
      <trkpt lat="44.97479" lon="5.57256">
        <ele>911.95</ele>
        <time>2020-06-21T09:43:12Z</time>
      </trkpt>
      <trkpt lat="44.97472" lon="5.5726">
        <ele>910.99</ele>
        <time>2020-06-21T09:43:13Z</time>
      </trkpt>
      <trkpt lat="44.97429" lon="5.5729">
        <ele>910.51</ele>
        <time>2020-06-21T09:43:19Z</time>
      </trkpt>
      <trkpt lat="44.97424" lon="5.57296">
        <ele>910.51</ele>
        <time>2020-06-21T09:43:20Z</time>
      </trkpt>
      <trkpt lat="44.97419" lon="5.57303">
        <ele>910.51</ele>
        <time>2020-06-21T09:43:21Z</time>
      </trkpt>
      <trkpt lat="44.97414" lon="5.5731">
        <ele>910.51</ele>
        <time>2020-06-21T09:43:22Z</time>
      </trkpt>
      <trkpt lat="44.97411" lon="5.57316">
        <ele>910.99</ele>
        <time>2020-06-21T09:43:23Z</time>
      </trkpt>
      <trkpt lat="44.97408" lon="5.57322">
        <ele>910.99</ele>
        <time>2020-06-21T09:43:24Z</time>
      </trkpt>
      <trkpt lat="44.974" lon="5.57329">
        <ele>910.99</ele>
        <time>2020-06-21T09:43:27Z</time>
      </trkpt>
      <trkpt lat="44.97396" lon="5.57328">
        <ele>910.99</ele>
        <time>2020-06-21T09:43:28Z</time>
      </trkpt>
      <trkpt lat="44.97382" lon="5.57322">
        <ele>909.54</ele>
        <time>2020-06-21T09:43:31Z</time>
      </trkpt>
      <trkpt lat="44.97361" lon="5.57309">
        <ele>907.62</ele>
        <time>2020-06-21T09:43:40Z</time>
      </trkpt>
      <trkpt lat="44.97359" lon="5.5731">
        <ele>909.06</ele>
        <time>2020-06-21T09:43:57Z</time>
      </trkpt>
      <trkpt lat="44.9736" lon="5.57315">
        <ele>907.62</ele>
        <time>2020-06-21T09:44:00Z</time>
      </trkpt>
      <trkpt lat="44.97365" lon="5.57316">
        <ele>907.14</ele>
        <time>2020-06-21T09:44:03Z</time>
      </trkpt>
      <trkpt lat="44.97395" lon="5.57331">
        <ele>910.51</ele>
        <time>2020-06-21T09:44:15Z</time>
      </trkpt>
      <trkpt lat="44.9741" lon="5.57361">
        <ele>910.03</ele>
        <time>2020-06-21T09:44:26Z</time>
      </trkpt>
      <trkpt lat="44.97417" lon="5.57376">
        <ele>910.51</ele>
        <time>2020-06-21T09:44:31Z</time>
      </trkpt>
      <trkpt lat="44.97425" lon="5.57387">
        <ele>910.03</ele>
        <time>2020-06-21T09:44:35Z</time>
      </trkpt>
      <trkpt lat="44.97453" lon="5.57411">
        <ele>908.1</ele>
        <time>2020-06-21T09:44:43Z</time>
      </trkpt>
      <trkpt lat="44.97485" lon="5.57422">
        <ele>908.58</ele>
        <time>2020-06-21T09:44:50Z</time>
      </trkpt>
      <trkpt lat="44.9749" lon="5.57422">
        <ele>908.58</ele>
        <time>2020-06-21T09:44:51Z</time>
      </trkpt>
      <trkpt lat="44.97522" lon="5.57426">
        <ele>908.1</ele>
        <time>2020-06-21T09:44:57Z</time>
      </trkpt>
      <trkpt lat="44.97527" lon="5.5743">
        <ele>908.58</ele>
        <time>2020-06-21T09:44:58Z</time>
      </trkpt>
      <trkpt lat="44.97531" lon="5.57436">
        <ele>908.58</ele>
        <time>2020-06-21T09:44:59Z</time>
      </trkpt>
      <trkpt lat="44.97533" lon="5.57443">
        <ele>909.06</ele>
        <time>2020-06-21T09:45:00Z</time>
      </trkpt>
      <trkpt lat="44.97535" lon="5.5745">
        <ele>909.06</ele>
        <time>2020-06-21T09:45:01Z</time>
      </trkpt>
      <trkpt lat="44.97534" lon="5.57457">
        <ele>909.06</ele>
        <time>2020-06-21T09:45:02Z</time>
      </trkpt>
      <trkpt lat="44.97532" lon="5.57463">
        <ele>908.58</ele>
        <time>2020-06-21T09:45:03Z</time>
      </trkpt>
      <trkpt lat="44.9753" lon="5.57468">
        <ele>909.06</ele>
        <time>2020-06-21T09:45:04Z</time>
      </trkpt>
      <trkpt lat="44.97508" lon="5.5751">
        <ele>909.54</ele>
        <time>2020-06-21T09:45:15Z</time>
      </trkpt>
      <trkpt lat="44.97492" lon="5.57556">
        <ele>912.91</ele>
        <time>2020-06-21T09:45:29Z</time>
      </trkpt>
      <trkpt lat="44.97481" lon="5.57589">
        <ele>912.43</ele>
        <time>2020-06-21T09:45:40Z</time>
      </trkpt>
      <trkpt lat="44.97475" lon="5.57608">
        <ele>914.35</ele>
        <time>2020-06-21T09:45:46Z</time>
      </trkpt>
      <trkpt lat="44.97477" lon="5.57622">
        <ele>916.75</ele>
        <time>2020-06-21T09:45:50Z</time>
      </trkpt>
      <trkpt lat="44.97478" lon="5.57624">
        <ele>916.27</ele>
        <time>2020-06-21T09:45:51Z</time>
      </trkpt>
      <trkpt lat="44.9748" lon="5.57625">
        <ele>915.31</ele>
        <time>2020-06-21T09:45:52Z</time>
      </trkpt>
      <trkpt lat="44.97482" lon="5.57626">
        <ele>915.79</ele>
        <time>2020-06-21T09:45:53Z</time>
      </trkpt>
      <trkpt lat="44.97486" lon="5.57627">
        <ele>915.31</ele>
        <time>2020-06-21T09:45:55Z</time>
      </trkpt>
      <trkpt lat="44.97488" lon="5.57628">
        <ele>915.79</ele>
        <time>2020-06-21T09:45:56Z</time>
      </trkpt>
      <trkpt lat="44.9749" lon="5.57628">
        <ele>915.79</ele>
        <time>2020-06-21T09:45:57Z</time>
      </trkpt>
      <trkpt lat="44.97513" lon="5.57624">
        <ele>917.72</ele>
        <time>2020-06-21T09:46:10Z</time>
      </trkpt>
      <trkpt lat="44.97536" lon="5.57629">
        <ele>920.12</ele>
        <time>2020-06-21T09:46:24Z</time>
      </trkpt>
      <trkpt lat="44.97556" lon="5.57637">
        <ele>923</ele>
        <time>2020-06-21T09:46:37Z</time>
      </trkpt>
      <trkpt lat="44.97577" lon="5.5765">
        <ele>924.93</ele>
        <time>2020-06-21T09:46:51Z</time>
      </trkpt>
      <trkpt lat="44.97579" lon="5.57652">
        <ele>925.41</ele>
        <time>2020-06-21T09:46:54Z</time>
      </trkpt>
      <trkpt lat="44.97581" lon="5.57652">
        <ele>925.41</ele>
        <time>2020-06-21T09:46:55Z</time>
      </trkpt>
      <trkpt lat="44.97583" lon="5.57653">
        <ele>925.89</ele>
        <time>2020-06-21T09:46:56Z</time>
      </trkpt>
      <trkpt lat="44.97584" lon="5.57655">
        <ele>925.41</ele>
        <time>2020-06-21T09:46:57Z</time>
      </trkpt>
      <trkpt lat="44.97586" lon="5.57656">
        <ele>925.89</ele>
        <time>2020-06-21T09:46:58Z</time>
      </trkpt>
      <trkpt lat="44.97587" lon="5.57657">
        <ele>925.41</ele>
        <time>2020-06-21T09:46:59Z</time>
      </trkpt>
      <trkpt lat="44.97588" lon="5.57658">
        <ele>925.89</ele>
        <time>2020-06-21T09:47:00Z</time>
      </trkpt>
      <trkpt lat="44.97589" lon="5.57659">
        <ele>926.37</ele>
        <time>2020-06-21T09:47:01Z</time>
      </trkpt>
      <trkpt lat="44.97591" lon="5.5766">
        <ele>926.37</ele>
        <time>2020-06-21T09:47:02Z</time>
      </trkpt>
      <trkpt lat="44.97592" lon="5.57661">
        <ele>926.37</ele>
        <time>2020-06-21T09:47:03Z</time>
      </trkpt>
      <trkpt lat="44.97593" lon="5.57662">
        <ele>926.85</ele>
        <time>2020-06-21T09:47:04Z</time>
      </trkpt>
      <trkpt lat="44.97594" lon="5.57663">
        <ele>927.33</ele>
        <time>2020-06-21T09:47:05Z</time>
      </trkpt>
      <trkpt lat="44.97616" lon="5.57679">
        <ele>929.25</ele>
        <time>2020-06-21T09:47:20Z</time>
      </trkpt>
      <trkpt lat="44.97637" lon="5.57688">
        <ele>931.17</ele>
        <time>2020-06-21T09:47:33Z</time>
      </trkpt>
      <trkpt lat="44.9764" lon="5.57688">
        <ele>931.17</ele>
        <time>2020-06-21T09:47:35Z</time>
      </trkpt>
      <trkpt lat="44.97641" lon="5.57689">
        <ele>931.17</ele>
        <time>2020-06-21T09:47:36Z</time>
      </trkpt>
      <trkpt lat="44.97643" lon="5.57689">
        <ele>931.65</ele>
        <time>2020-06-21T09:47:37Z</time>
      </trkpt>
      <trkpt lat="44.97644" lon="5.5769">
        <ele>931.17</ele>
        <time>2020-06-21T09:47:38Z</time>
      </trkpt>
      <trkpt lat="44.97645" lon="5.5769">
        <ele>932.14</ele>
        <time>2020-06-21T09:47:39Z</time>
      </trkpt>
      <trkpt lat="44.97647" lon="5.5769">
        <ele>931.65</ele>
        <time>2020-06-21T09:47:40Z</time>
      </trkpt>
      <trkpt lat="44.97649" lon="5.5769">
        <ele>932.14</ele>
        <time>2020-06-21T09:47:41Z</time>
      </trkpt>
      <trkpt lat="44.97675" lon="5.57696">
        <ele>934.06</ele>
        <time>2020-06-21T09:47:57Z</time>
      </trkpt>
      <trkpt lat="44.97702" lon="5.57699">
        <ele>935.98</ele>
        <time>2020-06-21T09:48:12Z</time>
      </trkpt>
      <trkpt lat="44.9773" lon="5.57706">
        <ele>937.9</ele>
        <time>2020-06-21T09:48:26Z</time>
      </trkpt>
      <trkpt lat="44.97737" lon="5.57738">
        <ele>939.35</ele>
        <time>2020-06-21T09:48:38Z</time>
      </trkpt>
      <trkpt lat="44.97715" lon="5.57767">
        <ele>941.27</ele>
        <time>2020-06-21T09:48:53Z</time>
      </trkpt>
      <trkpt lat="44.9769" lon="5.57796">
        <ele>943.19</ele>
        <time>2020-06-21T09:49:09Z</time>
      </trkpt>
      <trkpt lat="44.97674" lon="5.5782">
        <ele>944.63</ele>
        <time>2020-06-21T09:49:21Z</time>
      </trkpt>
      <trkpt lat="44.97665" lon="5.57836">
        <ele>946.56</ele>
        <time>2020-06-21T09:49:29Z</time>
      </trkpt>
      <trkpt lat="44.97664" lon="5.57838">
        <ele>947.04</ele>
        <time>2020-06-21T09:49:30Z</time>
      </trkpt>
      <trkpt lat="44.9765" lon="5.57872">
        <ele>948.48</ele>
        <time>2020-06-21T09:49:45Z</time>
      </trkpt>
      <trkpt lat="44.97638" lon="5.57904">
        <ele>950.88</ele>
        <time>2020-06-21T09:49:59Z</time>
      </trkpt>
      <trkpt lat="44.97626" lon="5.57952">
        <ele>951.84</ele>
        <time>2020-06-21T09:50:19Z</time>
      </trkpt>
      <trkpt lat="44.97625" lon="5.57985">
        <ele>955.21</ele>
        <time>2020-06-21T09:50:34Z</time>
      </trkpt>
      <trkpt lat="44.97629" lon="5.58021">
        <ele>957.13</ele>
        <time>2020-06-21T09:50:50Z</time>
      </trkpt>
      <trkpt lat="44.97643" lon="5.58051">
        <ele>959.05</ele>
        <time>2020-06-21T09:51:07Z</time>
      </trkpt>
      <trkpt lat="44.9766" lon="5.58079">
        <ele>961.46</ele>
        <time>2020-06-21T09:51:23Z</time>
      </trkpt>
      <trkpt lat="44.9767" lon="5.58091">
        <ele>962.42</ele>
        <time>2020-06-21T09:51:32Z</time>
      </trkpt>
      <trkpt lat="44.97685" lon="5.58105">
        <ele>963.86</ele>
        <time>2020-06-21T09:51:44Z</time>
      </trkpt>
      <trkpt lat="44.97687" lon="5.58106">
        <ele>964.34</ele>
        <time>2020-06-21T09:51:45Z</time>
      </trkpt>
      <trkpt lat="44.97688" lon="5.58107">
        <ele>963.86</ele>
        <time>2020-06-21T09:51:46Z</time>
      </trkpt>
      <trkpt lat="44.97709" lon="5.58123">
        <ele>965.78</ele>
        <time>2020-06-21T09:52:02Z</time>
      </trkpt>
      <trkpt lat="44.97731" lon="5.58139">
        <ele>968.18</ele>
        <time>2020-06-21T09:52:18Z</time>
      </trkpt>
      <trkpt lat="44.97742" lon="5.58147">
        <ele>968.67</ele>
        <time>2020-06-21T09:52:27Z</time>
      </trkpt>
      <trkpt lat="44.97762" lon="5.58161">
        <ele>971.07</ele>
        <time>2020-06-21T09:52:42Z</time>
      </trkpt>
      <trkpt lat="44.97765" lon="5.58163">
        <ele>971.55</ele>
        <time>2020-06-21T09:52:44Z</time>
      </trkpt>
      <trkpt lat="44.97786" lon="5.5818">
        <ele>972.03</ele>
        <time>2020-06-21T09:52:59Z</time>
      </trkpt>
      <trkpt lat="44.97802" lon="5.58193">
        <ele>975.88</ele>
        <time>2020-06-21T09:53:12Z</time>
      </trkpt>
      <trkpt lat="44.97826" lon="5.58212">
        <ele>977.32</ele>
        <time>2020-06-21T09:53:29Z</time>
      </trkpt>
      <trkpt lat="44.9785" lon="5.58231">
        <ele>979.72</ele>
        <time>2020-06-21T09:53:47Z</time>
      </trkpt>
      <trkpt lat="44.97872" lon="5.58249">
        <ele>982.6</ele>
        <time>2020-06-21T09:54:04Z</time>
      </trkpt>
      <trkpt lat="44.97888" lon="5.58262">
        <ele>983.57</ele>
        <time>2020-06-21T09:54:17Z</time>
      </trkpt>
      <trkpt lat="44.97892" lon="5.58264">
        <ele>984.53</ele>
        <time>2020-06-21T09:54:20Z</time>
      </trkpt>
      <trkpt lat="44.97896" lon="5.58267">
        <ele>985.01</ele>
        <time>2020-06-21T09:54:23Z</time>
      </trkpt>
      <trkpt lat="44.97897" lon="5.58268">
        <ele>985.01</ele>
        <time>2020-06-21T09:54:24Z</time>
      </trkpt>
      <trkpt lat="44.97899" lon="5.58269">
        <ele>984.53</ele>
        <time>2020-06-21T09:54:25Z</time>
      </trkpt>
      <trkpt lat="44.9791" lon="5.58277">
        <ele>986.45</ele>
        <time>2020-06-21T09:54:34Z</time>
      </trkpt>
      <trkpt lat="44.97922" lon="5.58287">
        <ele>987.89</ele>
        <time>2020-06-21T09:54:43Z</time>
      </trkpt>
      <trkpt lat="44.97924" lon="5.58289">
        <ele>987.41</ele>
        <time>2020-06-21T09:54:44Z</time>
      </trkpt>
      <trkpt lat="44.97925" lon="5.5829">
        <ele>987.89</ele>
        <time>2020-06-21T09:54:45Z</time>
      </trkpt>
      <trkpt lat="44.97931" lon="5.58293">
        <ele>988.37</ele>
        <time>2020-06-21T09:54:49Z</time>
      </trkpt>
      <trkpt lat="44.97952" lon="5.58309">
        <ele>990.3</ele>
        <time>2020-06-21T09:55:04Z</time>
      </trkpt>
      <trkpt lat="44.97959" lon="5.58315">
        <ele>990.78</ele>
        <time>2020-06-21T09:55:09Z</time>
      </trkpt>
      <trkpt lat="44.9796" lon="5.58316">
        <ele>991.26</ele>
        <time>2020-06-21T09:55:10Z</time>
      </trkpt>
      <trkpt lat="44.97961" lon="5.58317">
        <ele>990.78</ele>
        <time>2020-06-21T09:55:11Z</time>
      </trkpt>
      <trkpt lat="44.97977" lon="5.58329">
        <ele>992.7</ele>
        <time>2020-06-21T09:55:23Z</time>
      </trkpt>
      <trkpt lat="44.9798" lon="5.58331">
        <ele>993.18</ele>
        <time>2020-06-21T09:55:25Z</time>
      </trkpt>
      <trkpt lat="44.97999" lon="5.58345">
        <ele>995.1</ele>
        <time>2020-06-21T09:55:39Z</time>
      </trkpt>
      <trkpt lat="44.98002" lon="5.58347">
        <ele>995.1</ele>
        <time>2020-06-21T09:55:41Z</time>
      </trkpt>
      <trkpt lat="44.98003" lon="5.58348">
        <ele>994.62</ele>
        <time>2020-06-21T09:55:42Z</time>
      </trkpt>
      <trkpt lat="44.98005" lon="5.58349">
        <ele>994.62</ele>
        <time>2020-06-21T09:55:43Z</time>
      </trkpt>
      <trkpt lat="44.98006" lon="5.58349">
        <ele>994.62</ele>
        <time>2020-06-21T09:55:44Z</time>
      </trkpt>
      <trkpt lat="44.98007" lon="5.58351">
        <ele>994.62</ele>
        <time>2020-06-21T09:55:45Z</time>
      </trkpt>
      <trkpt lat="44.98008" lon="5.58352">
        <ele>995.1</ele>
        <time>2020-06-21T09:55:46Z</time>
      </trkpt>
      <trkpt lat="44.98009" lon="5.58353">
        <ele>995.1</ele>
        <time>2020-06-21T09:55:47Z</time>
      </trkpt>
      <trkpt lat="44.9801" lon="5.58354">
        <ele>995.58</ele>
        <time>2020-06-21T09:55:48Z</time>
      </trkpt>
      <trkpt lat="44.98012" lon="5.58356">
        <ele>995.58</ele>
        <time>2020-06-21T09:55:49Z</time>
      </trkpt>
      <trkpt lat="44.98013" lon="5.58357">
        <ele>996.06</ele>
        <time>2020-06-21T09:55:50Z</time>
      </trkpt>
      <trkpt lat="44.98014" lon="5.58357">
        <ele>996.06</ele>
        <time>2020-06-21T09:55:51Z</time>
      </trkpt>
      <trkpt lat="44.98034" lon="5.58373">
        <ele>998.47</ele>
        <time>2020-06-21T09:56:06Z</time>
      </trkpt>
      <trkpt lat="44.98058" lon="5.58391">
        <ele>1000.39</ele>
        <time>2020-06-21T09:56:23Z</time>
      </trkpt>
      <trkpt lat="44.98079" lon="5.58409">
        <ele>1002.31</ele>
        <time>2020-06-21T09:56:39Z</time>
      </trkpt>
      <trkpt lat="44.98099" lon="5.58438">
        <ele>1005.2</ele>
        <time>2020-06-21T09:56:58Z</time>
      </trkpt>
      <trkpt lat="44.98114" lon="5.58466">
        <ele>1007.12</ele>
        <time>2020-06-21T09:57:15Z</time>
      </trkpt>
      <trkpt lat="44.98121" lon="5.58479">
        <ele>1009.04</ele>
        <time>2020-06-21T09:57:23Z</time>
      </trkpt>
      <trkpt lat="44.98122" lon="5.58481">
        <ele>1009.04</ele>
        <time>2020-06-21T09:57:24Z</time>
      </trkpt>
      <trkpt lat="44.98123" lon="5.58483">
        <ele>1009.04</ele>
        <time>2020-06-21T09:57:25Z</time>
      </trkpt>
      <trkpt lat="44.98123" lon="5.58484">
        <ele>1009.04</ele>
        <time>2020-06-21T09:57:26Z</time>
      </trkpt>
      <trkpt lat="44.98124" lon="5.58486">
        <ele>1009.52</ele>
        <time>2020-06-21T09:57:27Z</time>
      </trkpt>
      <trkpt lat="44.98125" lon="5.58487">
        <ele>1009.04</ele>
        <time>2020-06-21T09:57:28Z</time>
      </trkpt>
      <trkpt lat="44.98126" lon="5.58489">
        <ele>1009.52</ele>
        <time>2020-06-21T09:57:29Z</time>
      </trkpt>
      <trkpt lat="44.98126" lon="5.5849">
        <ele>1009.52</ele>
        <time>2020-06-21T09:57:30Z</time>
      </trkpt>
      <trkpt lat="44.98127" lon="5.58492">
        <ele>1010</ele>
        <time>2020-06-21T09:57:31Z</time>
      </trkpt>
      <trkpt lat="44.98128" lon="5.58494">
        <ele>1009.52</ele>
        <time>2020-06-21T09:57:32Z</time>
      </trkpt>
      <trkpt lat="44.98133" lon="5.58504">
        <ele>1010.96</ele>
        <time>2020-06-21T09:57:38Z</time>
      </trkpt>
      <trkpt lat="44.98149" lon="5.58532">
        <ele>1012.41</ele>
        <time>2020-06-21T09:57:54Z</time>
      </trkpt>
      <trkpt lat="44.98161" lon="5.5855">
        <ele>1014.81</ele>
        <time>2020-06-21T09:58:06Z</time>
      </trkpt>
      <trkpt lat="44.98182" lon="5.5857">
        <ele>1015.77</ele>
        <time>2020-06-21T09:58:22Z</time>
      </trkpt>
      <trkpt lat="44.98194" lon="5.58575">
        <ele>1017.21</ele>
        <time>2020-06-21T09:58:30Z</time>
      </trkpt>
      <trkpt lat="44.98196" lon="5.58575">
        <ele>1017.21</ele>
        <time>2020-06-21T09:58:31Z</time>
      </trkpt>
      <trkpt lat="44.98219" lon="5.58584">
        <ele>1020.1</ele>
        <time>2020-06-21T09:58:46Z</time>
      </trkpt>
      <trkpt lat="44.98244" lon="5.58602">
        <ele>1021.54</ele>
        <time>2020-06-21T09:59:04Z</time>
      </trkpt>
      <trkpt lat="44.9827" lon="5.58624">
        <ele>1024.42</ele>
        <time>2020-06-21T09:59:21Z</time>
      </trkpt>
      <trkpt lat="44.98288" lon="5.58652">
        <ele>1024.9</ele>
        <time>2020-06-21T09:59:37Z</time>
      </trkpt>
      <trkpt lat="44.98305" lon="5.58678">
        <ele>1027.79</ele>
        <time>2020-06-21T09:59:54Z</time>
      </trkpt>
      <trkpt lat="44.98319" lon="5.58653">
        <ele>1029.23</ele>
        <time>2020-06-21T10:00:07Z</time>
      </trkpt>
      <trkpt lat="44.98301" lon="5.58614">
        <ele>1030.67</ele>
        <time>2020-06-21T10:00:22Z</time>
      </trkpt>
      <trkpt lat="44.98293" lon="5.58593">
        <ele>1032.11</ele>
        <time>2020-06-21T10:00:31Z</time>
      </trkpt>
      <trkpt lat="44.98279" lon="5.58553">
        <ele>1034.52</ele>
        <time>2020-06-21T10:00:48Z</time>
      </trkpt>
      <trkpt lat="44.98262" lon="5.58527">
        <ele>1036.44</ele>
        <time>2020-06-21T10:01:02Z</time>
      </trkpt>
      <trkpt lat="44.98241" lon="5.58509">
        <ele>1038.36</ele>
        <time>2020-06-21T10:01:17Z</time>
      </trkpt>
      <trkpt lat="44.98222" lon="5.58491">
        <ele>1040.28</ele>
        <time>2020-06-21T10:01:31Z</time>
      </trkpt>
      <trkpt lat="44.98204" lon="5.58464">
        <ele>1042.69</ele>
        <time>2020-06-21T10:01:47Z</time>
      </trkpt>
      <trkpt lat="44.9819" lon="5.58435">
        <ele>1044.61</ele>
        <time>2020-06-21T10:02:02Z</time>
      </trkpt>
      <trkpt lat="44.9818" lon="5.58401">
        <ele>1046.53</ele>
        <time>2020-06-21T10:02:18Z</time>
      </trkpt>
      <trkpt lat="44.98171" lon="5.58371">
        <ele>1048.45</ele>
        <time>2020-06-21T10:02:33Z</time>
      </trkpt>
      <trkpt lat="44.98169" lon="5.58368">
        <ele>1048.45</ele>
        <time>2020-06-21T10:02:35Z</time>
      </trkpt>
      <trkpt lat="44.98169" lon="5.58366">
        <ele>1048.45</ele>
        <time>2020-06-21T10:02:36Z</time>
      </trkpt>
      <trkpt lat="44.98154" lon="5.58328">
        <ele>1050.86</ele>
        <time>2020-06-21T10:02:55Z</time>
      </trkpt>
      <trkpt lat="44.98141" lon="5.58299">
        <ele>1052.78</ele>
        <time>2020-06-21T10:03:10Z</time>
      </trkpt>
      <trkpt lat="44.98128" lon="5.58272">
        <ele>1055.18</ele>
        <time>2020-06-21T10:03:25Z</time>
      </trkpt>
      <trkpt lat="44.98111" lon="5.58237">
        <ele>1057.11</ele>
        <time>2020-06-21T10:03:43Z</time>
      </trkpt>
      <trkpt lat="44.98099" lon="5.58205">
        <ele>1059.51</ele>
        <time>2020-06-21T10:04:00Z</time>
      </trkpt>
      <trkpt lat="44.98087" lon="5.58179">
        <ele>1061.91</ele>
        <time>2020-06-21T10:04:14Z</time>
      </trkpt>
      <trkpt lat="44.9808" lon="5.58165">
        <ele>1063.36</ele>
        <time>2020-06-21T10:04:23Z</time>
      </trkpt>
      <trkpt lat="44.9808" lon="5.58163">
        <ele>1062.87</ele>
        <time>2020-06-21T10:04:24Z</time>
      </trkpt>
      <trkpt lat="44.98076" lon="5.58157">
        <ele>1063.84</ele>
        <time>2020-06-21T10:04:28Z</time>
      </trkpt>
      <trkpt lat="44.98074" lon="5.58154">
        <ele>1064.32</ele>
        <time>2020-06-21T10:04:30Z</time>
      </trkpt>
      <trkpt lat="44.98073" lon="5.58153">
        <ele>1064.32</ele>
        <time>2020-06-21T10:04:31Z</time>
      </trkpt>
      <trkpt lat="44.98072" lon="5.58152">
        <ele>1064.32</ele>
        <time>2020-06-21T10:04:32Z</time>
      </trkpt>
      <trkpt lat="44.9807" lon="5.58151">
        <ele>1064.32</ele>
        <time>2020-06-21T10:04:33Z</time>
      </trkpt>
      <trkpt lat="44.98068" lon="5.58149">
        <ele>1064.32</ele>
        <time>2020-06-21T10:04:34Z</time>
      </trkpt>
      <trkpt lat="44.98066" lon="5.58148">
        <ele>1064.8</ele>
        <time>2020-06-21T10:04:35Z</time>
      </trkpt>
      <trkpt lat="44.98065" lon="5.58147">
        <ele>1065.28</ele>
        <time>2020-06-21T10:04:36Z</time>
      </trkpt>
      <trkpt lat="44.98063" lon="5.58145">
        <ele>1064.8</ele>
        <time>2020-06-21T10:04:37Z</time>
      </trkpt>
      <trkpt lat="44.98062" lon="5.58145">
        <ele>1064.32</ele>
        <time>2020-06-21T10:04:38Z</time>
      </trkpt>
      <trkpt lat="44.9806" lon="5.58143">
        <ele>1065.28</ele>
        <time>2020-06-21T10:04:39Z</time>
      </trkpt>
      <trkpt lat="44.98059" lon="5.58142">
        <ele>1065.28</ele>
        <time>2020-06-21T10:04:40Z</time>
      </trkpt>
      <trkpt lat="44.98057" lon="5.58141">
        <ele>1065.76</ele>
        <time>2020-06-21T10:04:41Z</time>
      </trkpt>
      <trkpt lat="44.98056" lon="5.5814">
        <ele>1065.76</ele>
        <time>2020-06-21T10:04:42Z</time>
      </trkpt>
      <trkpt lat="44.98036" lon="5.58124">
        <ele>1067.68</ele>
        <time>2020-06-21T10:04:57Z</time>
      </trkpt>
      <trkpt lat="44.98021" lon="5.58094">
        <ele>1068.64</ele>
        <time>2020-06-21T10:05:11Z</time>
      </trkpt>
      <trkpt lat="44.98032" lon="5.58078">
        <ele>1070.08</ele>
        <time>2020-06-21T10:05:20Z</time>
      </trkpt>
      <trkpt lat="44.9805" lon="5.5809">
        <ele>1071.53</ele>
        <time>2020-06-21T10:05:31Z</time>
      </trkpt>
      <trkpt lat="44.98071" lon="5.5812">
        <ele>1072.97</ele>
        <time>2020-06-21T10:05:48Z</time>
      </trkpt>
      <trkpt lat="44.98091" lon="5.58148">
        <ele>1074.89</ele>
        <time>2020-06-21T10:06:05Z</time>
      </trkpt>
      <trkpt lat="44.98109" lon="5.58166">
        <ele>1077.29</ele>
        <time>2020-06-21T10:06:20Z</time>
      </trkpt>
      <trkpt lat="44.98128" lon="5.58193">
        <ele>1078.74</ele>
        <time>2020-06-21T10:06:34Z</time>
      </trkpt>
      <trkpt lat="44.98148" lon="5.58228">
        <ele>1079.7</ele>
        <time>2020-06-21T10:06:47Z</time>
      </trkpt>
      <trkpt lat="44.98152" lon="5.58232">
        <ele>1079.22</ele>
        <time>2020-06-21T10:06:49Z</time>
      </trkpt>
      <trkpt lat="44.98154" lon="5.58234">
        <ele>1079.22</ele>
        <time>2020-06-21T10:06:50Z</time>
      </trkpt>
      <trkpt lat="44.98157" lon="5.58237">
        <ele>1079.22</ele>
        <time>2020-06-21T10:06:51Z</time>
      </trkpt>
      <trkpt lat="44.98192" lon="5.58273">
        <ele>1080.66</ele>
        <time>2020-06-21T10:07:08Z</time>
      </trkpt>
      <trkpt lat="44.98209" lon="5.58289">
        <ele>1082.1</ele>
        <time>2020-06-21T10:07:17Z</time>
      </trkpt>
      <trkpt lat="44.98237" lon="5.58312">
        <ele>1083.06</ele>
        <time>2020-06-21T10:07:33Z</time>
      </trkpt>
      <trkpt lat="44.98261" lon="5.58326">
        <ele>1085.47</ele>
        <time>2020-06-21T10:07:47Z</time>
      </trkpt>
      <trkpt lat="44.98288" lon="5.58339">
        <ele>1085.95</ele>
        <time>2020-06-21T10:08:02Z</time>
      </trkpt>
      <trkpt lat="44.98317" lon="5.58354">
        <ele>1088.35</ele>
        <time>2020-06-21T10:08:18Z</time>
      </trkpt>
      <trkpt lat="44.98344" lon="5.5837">
        <ele>1089.79</ele>
        <time>2020-06-21T10:08:34Z</time>
      </trkpt>
      <trkpt lat="44.98367" lon="5.58384">
        <ele>1091.23</ele>
        <time>2020-06-21T10:08:48Z</time>
      </trkpt>
      <trkpt lat="44.98391" lon="5.58405">
        <ele>1092.68</ele>
        <time>2020-06-21T10:09:04Z</time>
      </trkpt>
      <trkpt lat="44.98415" lon="5.58429">
        <ele>1096.04</ele>
        <time>2020-06-21T10:09:21Z</time>
      </trkpt>
      <trkpt lat="44.98433" lon="5.58449">
        <ele>1097.48</ele>
        <time>2020-06-21T10:09:35Z</time>
      </trkpt>
      <trkpt lat="44.98455" lon="5.58471">
        <ele>1099.89</ele>
        <time>2020-06-21T10:09:52Z</time>
      </trkpt>
      <trkpt lat="44.98474" lon="5.5849">
        <ele>1101.33</ele>
        <time>2020-06-21T10:10:07Z</time>
      </trkpt>
      <trkpt lat="44.98484" lon="5.585">
        <ele>1103.25</ele>
        <time>2020-06-21T10:10:15Z</time>
      </trkpt>
      <trkpt lat="44.985" lon="5.58514">
        <ele>1105.17</ele>
        <time>2020-06-21T10:10:28Z</time>
      </trkpt>
      <trkpt lat="44.9852" lon="5.5853">
        <ele>1106.61</ele>
        <time>2020-06-21T10:10:43Z</time>
      </trkpt>
      <trkpt lat="44.98547" lon="5.58546">
        <ele>1108.06</ele>
        <time>2020-06-21T10:11:00Z</time>
      </trkpt>
      <trkpt lat="44.98585" lon="5.58563">
        <ele>1108.54</ele>
        <time>2020-06-21T10:11:21Z</time>
      </trkpt>
      <trkpt lat="44.98619" lon="5.58569">
        <ele>1110.46</ele>
        <time>2020-06-21T10:11:36Z</time>
      </trkpt>
      <trkpt lat="44.98647" lon="5.5858">
        <ele>1112.38</ele>
        <time>2020-06-21T10:11:50Z</time>
      </trkpt>
      <trkpt lat="44.98674" lon="5.58608">
        <ele>1113.34</ele>
        <time>2020-06-21T10:12:07Z</time>
      </trkpt>
      <trkpt lat="44.98687" lon="5.58652">
        <ele>1116.23</ele>
        <time>2020-06-21T10:12:25Z</time>
      </trkpt>
      <trkpt lat="44.98687" lon="5.58678">
        <ele>1117.67</ele>
        <time>2020-06-21T10:12:35Z</time>
      </trkpt>
      <trkpt lat="44.98687" lon="5.5868">
        <ele>1117.19</ele>
        <time>2020-06-21T10:12:36Z</time>
      </trkpt>
      <trkpt lat="44.98687" lon="5.58682">
        <ele>1117.67</ele>
        <time>2020-06-21T10:12:37Z</time>
      </trkpt>
      <trkpt lat="44.98687" lon="5.58685">
        <ele>1117.67</ele>
        <time>2020-06-21T10:12:38Z</time>
      </trkpt>
      <trkpt lat="44.98687" lon="5.58687">
        <ele>1117.67</ele>
        <time>2020-06-21T10:12:39Z</time>
      </trkpt>
      <trkpt lat="44.98686" lon="5.58704">
        <ele>1119.11</ele>
        <time>2020-06-21T10:12:46Z</time>
      </trkpt>
      <trkpt lat="44.98685" lon="5.58706">
        <ele>1118.63</ele>
        <time>2020-06-21T10:12:47Z</time>
      </trkpt>
      <trkpt lat="44.98683" lon="5.58712">
        <ele>1119.11</ele>
        <time>2020-06-21T10:12:50Z</time>
      </trkpt>
      <trkpt lat="44.98683" lon="5.58715">
        <ele>1119.59</ele>
        <time>2020-06-21T10:12:51Z</time>
      </trkpt>
      <trkpt lat="44.98683" lon="5.58718">
        <ele>1119.11</ele>
        <time>2020-06-21T10:12:52Z</time>
      </trkpt>
      <trkpt lat="44.98683" lon="5.58721">
        <ele>1120.07</ele>
        <time>2020-06-21T10:12:53Z</time>
      </trkpt>
      <trkpt lat="44.98683" lon="5.58723">
        <ele>1120.07</ele>
        <time>2020-06-21T10:12:54Z</time>
      </trkpt>
      <trkpt lat="44.98683" lon="5.58726">
        <ele>1120.07</ele>
        <time>2020-06-21T10:12:55Z</time>
      </trkpt>
      <trkpt lat="44.98682" lon="5.58728">
        <ele>1120.55</ele>
        <time>2020-06-21T10:12:56Z</time>
      </trkpt>
      <trkpt lat="44.98682" lon="5.5873">
        <ele>1120.55</ele>
        <time>2020-06-21T10:12:57Z</time>
      </trkpt>
      <trkpt lat="44.98682" lon="5.58733">
        <ele>1120.55</ele>
        <time>2020-06-21T10:12:58Z</time>
      </trkpt>
      <trkpt lat="44.98683" lon="5.58779">
        <ele>1122.48</ele>
        <time>2020-06-21T10:13:14Z</time>
      </trkpt>
      <trkpt lat="44.98676" lon="5.58817">
        <ele>1123.92</ele>
        <time>2020-06-21T10:13:29Z</time>
      </trkpt>
      <trkpt lat="44.98667" lon="5.58857">
        <ele>1126.32</ele>
        <time>2020-06-21T10:13:46Z</time>
      </trkpt>
      <trkpt lat="44.98657" lon="5.58883">
        <ele>1127.76</ele>
        <time>2020-06-21T10:13:58Z</time>
      </trkpt>
      <trkpt lat="44.98651" lon="5.58908">
        <ele>1128.24</ele>
        <time>2020-06-21T10:14:10Z</time>
      </trkpt>
      <trkpt lat="44.98658" lon="5.58949">
        <ele>1128.73</ele>
        <time>2020-06-21T10:14:25Z</time>
      </trkpt>
      <trkpt lat="44.98665" lon="5.58975">
        <ele>1130.65</ele>
        <time>2020-06-21T10:14:35Z</time>
      </trkpt>
      <trkpt lat="44.98665" lon="5.58977">
        <ele>1130.65</ele>
        <time>2020-06-21T10:14:36Z</time>
      </trkpt>
      <trkpt lat="44.98666" lon="5.5898">
        <ele>1131.13</ele>
        <time>2020-06-21T10:14:37Z</time>
      </trkpt>
      <trkpt lat="44.98667" lon="5.58983">
        <ele>1131.61</ele>
        <time>2020-06-21T10:14:38Z</time>
      </trkpt>
      <trkpt lat="44.98668" lon="5.58986">
        <ele>1131.61</ele>
        <time>2020-06-21T10:14:39Z</time>
      </trkpt>
      <trkpt lat="44.98669" lon="5.5899">
        <ele>1131.61</ele>
        <time>2020-06-21T10:14:40Z</time>
      </trkpt>
      <trkpt lat="44.98683" lon="5.59032">
        <ele>1133.53</ele>
        <time>2020-06-21T10:14:55Z</time>
      </trkpt>
      <trkpt lat="44.98692" lon="5.59077">
        <ele>1133.53</ele>
        <time>2020-06-21T10:15:10Z</time>
      </trkpt>
      <trkpt lat="44.98698" lon="5.59115">
        <ele>1136.9</ele>
        <time>2020-06-21T10:15:25Z</time>
      </trkpt>
      <trkpt lat="44.98706" lon="5.5915">
        <ele>1139.3</ele>
        <time>2020-06-21T10:15:40Z</time>
      </trkpt>
      <trkpt lat="44.98724" lon="5.59188">
        <ele>1140.26</ele>
        <time>2020-06-21T10:15:58Z</time>
      </trkpt>
      <trkpt lat="44.98743" lon="5.59218">
        <ele>1141.22</ele>
        <time>2020-06-21T10:16:12Z</time>
      </trkpt>
      <trkpt lat="44.98765" lon="5.59248">
        <ele>1143.14</ele>
        <time>2020-06-21T10:16:27Z</time>
      </trkpt>
      <trkpt lat="44.98791" lon="5.59275">
        <ele>1143.63</ele>
        <time>2020-06-21T10:16:42Z</time>
      </trkpt>
      <trkpt lat="44.98822" lon="5.59304">
        <ele>1144.59</ele>
        <time>2020-06-21T10:16:58Z</time>
      </trkpt>
      <trkpt lat="44.98842" lon="5.59337">
        <ele>1145.07</ele>
        <time>2020-06-21T10:17:13Z</time>
      </trkpt>
      <trkpt lat="44.98866" lon="5.59372">
        <ele>1146.99</ele>
        <time>2020-06-21T10:17:29Z</time>
      </trkpt>
      <trkpt lat="44.98889" lon="5.59404">
        <ele>1148.43</ele>
        <time>2020-06-21T10:17:45Z</time>
      </trkpt>
      <trkpt lat="44.98916" lon="5.59438">
        <ele>1148.43</ele>
        <time>2020-06-21T10:18:03Z</time>
      </trkpt>
      <trkpt lat="44.98927" lon="5.59451">
        <ele>1149.87</ele>
        <time>2020-06-21T10:18:13Z</time>
      </trkpt>
      <trkpt lat="44.98928" lon="5.59453">
        <ele>1149.87</ele>
        <time>2020-06-21T10:18:14Z</time>
      </trkpt>
      <trkpt lat="44.9893" lon="5.59454">
        <ele>1149.87</ele>
        <time>2020-06-21T10:18:15Z</time>
      </trkpt>
      <trkpt lat="44.98932" lon="5.59456">
        <ele>1150.35</ele>
        <time>2020-06-21T10:18:16Z</time>
      </trkpt>
      <trkpt lat="44.98934" lon="5.59456">
        <ele>1150.35</ele>
        <time>2020-06-21T10:18:17Z</time>
      </trkpt>
      <trkpt lat="44.98936" lon="5.59457">
        <ele>1150.35</ele>
        <time>2020-06-21T10:18:18Z</time>
      </trkpt>
      <trkpt lat="44.98938" lon="5.59459">
        <ele>1149.87</ele>
        <time>2020-06-21T10:18:19Z</time>
      </trkpt>
      <trkpt lat="44.98966" lon="5.59477">
        <ele>1151.32</ele>
        <time>2020-06-21T10:18:34Z</time>
      </trkpt>
      <trkpt lat="44.98981" lon="5.59484">
        <ele>1152.28</ele>
        <time>2020-06-21T10:18:43Z</time>
      </trkpt>
      <trkpt lat="44.98983" lon="5.59485">
        <ele>1152.28</ele>
        <time>2020-06-21T10:18:44Z</time>
      </trkpt>
      <trkpt lat="44.98985" lon="5.59485">
        <ele>1152.76</ele>
        <time>2020-06-21T10:18:45Z</time>
      </trkpt>
      <trkpt lat="44.99015" lon="5.59502">
        <ele>1154.68</ele>
        <time>2020-06-21T10:19:02Z</time>
      </trkpt>
      <trkpt lat="44.99027" lon="5.59512">
        <ele>1155.16</ele>
        <time>2020-06-21T10:19:13Z</time>
      </trkpt>
      <trkpt lat="44.99028" lon="5.59511">
        <ele>1155.16</ele>
        <time>2020-06-21T10:19:14Z</time>
      </trkpt>
      <trkpt lat="44.99029" lon="5.59511">
        <ele>1154.68</ele>
        <time>2020-06-21T10:19:15Z</time>
      </trkpt>
      <trkpt lat="44.99031" lon="5.59512">
        <ele>1155.16</ele>
        <time>2020-06-21T10:19:16Z</time>
      </trkpt>
      <trkpt lat="44.99032" lon="5.59513">
        <ele>1154.68</ele>
        <time>2020-06-21T10:19:17Z</time>
      </trkpt>
      <trkpt lat="44.99056" lon="5.59526">
        <ele>1154.68</ele>
        <time>2020-06-21T10:19:26Z</time>
      </trkpt>
      <trkpt lat="44.99075" lon="5.5954">
        <ele>1155.16</ele>
        <time>2020-06-21T10:19:36Z</time>
      </trkpt>
      <trkpt lat="44.99077" lon="5.59541">
        <ele>1155.16</ele>
        <time>2020-06-21T10:19:37Z</time>
      </trkpt>
      <trkpt lat="44.99078" lon="5.59542">
        <ele>1155.64</ele>
        <time>2020-06-21T10:19:38Z</time>
      </trkpt>
      <trkpt lat="44.99079" lon="5.59543">
        <ele>1155.64</ele>
        <time>2020-06-21T10:19:39Z</time>
      </trkpt>
      <trkpt lat="44.99084" lon="5.59545">
        <ele>1155.64</ele>
        <time>2020-06-21T10:19:49Z</time>
      </trkpt>
      <trkpt lat="44.99084" lon="5.59544">
        <ele>1156.12</ele>
        <time>2020-06-21T10:20:14Z</time>
      </trkpt>
      <trkpt lat="44.99084" lon="5.59546">
        <ele>1156.12</ele>
        <time>2020-06-21T10:20:39Z</time>
      </trkpt>
      <trkpt lat="44.99084" lon="5.59546">
        <ele>1156.12</ele>
        <time>2020-06-21T10:21:07Z</time>
      </trkpt>
      <trkpt lat="44.99084" lon="5.59547">
        <ele>1156.6</ele>
        <time>2020-06-21T10:21:33Z</time>
      </trkpt>
      <trkpt lat="44.99084" lon="5.59546">
        <ele>1157.56</ele>
        <time>2020-06-21T10:21:51Z</time>
      </trkpt>
      <trkpt lat="44.99083" lon="5.59547">
        <ele>1157.08</ele>
        <time>2020-06-21T10:22:14Z</time>
      </trkpt>
      <trkpt lat="44.99082" lon="5.59547">
        <ele>1156.12</ele>
        <time>2020-06-21T10:22:32Z</time>
      </trkpt>
      <trkpt lat="44.99083" lon="5.59547">
        <ele>1156.12</ele>
        <time>2020-06-21T10:23:05Z</time>
      </trkpt>
      <trkpt lat="44.99083" lon="5.59546">
        <ele>1156.12</ele>
        <time>2020-06-21T10:23:28Z</time>
      </trkpt>
      <trkpt lat="44.99083" lon="5.59548">
        <ele>1156.12</ele>
        <time>2020-06-21T10:23:46Z</time>
      </trkpt>
      <trkpt lat="44.99083" lon="5.59549">
        <ele>1156.12</ele>
        <time>2020-06-21T10:24:08Z</time>
      </trkpt>
      <trkpt lat="44.99083" lon="5.59548">
        <ele>1156.6</ele>
        <time>2020-06-21T10:24:24Z</time>
      </trkpt>
      <trkpt lat="44.99083" lon="5.59548">
        <ele>1157.08</ele>
        <time>2020-06-21T10:24:46Z</time>
      </trkpt>
      <trkpt lat="44.99082" lon="5.59547">
        <ele>1156.6</ele>
        <time>2020-06-21T10:25:11Z</time>
      </trkpt>
      <trkpt lat="44.99082" lon="5.59547">
        <ele>1156.6</ele>
        <time>2020-06-21T10:25:35Z</time>
      </trkpt>
      <trkpt lat="44.99082" lon="5.59547">
        <ele>1156.12</ele>
        <time>2020-06-21T10:25:58Z</time>
      </trkpt>
      <trkpt lat="44.99083" lon="5.59547">
        <ele>1156.6</ele>
        <time>2020-06-21T10:26:27Z</time>
      </trkpt>
      <trkpt lat="44.99083" lon="5.59546">
        <ele>1156.6</ele>
        <time>2020-06-21T10:26:53Z</time>
      </trkpt>
      <trkpt lat="44.99084" lon="5.59546">
        <ele>1156.12</ele>
        <time>2020-06-21T10:27:17Z</time>
      </trkpt>
      <trkpt lat="44.99084" lon="5.59545">
        <ele>1156.6</ele>
        <time>2020-06-21T10:27:48Z</time>
      </trkpt>
      <trkpt lat="44.99084" lon="5.59545">
        <ele>1156.6</ele>
        <time>2020-06-21T10:28:14Z</time>
      </trkpt>
      <trkpt lat="44.99083" lon="5.59549">
        <ele>1156.6</ele>
        <time>2020-06-21T10:28:43Z</time>
      </trkpt>
      <trkpt lat="44.99083" lon="5.59549">
        <ele>1156.12</ele>
        <time>2020-06-21T10:29:13Z</time>
      </trkpt>
      <trkpt lat="44.99082" lon="5.59547">
        <ele>1157.56</ele>
        <time>2020-06-21T10:29:45Z</time>
      </trkpt>
      <trkpt lat="44.99081" lon="5.59547">
        <ele>1158.05</ele>
        <time>2020-06-21T10:30:16Z</time>
      </trkpt>
      <trkpt lat="44.99081" lon="5.59547">
        <ele>1157.08</ele>
        <time>2020-06-21T10:30:50Z</time>
      </trkpt>
      <trkpt lat="44.99081" lon="5.59547">
        <ele>1157.08</ele>
        <time>2020-06-21T10:31:08Z</time>
      </trkpt>
      <trkpt lat="44.99081" lon="5.59545">
        <ele>1157.56</ele>
        <time>2020-06-21T10:31:34Z</time>
      </trkpt>
      <trkpt lat="44.99081" lon="5.59546">
        <ele>1152.76</ele>
        <time>2020-06-21T10:31:43Z</time>
      </trkpt>
      <trkpt lat="44.99081" lon="5.59546">
        <ele>1158.05</ele>
        <time>2020-06-21T10:31:44Z</time>
      </trkpt>
      <trkpt lat="44.99081" lon="5.59545">
        <ele>1157.08</ele>
        <time>2020-06-21T10:32:12Z</time>
      </trkpt>
      <trkpt lat="44.99082" lon="5.59545">
        <ele>1157.56</ele>
        <time>2020-06-21T10:32:34Z</time>
      </trkpt>
      <trkpt lat="44.99082" lon="5.59548">
        <ele>1157.08</ele>
        <time>2020-06-21T10:33:10Z</time>
      </trkpt>
      <trkpt lat="44.99082" lon="5.59546">
        <ele>1157.08</ele>
        <time>2020-06-21T10:33:44Z</time>
      </trkpt>
      <trkpt lat="44.9908" lon="5.59545">
        <ele>1157.56</ele>
        <time>2020-06-21T10:34:14Z</time>
      </trkpt>
      <trkpt lat="44.99079" lon="5.59545">
        <ele>1157.56</ele>
        <time>2020-06-21T10:34:17Z</time>
      </trkpt>
      <trkpt lat="44.99078" lon="5.59544">
        <ele>1157.56</ele>
        <time>2020-06-21T10:34:18Z</time>
      </trkpt>
      <trkpt lat="44.99075" lon="5.59539">
        <ele>1158.05</ele>
        <time>2020-06-21T10:34:23Z</time>
      </trkpt>
      <trkpt lat="44.99074" lon="5.59538">
        <ele>1157.56</ele>
        <time>2020-06-21T10:34:24Z</time>
      </trkpt>
      <trkpt lat="44.99072" lon="5.59536">
        <ele>1157.56</ele>
        <time>2020-06-21T10:34:25Z</time>
      </trkpt>
      <trkpt lat="44.99041" lon="5.59513">
        <ele>1156.6</ele>
        <time>2020-06-21T10:34:40Z</time>
      </trkpt>
      <trkpt lat="44.99007" lon="5.59489">
        <ele>1155.16</ele>
        <time>2020-06-21T10:34:51Z</time>
      </trkpt>
      <trkpt lat="44.98985" lon="5.59479">
        <ele>1153.72</ele>
        <time>2020-06-21T10:34:57Z</time>
      </trkpt>
      <trkpt lat="44.98981" lon="5.59476">
        <ele>1154.2</ele>
        <time>2020-06-21T10:34:58Z</time>
      </trkpt>
      <trkpt lat="44.98977" lon="5.59473">
        <ele>1153.72</ele>
        <time>2020-06-21T10:34:59Z</time>
      </trkpt>
      <trkpt lat="44.98967" lon="5.59468">
        <ele>1152.28</ele>
        <time>2020-06-21T10:35:01Z</time>
      </trkpt>
      <trkpt lat="44.98961" lon="5.59465">
        <ele>1151.8</ele>
        <time>2020-06-21T10:35:02Z</time>
      </trkpt>
      <trkpt lat="44.98938" lon="5.59452">
        <ele>1151.32</ele>
        <time>2020-06-21T10:35:06Z</time>
      </trkpt>
      <trkpt lat="44.98923" lon="5.59443">
        <ele>1150.84</ele>
        <time>2020-06-21T10:35:09Z</time>
      </trkpt>
      <trkpt lat="44.98866" lon="5.59372">
        <ele>1148.91</ele>
        <time>2020-06-21T10:35:22Z</time>
      </trkpt>
      <trkpt lat="44.98826" lon="5.5931">
        <ele>1146.51</ele>
        <time>2020-06-21T10:35:32Z</time>
      </trkpt>
      <trkpt lat="44.98813" lon="5.59293">
        <ele>1145.07</ele>
        <time>2020-06-21T10:35:35Z</time>
      </trkpt>
      <trkpt lat="44.98802" lon="5.59284">
        <ele>1145.07</ele>
        <time>2020-06-21T10:35:37Z</time>
      </trkpt>
      <trkpt lat="44.98797" lon="5.59279">
        <ele>1145.07</ele>
        <time>2020-06-21T10:35:38Z</time>
      </trkpt>
      <trkpt lat="44.98792" lon="5.59275">
        <ele>1144.59</ele>
        <time>2020-06-21T10:35:39Z</time>
      </trkpt>
      <trkpt lat="44.98771" lon="5.59254">
        <ele>1143.63</ele>
        <time>2020-06-21T10:35:43Z</time>
      </trkpt>
      <trkpt lat="44.98726" lon="5.59194">
        <ele>1142.18</ele>
        <time>2020-06-21T10:35:53Z</time>
      </trkpt>
      <trkpt lat="44.98722" lon="5.59188">
        <ele>1141.22</ele>
        <time>2020-06-21T10:35:54Z</time>
      </trkpt>
      <trkpt lat="44.987" lon="5.59126">
        <ele>1138.34</ele>
        <time>2020-06-21T10:36:02Z</time>
      </trkpt>
      <trkpt lat="44.98698" lon="5.59118">
        <ele>1137.86</ele>
        <time>2020-06-21T10:36:03Z</time>
      </trkpt>
      <trkpt lat="44.98695" lon="5.59101">
        <ele>1136.9</ele>
        <time>2020-06-21T10:36:05Z</time>
      </trkpt>
      <trkpt lat="44.98684" lon="5.59044">
        <ele>1133.53</ele>
        <time>2020-06-21T10:36:11Z</time>
      </trkpt>
      <trkpt lat="44.98673" lon="5.59006">
        <ele>1131.61</ele>
        <time>2020-06-21T10:36:15Z</time>
      </trkpt>
      <trkpt lat="44.98662" lon="5.58968">
        <ele>1131.13</ele>
        <time>2020-06-21T10:36:19Z</time>
      </trkpt>
      <trkpt lat="44.98651" lon="5.58918">
        <ele>1129.69</ele>
        <time>2020-06-21T10:36:24Z</time>
      </trkpt>
      <trkpt lat="44.98652" lon="5.58907">
        <ele>1129.69</ele>
        <time>2020-06-21T10:36:25Z</time>
      </trkpt>
      <trkpt lat="44.98654" lon="5.58895">
        <ele>1128.73</ele>
        <time>2020-06-21T10:36:26Z</time>
      </trkpt>
      <trkpt lat="44.98657" lon="5.58884">
        <ele>1127.76</ele>
        <time>2020-06-21T10:36:27Z</time>
      </trkpt>
      <trkpt lat="44.98662" lon="5.58873">
        <ele>1127.28</ele>
        <time>2020-06-21T10:36:28Z</time>
      </trkpt>
      <trkpt lat="44.98674" lon="5.58823">
        <ele>1123.92</ele>
        <time>2020-06-21T10:36:32Z</time>
      </trkpt>
      <trkpt lat="44.98681" lon="5.58769">
        <ele>1120.55</ele>
        <time>2020-06-21T10:36:36Z</time>
      </trkpt>
      <trkpt lat="44.98685" lon="5.58687">
        <ele>1116.71</ele>
        <time>2020-06-21T10:36:42Z</time>
      </trkpt>
      <trkpt lat="44.98686" lon="5.58673">
        <ele>1116.71</ele>
        <time>2020-06-21T10:36:43Z</time>
      </trkpt>
      <trkpt lat="44.98686" lon="5.5866">
        <ele>1116.23</ele>
        <time>2020-06-21T10:36:44Z</time>
      </trkpt>
      <trkpt lat="44.98684" lon="5.58647">
        <ele>1115.27</ele>
        <time>2020-06-21T10:36:45Z</time>
      </trkpt>
      <trkpt lat="44.9868" lon="5.58635">
        <ele>1114.79</ele>
        <time>2020-06-21T10:36:46Z</time>
      </trkpt>
      <trkpt lat="44.98676" lon="5.58622">
        <ele>1112.86</ele>
        <time>2020-06-21T10:36:47Z</time>
      </trkpt>
      <trkpt lat="44.98671" lon="5.58611">
        <ele>1111.9</ele>
        <time>2020-06-21T10:36:48Z</time>
      </trkpt>
      <trkpt lat="44.98666" lon="5.586">
        <ele>1111.42</ele>
        <time>2020-06-21T10:36:49Z</time>
      </trkpt>
      <trkpt lat="44.9866" lon="5.5859">
        <ele>1110.46</ele>
        <time>2020-06-21T10:36:50Z</time>
      </trkpt>
      <trkpt lat="44.98653" lon="5.58583">
        <ele>1110.46</ele>
        <time>2020-06-21T10:36:51Z</time>
      </trkpt>
      <trkpt lat="44.98645" lon="5.58577">
        <ele>1107.58</ele>
        <time>2020-06-21T10:36:52Z</time>
      </trkpt>
      <trkpt lat="44.98637" lon="5.58573">
        <ele>1107.58</ele>
        <time>2020-06-21T10:36:53Z</time>
      </trkpt>
      <trkpt lat="44.9863" lon="5.5857">
        <ele>1107.58</ele>
        <time>2020-06-21T10:36:54Z</time>
      </trkpt>
      <trkpt lat="44.98607" lon="5.58564">
        <ele>1109.02</ele>
        <time>2020-06-21T10:36:57Z</time>
      </trkpt>
      <trkpt lat="44.98586" lon="5.58557">
        <ele>1107.1</ele>
        <time>2020-06-21T10:37:00Z</time>
      </trkpt>
      <trkpt lat="44.98571" lon="5.58553">
        <ele>1108.06</ele>
        <time>2020-06-21T10:37:02Z</time>
      </trkpt>
      <trkpt lat="44.98564" lon="5.58549">
        <ele>1107.58</ele>
        <time>2020-06-21T10:37:03Z</time>
      </trkpt>
      <trkpt lat="44.98557" lon="5.58546">
        <ele>1107.1</ele>
        <time>2020-06-21T10:37:04Z</time>
      </trkpt>
      <trkpt lat="44.98543" lon="5.58538">
        <ele>1107.58</ele>
        <time>2020-06-21T10:37:06Z</time>
      </trkpt>
      <trkpt lat="44.9852" lon="5.58524">
        <ele>1106.13</ele>
        <time>2020-06-21T10:37:09Z</time>
      </trkpt>
      <trkpt lat="44.98487" lon="5.58497">
        <ele>1101.81</ele>
        <time>2020-06-21T10:37:13Z</time>
      </trkpt>
      <trkpt lat="44.98479" lon="5.58489">
        <ele>1101.81</ele>
        <time>2020-06-21T10:37:14Z</time>
      </trkpt>
      <trkpt lat="44.98443" lon="5.58455">
        <ele>1097</ele>
        <time>2020-06-21T10:37:18Z</time>
      </trkpt>
      <trkpt lat="44.98406" lon="5.58416">
        <ele>1093.64</ele>
        <time>2020-06-21T10:37:22Z</time>
      </trkpt>
      <trkpt lat="44.98365" lon="5.58378">
        <ele>1090.27</ele>
        <time>2020-06-21T10:37:26Z</time>
      </trkpt>
      <trkpt lat="44.9832" lon="5.58351">
        <ele>1086.91</ele>
        <time>2020-06-21T10:37:30Z</time>
      </trkpt>
      <trkpt lat="44.98274" lon="5.58328">
        <ele>1084.02</ele>
        <time>2020-06-21T10:37:34Z</time>
      </trkpt>
      <trkpt lat="44.98252" lon="5.58316">
        <ele>1083.06</ele>
        <time>2020-06-21T10:37:36Z</time>
      </trkpt>
      <trkpt lat="44.98221" lon="5.58293">
        <ele>1079.7</ele>
        <time>2020-06-21T10:37:39Z</time>
      </trkpt>
      <trkpt lat="44.98149" lon="5.58225">
        <ele>1077.29</ele>
        <time>2020-06-21T10:37:47Z</time>
      </trkpt>
      <trkpt lat="44.98137" lon="5.58205">
        <ele>1076.81</ele>
        <time>2020-06-21T10:37:49Z</time>
      </trkpt>
      <trkpt lat="44.9812" lon="5.58174">
        <ele>1076.33</ele>
        <time>2020-06-21T10:37:52Z</time>
      </trkpt>
      <trkpt lat="44.98114" lon="5.58166">
        <ele>1076.81</ele>
        <time>2020-06-21T10:37:53Z</time>
      </trkpt>
      <trkpt lat="44.98091" lon="5.58143">
        <ele>1073.45</ele>
        <time>2020-06-21T10:37:56Z</time>
      </trkpt>
      <trkpt lat="44.98084" lon="5.58134">
        <ele>1072.49</ele>
        <time>2020-06-21T10:37:57Z</time>
      </trkpt>
      <trkpt lat="44.98077" lon="5.58125">
        <ele>1071.53</ele>
        <time>2020-06-21T10:37:58Z</time>
      </trkpt>
      <trkpt lat="44.9807" lon="5.58115">
        <ele>1071.05</ele>
        <time>2020-06-21T10:37:59Z</time>
      </trkpt>
      <trkpt lat="44.98047" lon="5.58084">
        <ele>1070.08</ele>
        <time>2020-06-21T10:38:02Z</time>
      </trkpt>
      <trkpt lat="44.98039" lon="5.58077">
        <ele>1069.12</ele>
        <time>2020-06-21T10:38:03Z</time>
      </trkpt>
      <trkpt lat="44.98031" lon="5.58075">
        <ele>1068.16</ele>
        <time>2020-06-21T10:38:04Z</time>
      </trkpt>
      <trkpt lat="44.98025" lon="5.58079">
        <ele>1067.68</ele>
        <time>2020-06-21T10:38:05Z</time>
      </trkpt>
      <trkpt lat="44.9802" lon="5.58088">
        <ele>1067.2</ele>
        <time>2020-06-21T10:38:06Z</time>
      </trkpt>
      <trkpt lat="44.98017" lon="5.58098">
        <ele>1066.72</ele>
        <time>2020-06-21T10:38:07Z</time>
      </trkpt>
      <trkpt lat="44.98017" lon="5.58107">
        <ele>1066.72</ele>
        <time>2020-06-21T10:38:08Z</time>
      </trkpt>
      <trkpt lat="44.98022" lon="5.58115">
        <ele>1066.72</ele>
        <time>2020-06-21T10:38:09Z</time>
      </trkpt>
      <trkpt lat="44.98028" lon="5.58122">
        <ele>1066.72</ele>
        <time>2020-06-21T10:38:10Z</time>
      </trkpt>
      <trkpt lat="44.98035" lon="5.58128">
        <ele>1065.28</ele>
        <time>2020-06-21T10:38:11Z</time>
      </trkpt>
      <trkpt lat="44.98043" lon="5.58134">
        <ele>1064.8</ele>
        <time>2020-06-21T10:38:12Z</time>
      </trkpt>
      <trkpt lat="44.98066" lon="5.58154">
        <ele>1061.43</ele>
        <time>2020-06-21T10:38:15Z</time>
      </trkpt>
      <trkpt lat="44.98073" lon="5.58164">
        <ele>1060.95</ele>
        <time>2020-06-21T10:38:16Z</time>
      </trkpt>
      <trkpt lat="44.98086" lon="5.58189">
        <ele>1057.59</ele>
        <time>2020-06-21T10:38:18Z</time>
      </trkpt>
      <trkpt lat="44.98098" lon="5.58215">
        <ele>1056.15</ele>
        <time>2020-06-21T10:38:20Z</time>
      </trkpt>
      <trkpt lat="44.98117" lon="5.58254">
        <ele>1053.26</ele>
        <time>2020-06-21T10:38:23Z</time>
      </trkpt>
      <trkpt lat="44.98136" lon="5.58292">
        <ele>1048.45</ele>
        <time>2020-06-21T10:38:26Z</time>
      </trkpt>
      <trkpt lat="44.98148" lon="5.58318">
        <ele>1047.49</ele>
        <time>2020-06-21T10:38:28Z</time>
      </trkpt>
      <trkpt lat="44.98165" lon="5.58358">
        <ele>1046.53</ele>
        <time>2020-06-21T10:38:31Z</time>
      </trkpt>
      <trkpt lat="44.98174" lon="5.58387">
        <ele>1044.13</ele>
        <time>2020-06-21T10:38:33Z</time>
      </trkpt>
      <trkpt lat="44.98188" lon="5.58428">
        <ele>1041.73</ele>
        <time>2020-06-21T10:38:36Z</time>
      </trkpt>
      <trkpt lat="44.98205" lon="5.58466">
        <ele>1038.36</ele>
        <time>2020-06-21T10:38:39Z</time>
      </trkpt>
      <trkpt lat="44.98212" lon="5.58478">
        <ele>1037.88</ele>
        <time>2020-06-21T10:38:40Z</time>
      </trkpt>
      <trkpt lat="44.9822" lon="5.58489">
        <ele>1036.92</ele>
        <time>2020-06-21T10:38:41Z</time>
      </trkpt>
      <trkpt lat="44.98228" lon="5.58498">
        <ele>1036.92</ele>
        <time>2020-06-21T10:38:42Z</time>
      </trkpt>
      <trkpt lat="44.98238" lon="5.58506">
        <ele>1036.92</ele>
        <time>2020-06-21T10:38:43Z</time>
      </trkpt>
      <trkpt lat="44.98247" lon="5.58515">
        <ele>1035.48</ele>
        <time>2020-06-21T10:38:44Z</time>
      </trkpt>
      <trkpt lat="44.98266" lon="5.58532">
        <ele>1032.59</ele>
        <time>2020-06-21T10:38:46Z</time>
      </trkpt>
      <trkpt lat="44.98274" lon="5.58543">
        <ele>1032.11</ele>
        <time>2020-06-21T10:38:47Z</time>
      </trkpt>
      <trkpt lat="44.98281" lon="5.58557">
        <ele>1030.67</ele>
        <time>2020-06-21T10:38:48Z</time>
      </trkpt>
      <trkpt lat="44.98286" lon="5.58571">
        <ele>1029.71</ele>
        <time>2020-06-21T10:38:49Z</time>
      </trkpt>
      <trkpt lat="44.98291" lon="5.58586">
        <ele>1028.75</ele>
        <time>2020-06-21T10:38:50Z</time>
      </trkpt>
      <trkpt lat="44.98302" lon="5.58615">
        <ele>1027.31</ele>
        <time>2020-06-21T10:38:52Z</time>
      </trkpt>
      <trkpt lat="44.98315" lon="5.58638">
        <ele>1026.34</ele>
        <time>2020-06-21T10:38:54Z</time>
      </trkpt>
      <trkpt lat="44.98318" lon="5.5865">
        <ele>1026.34</ele>
        <time>2020-06-21T10:38:55Z</time>
      </trkpt>
      <trkpt lat="44.98318" lon="5.5866">
        <ele>1025.86</ele>
        <time>2020-06-21T10:38:56Z</time>
      </trkpt>
      <trkpt lat="44.98314" lon="5.58668">
        <ele>1026.34</ele>
        <time>2020-06-21T10:38:57Z</time>
      </trkpt>
      <trkpt lat="44.98307" lon="5.58672">
        <ele>1026.34</ele>
        <time>2020-06-21T10:38:58Z</time>
      </trkpt>
      <trkpt lat="44.98299" lon="5.58669">
        <ele>1025.86</ele>
        <time>2020-06-21T10:38:59Z</time>
      </trkpt>
      <trkpt lat="44.98294" lon="5.58661">
        <ele>1024.9</ele>
        <time>2020-06-21T10:39:00Z</time>
      </trkpt>
      <trkpt lat="44.98289" lon="5.58653">
        <ele>1024.42</ele>
        <time>2020-06-21T10:39:01Z</time>
      </trkpt>
      <trkpt lat="44.98278" lon="5.58635">
        <ele>1023.46</ele>
        <time>2020-06-21T10:39:03Z</time>
      </trkpt>
      <trkpt lat="44.9826" lon="5.58611">
        <ele>1023.94</ele>
        <time>2020-06-21T10:39:09Z</time>
      </trkpt>
      <trkpt lat="44.9824" lon="5.58596">
        <ele>1021.06</ele>
        <time>2020-06-21T10:39:14Z</time>
      </trkpt>
      <trkpt lat="44.98228" lon="5.58588">
        <ele>1019.62</ele>
        <time>2020-06-21T10:39:16Z</time>
      </trkpt>
      <trkpt lat="44.98221" lon="5.58585">
        <ele>1019.62</ele>
        <time>2020-06-21T10:39:17Z</time>
      </trkpt>
      <trkpt lat="44.98208" lon="5.58579">
        <ele>1017.69</ele>
        <time>2020-06-21T10:39:19Z</time>
      </trkpt>
      <trkpt lat="44.982" lon="5.58576">
        <ele>1017.21</ele>
        <time>2020-06-21T10:39:20Z</time>
      </trkpt>
      <trkpt lat="44.98193" lon="5.58573">
        <ele>1016.25</ele>
        <time>2020-06-21T10:39:21Z</time>
      </trkpt>
      <trkpt lat="44.98185" lon="5.58569">
        <ele>1015.77</ele>
        <time>2020-06-21T10:39:22Z</time>
      </trkpt>
      <trkpt lat="44.98177" lon="5.58564">
        <ele>1014.33</ele>
        <time>2020-06-21T10:39:23Z</time>
      </trkpt>
      <trkpt lat="44.9817" lon="5.58557">
        <ele>1014.33</ele>
        <time>2020-06-21T10:39:24Z</time>
      </trkpt>
      <trkpt lat="44.98162" lon="5.58548">
        <ele>1012.89</ele>
        <time>2020-06-21T10:39:25Z</time>
      </trkpt>
      <trkpt lat="44.98155" lon="5.58539">
        <ele>1011.93</ele>
        <time>2020-06-21T10:39:26Z</time>
      </trkpt>
      <trkpt lat="44.98148" lon="5.58528">
        <ele>1010.48</ele>
        <time>2020-06-21T10:39:27Z</time>
      </trkpt>
      <trkpt lat="44.98135" lon="5.58505">
        <ele>1009.04</ele>
        <time>2020-06-21T10:39:29Z</time>
      </trkpt>
      <trkpt lat="44.98129" lon="5.58493">
        <ele>1007.12</ele>
        <time>2020-06-21T10:39:30Z</time>
      </trkpt>
      <trkpt lat="44.9811" lon="5.58456">
        <ele>1003.27</ele>
        <time>2020-06-21T10:39:33Z</time>
      </trkpt>
      <trkpt lat="44.98103" lon="5.58443">
        <ele>1002.31</ele>
        <time>2020-06-21T10:39:34Z</time>
      </trkpt>
      <trkpt lat="44.98097" lon="5.58431">
        <ele>1001.35</ele>
        <time>2020-06-21T10:39:35Z</time>
      </trkpt>
      <trkpt lat="44.98089" lon="5.58419">
        <ele>999.91</ele>
        <time>2020-06-21T10:39:36Z</time>
      </trkpt>
      <trkpt lat="44.98081" lon="5.58408">
        <ele>998.47</ele>
        <time>2020-06-21T10:39:37Z</time>
      </trkpt>
      <trkpt lat="44.98072" lon="5.58398">
        <ele>998.47</ele>
        <time>2020-06-21T10:39:38Z</time>
      </trkpt>
      <trkpt lat="44.98062" lon="5.5839">
        <ele>997.99</ele>
        <time>2020-06-21T10:39:39Z</time>
      </trkpt>
      <trkpt lat="44.98052" lon="5.58382">
        <ele>995.58</ele>
        <time>2020-06-21T10:39:40Z</time>
      </trkpt>
      <trkpt lat="44.98042" lon="5.58373">
        <ele>994.62</ele>
        <time>2020-06-21T10:39:41Z</time>
      </trkpt>
      <trkpt lat="44.98031" lon="5.58367">
        <ele>993.66</ele>
        <time>2020-06-21T10:39:42Z</time>
      </trkpt>
      <trkpt lat="44.98021" lon="5.58359">
        <ele>993.66</ele>
        <time>2020-06-21T10:39:43Z</time>
      </trkpt>
      <trkpt lat="44.98011" lon="5.58351">
        <ele>992.22</ele>
        <time>2020-06-21T10:39:44Z</time>
      </trkpt>
      <trkpt lat="44.98" lon="5.58344">
        <ele>990.3</ele>
        <time>2020-06-21T10:39:45Z</time>
      </trkpt>
      <trkpt lat="44.97958" lon="5.58311">
        <ele>986.45</ele>
        <time>2020-06-21T10:39:49Z</time>
      </trkpt>
      <trkpt lat="44.97925" lon="5.58287">
        <ele>983.09</ele>
        <time>2020-06-21T10:39:52Z</time>
      </trkpt>
      <trkpt lat="44.97914" lon="5.58277">
        <ele>983.09</ele>
        <time>2020-06-21T10:39:53Z</time>
      </trkpt>
      <trkpt lat="44.97903" lon="5.58268">
        <ele>982.12</ele>
        <time>2020-06-21T10:39:54Z</time>
      </trkpt>
      <trkpt lat="44.97892" lon="5.5826">
        <ele>980.68</ele>
        <time>2020-06-21T10:39:55Z</time>
      </trkpt>
      <trkpt lat="44.97871" lon="5.58242">
        <ele>977.32</ele>
        <time>2020-06-21T10:39:57Z</time>
      </trkpt>
      <trkpt lat="44.97826" lon="5.58209">
        <ele>973.95</ele>
        <time>2020-06-21T10:40:01Z</time>
      </trkpt>
      <trkpt lat="44.97793" lon="5.58184">
        <ele>970.59</ele>
        <time>2020-06-21T10:40:04Z</time>
      </trkpt>
      <trkpt lat="44.97758" lon="5.58159">
        <ele>967.22</ele>
        <time>2020-06-21T10:40:07Z</time>
      </trkpt>
      <trkpt lat="44.97712" lon="5.58124">
        <ele>962.42</ele>
        <time>2020-06-21T10:40:11Z</time>
      </trkpt>
      <trkpt lat="44.97666" lon="5.58084">
        <ele>959.05</ele>
        <time>2020-06-21T10:40:16Z</time>
      </trkpt>
      <trkpt lat="44.97659" lon="5.58075">
        <ele>959.05</ele>
        <time>2020-06-21T10:40:17Z</time>
      </trkpt>
      <trkpt lat="44.97633" lon="5.5803">
        <ele>955.69</ele>
        <time>2020-06-21T10:40:21Z</time>
      </trkpt>
      <trkpt lat="44.97629" lon="5.58016">
        <ele>955.69</ele>
        <time>2020-06-21T10:40:22Z</time>
      </trkpt>
      <trkpt lat="44.97626" lon="5.58001">
        <ele>954.25</ele>
        <time>2020-06-21T10:40:23Z</time>
      </trkpt>
      <trkpt lat="44.97625" lon="5.57986">
        <ele>952.8</ele>
        <time>2020-06-21T10:40:24Z</time>
      </trkpt>
      <trkpt lat="44.97626" lon="5.57969">
        <ele>952.8</ele>
        <time>2020-06-21T10:40:25Z</time>
      </trkpt>
      <trkpt lat="44.97627" lon="5.57954">
        <ele>950.88</ele>
        <time>2020-06-21T10:40:26Z</time>
      </trkpt>
      <trkpt lat="44.97632" lon="5.57925">
        <ele>948.96</ele>
        <time>2020-06-21T10:40:28Z</time>
      </trkpt>
      <trkpt lat="44.97647" lon="5.57884">
        <ele>946.07</ele>
        <time>2020-06-21T10:40:31Z</time>
      </trkpt>
      <trkpt lat="44.97653" lon="5.57871">
        <ele>946.07</ele>
        <time>2020-06-21T10:40:32Z</time>
      </trkpt>
      <trkpt lat="44.97658" lon="5.57857">
        <ele>945.11</ele>
        <time>2020-06-21T10:40:33Z</time>
      </trkpt>
      <trkpt lat="44.9767" lon="5.57833">
        <ele>944.63</ele>
        <time>2020-06-21T10:40:35Z</time>
      </trkpt>
      <trkpt lat="44.97702" lon="5.57784">
        <ele>940.79</ele>
        <time>2020-06-21T10:40:41Z</time>
      </trkpt>
      <trkpt lat="44.97728" lon="5.57755">
        <ele>938.38</ele>
        <time>2020-06-21T10:40:45Z</time>
      </trkpt>
      <trkpt lat="44.97735" lon="5.57747">
        <ele>938.38</ele>
        <time>2020-06-21T10:40:46Z</time>
      </trkpt>
      <trkpt lat="44.97739" lon="5.57738">
        <ele>936.94</ele>
        <time>2020-06-21T10:40:47Z</time>
      </trkpt>
      <trkpt lat="44.9774" lon="5.57727">
        <ele>935.98</ele>
        <time>2020-06-21T10:40:48Z</time>
      </trkpt>
      <trkpt lat="44.97737" lon="5.57716">
        <ele>935.02</ele>
        <time>2020-06-21T10:40:49Z</time>
      </trkpt>
      <trkpt lat="44.97732" lon="5.57707">
        <ele>934.54</ele>
        <time>2020-06-21T10:40:50Z</time>
      </trkpt>
      <trkpt lat="44.97725" lon="5.57702">
        <ele>934.06</ele>
        <time>2020-06-21T10:40:51Z</time>
      </trkpt>
      <trkpt lat="44.97716" lon="5.57699">
        <ele>934.54</ele>
        <time>2020-06-21T10:40:52Z</time>
      </trkpt>
      <trkpt lat="44.97708" lon="5.57697">
        <ele>933.58</ele>
        <time>2020-06-21T10:40:53Z</time>
      </trkpt>
      <trkpt lat="44.97664" lon="5.57691">
        <ele>930.69</ele>
        <time>2020-06-21T10:40:58Z</time>
      </trkpt>
      <trkpt lat="44.97638" lon="5.57685">
        <ele>927.81</ele>
        <time>2020-06-21T10:41:01Z</time>
      </trkpt>
      <trkpt lat="44.9762" lon="5.57678">
        <ele>925.41</ele>
        <time>2020-06-21T10:41:03Z</time>
      </trkpt>
      <trkpt lat="44.97594" lon="5.5766">
        <ele>923</ele>
        <time>2020-06-21T10:41:06Z</time>
      </trkpt>
      <trkpt lat="44.97557" lon="5.57634">
        <ele>920.12</ele>
        <time>2020-06-21T10:41:10Z</time>
      </trkpt>
      <trkpt lat="44.97546" lon="5.57629">
        <ele>918.2</ele>
        <time>2020-06-21T10:41:11Z</time>
      </trkpt>
      <trkpt lat="44.97535" lon="5.57625">
        <ele>917.24</ele>
        <time>2020-06-21T10:41:12Z</time>
      </trkpt>
      <trkpt lat="44.97524" lon="5.57623">
        <ele>915.79</ele>
        <time>2020-06-21T10:41:13Z</time>
      </trkpt>
      <trkpt lat="44.97514" lon="5.57621">
        <ele>915.31</ele>
        <time>2020-06-21T10:41:14Z</time>
      </trkpt>
      <trkpt lat="44.97505" lon="5.57621">
        <ele>914.83</ele>
        <time>2020-06-21T10:41:15Z</time>
      </trkpt>
      <trkpt lat="44.97481" lon="5.5762">
        <ele>916.27</ele>
        <time>2020-06-21T10:41:19Z</time>
      </trkpt>
      <trkpt lat="44.97477" lon="5.57615">
        <ele>915.31</ele>
        <time>2020-06-21T10:41:20Z</time>
      </trkpt>
      <trkpt lat="44.97477" lon="5.57608">
        <ele>914.35</ele>
        <time>2020-06-21T10:41:21Z</time>
      </trkpt>
      <trkpt lat="44.97478" lon="5.57601">
        <ele>913.87</ele>
        <time>2020-06-21T10:41:22Z</time>
      </trkpt>
      <trkpt lat="44.97481" lon="5.57594">
        <ele>913.87</ele>
        <time>2020-06-21T10:41:23Z</time>
      </trkpt>
      <trkpt lat="44.97483" lon="5.57587">
        <ele>914.35</ele>
        <time>2020-06-21T10:41:24Z</time>
      </trkpt>
      <trkpt lat="44.97488" lon="5.57571">
        <ele>912.43</ele>
        <time>2020-06-21T10:41:26Z</time>
      </trkpt>
      <trkpt lat="44.97491" lon="5.57561">
        <ele>910.99</ele>
        <time>2020-06-21T10:41:27Z</time>
      </trkpt>
      <trkpt lat="44.97504" lon="5.57523">
        <ele>908.58</ele>
        <time>2020-06-21T10:41:31Z</time>
      </trkpt>
      <trkpt lat="44.97515" lon="5.57496">
        <ele>908.1</ele>
        <time>2020-06-21T10:41:34Z</time>
      </trkpt>
      <trkpt lat="44.9752" lon="5.57489">
        <ele>906.66</ele>
        <time>2020-06-21T10:41:35Z</time>
      </trkpt>
      <trkpt lat="44.97536" lon="5.57457">
        <ele>906.66</ele>
        <time>2020-06-21T10:41:39Z</time>
      </trkpt>
      <trkpt lat="44.97537" lon="5.57449">
        <ele>906.66</ele>
        <time>2020-06-21T10:41:40Z</time>
      </trkpt>
      <trkpt lat="44.97536" lon="5.5744">
        <ele>906.18</ele>
        <time>2020-06-21T10:41:41Z</time>
      </trkpt>
      <trkpt lat="44.97532" lon="5.57432">
        <ele>906.66</ele>
        <time>2020-06-21T10:41:42Z</time>
      </trkpt>
      <trkpt lat="44.97527" lon="5.57425">
        <ele>904.74</ele>
        <time>2020-06-21T10:41:43Z</time>
      </trkpt>
      <trkpt lat="44.97521" lon="5.57421">
        <ele>904.74</ele>
        <time>2020-06-21T10:41:44Z</time>
      </trkpt>
      <trkpt lat="44.97515" lon="5.57419">
        <ele>905.22</ele>
        <time>2020-06-21T10:41:45Z</time>
      </trkpt>
      <trkpt lat="44.97509" lon="5.57419">
        <ele>905.7</ele>
        <time>2020-06-21T10:41:46Z</time>
      </trkpt>
      <trkpt lat="44.97503" lon="5.57419">
        <ele>905.7</ele>
        <time>2020-06-21T10:41:47Z</time>
      </trkpt>
      <trkpt lat="44.97467" lon="5.57414">
        <ele>907.14</ele>
        <time>2020-06-21T10:41:54Z</time>
      </trkpt>
      <trkpt lat="44.97463" lon="5.57413">
        <ele>907.62</ele>
        <time>2020-06-21T10:41:55Z</time>
      </trkpt>
      <trkpt lat="44.97458" lon="5.57411">
        <ele>907.14</ele>
        <time>2020-06-21T10:41:56Z</time>
      </trkpt>
      <trkpt lat="44.97454" lon="5.57409">
        <ele>908.1</ele>
        <time>2020-06-21T10:41:57Z</time>
      </trkpt>
      <trkpt lat="44.97451" lon="5.57407">
        <ele>908.1</ele>
        <time>2020-06-21T10:41:58Z</time>
      </trkpt>
      <trkpt lat="44.97447" lon="5.57404">
        <ele>908.58</ele>
        <time>2020-06-21T10:41:59Z</time>
      </trkpt>
      <trkpt lat="44.97443" lon="5.57401">
        <ele>908.58</ele>
        <time>2020-06-21T10:42:00Z</time>
      </trkpt>
      <trkpt lat="44.9744" lon="5.57397">
        <ele>908.58</ele>
        <time>2020-06-21T10:42:01Z</time>
      </trkpt>
      <trkpt lat="44.97423" lon="5.57379">
        <ele>909.54</ele>
        <time>2020-06-21T10:42:06Z</time>
      </trkpt>
      <trkpt lat="44.97403" lon="5.57334">
        <ele>910.99</ele>
        <time>2020-06-21T10:42:18Z</time>
      </trkpt>
      <trkpt lat="44.97401" lon="5.57332">
        <ele>910.99</ele>
        <time>2020-06-21T10:42:19Z</time>
      </trkpt>
      <trkpt lat="44.97387" lon="5.57326">
        <ele>909.54</ele>
        <time>2020-06-21T10:42:23Z</time>
      </trkpt>
      <trkpt lat="44.97376" lon="5.57321">
        <ele>907.62</ele>
        <time>2020-06-21T10:42:26Z</time>
      </trkpt>
      <trkpt lat="44.97341" lon="5.57311">
        <ele>905.22</ele>
        <time>2020-06-21T10:42:36Z</time>
      </trkpt>
      <trkpt lat="44.97337" lon="5.57314">
        <ele>904.74</ele>
        <time>2020-06-21T10:42:37Z</time>
      </trkpt>
      <trkpt lat="44.97333" lon="5.57318">
        <ele>903.78</ele>
        <time>2020-06-21T10:42:38Z</time>
      </trkpt>
      <trkpt lat="44.9733" lon="5.57324">
        <ele>903.3</ele>
        <time>2020-06-21T10:42:39Z</time>
      </trkpt>
      <trkpt lat="44.97328" lon="5.57331">
        <ele>902.82</ele>
        <time>2020-06-21T10:42:40Z</time>
      </trkpt>
      <trkpt lat="44.97327" lon="5.57339">
        <ele>902.33</ele>
        <time>2020-06-21T10:42:41Z</time>
      </trkpt>
      <trkpt lat="44.97327" lon="5.57348">
        <ele>901.85</ele>
        <time>2020-06-21T10:42:42Z</time>
      </trkpt>
      <trkpt lat="44.97328" lon="5.57356">
        <ele>901.37</ele>
        <time>2020-06-21T10:42:43Z</time>
      </trkpt>
      <trkpt lat="44.9733" lon="5.57364">
        <ele>900.89</ele>
        <time>2020-06-21T10:42:44Z</time>
      </trkpt>
      <trkpt lat="44.97333" lon="5.57372">
        <ele>899.93</ele>
        <time>2020-06-21T10:42:45Z</time>
      </trkpt>
      <trkpt lat="44.97336" lon="5.5738">
        <ele>898.97</ele>
        <time>2020-06-21T10:42:46Z</time>
      </trkpt>
      <trkpt lat="44.97344" lon="5.57395">
        <ele>898.97</ele>
        <time>2020-06-21T10:42:48Z</time>
      </trkpt>
      <trkpt lat="44.97349" lon="5.57402">
        <ele>897.53</ele>
        <time>2020-06-21T10:42:49Z</time>
      </trkpt>
      <trkpt lat="44.97353" lon="5.5741">
        <ele>897.53</ele>
        <time>2020-06-21T10:42:50Z</time>
      </trkpt>
      <trkpt lat="44.97358" lon="5.57418">
        <ele>897.53</ele>
        <time>2020-06-21T10:42:51Z</time>
      </trkpt>
      <trkpt lat="44.97362" lon="5.57426">
        <ele>897.53</ele>
        <time>2020-06-21T10:42:52Z</time>
      </trkpt>
      <trkpt lat="44.97373" lon="5.57441">
        <ele>896.09</ele>
        <time>2020-06-21T10:42:54Z</time>
      </trkpt>
      <trkpt lat="44.9739" lon="5.57463">
        <ele>892.72</ele>
        <time>2020-06-21T10:42:57Z</time>
      </trkpt>
      <trkpt lat="44.97397" lon="5.5747">
        <ele>892.72</ele>
        <time>2020-06-21T10:42:58Z</time>
      </trkpt>
      <trkpt lat="44.97404" lon="5.57476">
        <ele>892.24</ele>
        <time>2020-06-21T10:42:59Z</time>
      </trkpt>
      <trkpt lat="44.97412" lon="5.5748">
        <ele>891.76</ele>
        <time>2020-06-21T10:43:00Z</time>
      </trkpt>
      <trkpt lat="44.9742" lon="5.57484">
        <ele>891.76</ele>
        <time>2020-06-21T10:43:01Z</time>
      </trkpt>
      <trkpt lat="44.97428" lon="5.57488">
        <ele>891.28</ele>
        <time>2020-06-21T10:43:02Z</time>
      </trkpt>
      <trkpt lat="44.97434" lon="5.57494">
        <ele>891.28</ele>
        <time>2020-06-21T10:43:03Z</time>
      </trkpt>
      <trkpt lat="44.97436" lon="5.57501">
        <ele>891.28</ele>
        <time>2020-06-21T10:43:04Z</time>
      </trkpt>
      <trkpt lat="44.97434" lon="5.57508">
        <ele>890.8</ele>
        <time>2020-06-21T10:43:05Z</time>
      </trkpt>
      <trkpt lat="44.97431" lon="5.57513">
        <ele>891.76</ele>
        <time>2020-06-21T10:43:06Z</time>
      </trkpt>
      <trkpt lat="44.97425" lon="5.57515">
        <ele>891.28</ele>
        <time>2020-06-21T10:43:07Z</time>
      </trkpt>
      <trkpt lat="44.97419" lon="5.57516">
        <ele>890.8</ele>
        <time>2020-06-21T10:43:08Z</time>
      </trkpt>
      <trkpt lat="44.97413" lon="5.57516">
        <ele>889.84</ele>
        <time>2020-06-21T10:43:09Z</time>
      </trkpt>
      <trkpt lat="44.97406" lon="5.57515">
        <ele>889.36</ele>
        <time>2020-06-21T10:43:10Z</time>
      </trkpt>
      <trkpt lat="44.974" lon="5.57515">
        <ele>888.88</ele>
        <time>2020-06-21T10:43:11Z</time>
      </trkpt>
      <trkpt lat="44.97392" lon="5.57516">
        <ele>888.4</ele>
        <time>2020-06-21T10:43:12Z</time>
      </trkpt>
      <trkpt lat="44.97385" lon="5.57518">
        <ele>887.43</ele>
        <time>2020-06-21T10:43:13Z</time>
      </trkpt>
      <trkpt lat="44.97378" lon="5.57522">
        <ele>887.91</ele>
        <time>2020-06-21T10:43:14Z</time>
      </trkpt>
      <trkpt lat="44.97372" lon="5.57526">
        <ele>886.95</ele>
        <time>2020-06-21T10:43:15Z</time>
      </trkpt>
      <trkpt lat="44.97366" lon="5.57531">
        <ele>886.47</ele>
        <time>2020-06-21T10:43:16Z</time>
      </trkpt>
      <trkpt lat="44.9736" lon="5.57536">
        <ele>885.99</ele>
        <time>2020-06-21T10:43:17Z</time>
      </trkpt>
      <trkpt lat="44.97336" lon="5.57559">
        <ele>883.11</ele>
        <time>2020-06-21T10:43:21Z</time>
      </trkpt>
      <trkpt lat="44.97329" lon="5.57563">
        <ele>882.63</ele>
        <time>2020-06-21T10:43:22Z</time>
      </trkpt>
      <trkpt lat="44.97321" lon="5.57564">
        <ele>882.15</ele>
        <time>2020-06-21T10:43:23Z</time>
      </trkpt>
      <trkpt lat="44.97314" lon="5.57562">
        <ele>883.11</ele>
        <time>2020-06-21T10:43:24Z</time>
      </trkpt>
      <trkpt lat="44.97308" lon="5.57558">
        <ele>883.59</ele>
        <time>2020-06-21T10:43:25Z</time>
      </trkpt>
      <trkpt lat="44.97304" lon="5.57554">
        <ele>884.07</ele>
        <time>2020-06-21T10:43:26Z</time>
      </trkpt>
      <trkpt lat="44.97248" lon="5.5749">
        <ele>884.55</ele>
        <time>2020-06-21T10:43:38Z</time>
      </trkpt>
      <trkpt lat="44.97233" lon="5.5747">
        <ele>884.07</ele>
        <time>2020-06-21T10:43:41Z</time>
      </trkpt>
      <trkpt lat="44.97171" lon="5.57402">
        <ele>884.07</ele>
        <time>2020-06-21T10:43:54Z</time>
      </trkpt>
      <trkpt lat="44.97156" lon="5.57389">
        <ele>885.03</ele>
        <time>2020-06-21T10:43:57Z</time>
      </trkpt>
      <trkpt lat="44.97151" lon="5.57386">
        <ele>885.51</ele>
        <time>2020-06-21T10:43:58Z</time>
      </trkpt>
      <trkpt lat="44.97135" lon="5.57375">
        <ele>885.51</ele>
        <time>2020-06-21T10:44:01Z</time>
      </trkpt>
      <trkpt lat="44.97131" lon="5.57369">
        <ele>885.03</ele>
        <time>2020-06-21T10:44:02Z</time>
      </trkpt>
      <trkpt lat="44.97127" lon="5.57363">
        <ele>884.55</ele>
        <time>2020-06-21T10:44:03Z</time>
      </trkpt>
      <trkpt lat="44.97124" lon="5.57356">
        <ele>885.03</ele>
        <time>2020-06-21T10:44:04Z</time>
      </trkpt>
      <trkpt lat="44.97122" lon="5.57349">
        <ele>885.03</ele>
        <time>2020-06-21T10:44:05Z</time>
      </trkpt>
      <trkpt lat="44.97119" lon="5.57342">
        <ele>885.51</ele>
        <time>2020-06-21T10:44:06Z</time>
      </trkpt>
      <trkpt lat="44.97116" lon="5.57335">
        <ele>885.03</ele>
        <time>2020-06-21T10:44:07Z</time>
      </trkpt>
      <trkpt lat="44.97113" lon="5.57329">
        <ele>885.51</ele>
        <time>2020-06-21T10:44:08Z</time>
      </trkpt>
      <trkpt lat="44.97109" lon="5.57323">
        <ele>885.99</ele>
        <time>2020-06-21T10:44:09Z</time>
      </trkpt>
      <trkpt lat="44.97105" lon="5.57318">
        <ele>885.51</ele>
        <time>2020-06-21T10:44:10Z</time>
      </trkpt>
      <trkpt lat="44.971" lon="5.57313">
        <ele>885.51</ele>
        <time>2020-06-21T10:44:11Z</time>
      </trkpt>
      <trkpt lat="44.97095" lon="5.57308">
        <ele>885.51</ele>
        <time>2020-06-21T10:44:12Z</time>
      </trkpt>
      <trkpt lat="44.97089" lon="5.57305">
        <ele>885.51</ele>
        <time>2020-06-21T10:44:13Z</time>
      </trkpt>
      <trkpt lat="44.97083" lon="5.57301">
        <ele>885.51</ele>
        <time>2020-06-21T10:44:14Z</time>
      </trkpt>
      <trkpt lat="44.97078" lon="5.57298">
        <ele>885.99</ele>
        <time>2020-06-21T10:44:15Z</time>
      </trkpt>
      <trkpt lat="44.97072" lon="5.57294">
        <ele>885.51</ele>
        <time>2020-06-21T10:44:16Z</time>
      </trkpt>
      <trkpt lat="44.97056" lon="5.57283">
        <ele>885.51</ele>
        <time>2020-06-21T10:44:19Z</time>
      </trkpt>
      <trkpt lat="44.97051" lon="5.57278">
        <ele>885.99</ele>
        <time>2020-06-21T10:44:20Z</time>
      </trkpt>
      <trkpt lat="44.97047" lon="5.57274">
        <ele>885.03</ele>
        <time>2020-06-21T10:44:21Z</time>
      </trkpt>
      <trkpt lat="44.97037" lon="5.57265">
        <ele>885.51</ele>
        <time>2020-06-21T10:44:23Z</time>
      </trkpt>
      <trkpt lat="44.97032" lon="5.57262">
        <ele>885.51</ele>
        <time>2020-06-21T10:44:24Z</time>
      </trkpt>
      <trkpt lat="44.97027" lon="5.5726">
        <ele>885.51</ele>
        <time>2020-06-21T10:44:25Z</time>
      </trkpt>
      <trkpt lat="44.97023" lon="5.57258">
        <ele>885.51</ele>
        <time>2020-06-21T10:44:26Z</time>
      </trkpt>
      <trkpt lat="44.97018" lon="5.57258">
        <ele>885.51</ele>
        <time>2020-06-21T10:44:27Z</time>
      </trkpt>
      <trkpt lat="44.97013" lon="5.57257">
        <ele>885.51</ele>
        <time>2020-06-21T10:44:28Z</time>
      </trkpt>
      <trkpt lat="44.97008" lon="5.57258">
        <ele>885.03</ele>
        <time>2020-06-21T10:44:29Z</time>
      </trkpt>
      <trkpt lat="44.97002" lon="5.57258">
        <ele>885.51</ele>
        <time>2020-06-21T10:44:30Z</time>
      </trkpt>
      <trkpt lat="44.96997" lon="5.57257">
        <ele>885.51</ele>
        <time>2020-06-21T10:44:31Z</time>
      </trkpt>
      <trkpt lat="44.96992" lon="5.57256">
        <ele>885.51</ele>
        <time>2020-06-21T10:44:32Z</time>
      </trkpt>
      <trkpt lat="44.96986" lon="5.57254">
        <ele>885.51</ele>
        <time>2020-06-21T10:44:33Z</time>
      </trkpt>
      <trkpt lat="44.96982" lon="5.57252">
        <ele>885.99</ele>
        <time>2020-06-21T10:44:34Z</time>
      </trkpt>
      <trkpt lat="44.96977" lon="5.57249">
        <ele>885.99</ele>
        <time>2020-06-21T10:44:35Z</time>
      </trkpt>
      <trkpt lat="44.96972" lon="5.57245">
        <ele>885.51</ele>
        <time>2020-06-21T10:44:36Z</time>
      </trkpt>
      <trkpt lat="44.9696" lon="5.57232">
        <ele>885.51</ele>
        <time>2020-06-21T10:44:39Z</time>
      </trkpt>
      <trkpt lat="44.96956" lon="5.57227">
        <ele>885.99</ele>
        <time>2020-06-21T10:44:40Z</time>
      </trkpt>
      <trkpt lat="44.96953" lon="5.57222">
        <ele>886.47</ele>
        <time>2020-06-21T10:44:41Z</time>
      </trkpt>
      <trkpt lat="44.9695" lon="5.57216">
        <ele>885.99</ele>
        <time>2020-06-21T10:44:42Z</time>
      </trkpt>
      <trkpt lat="44.96947" lon="5.5721">
        <ele>885.99</ele>
        <time>2020-06-21T10:44:43Z</time>
      </trkpt>
      <trkpt lat="44.96945" lon="5.57204">
        <ele>885.99</ele>
        <time>2020-06-21T10:44:44Z</time>
      </trkpt>
      <trkpt lat="44.96942" lon="5.57197">
        <ele>885.51</ele>
        <time>2020-06-21T10:44:45Z</time>
      </trkpt>
      <trkpt lat="44.96932" lon="5.57175">
        <ele>885.99</ele>
        <time>2020-06-21T10:44:49Z</time>
      </trkpt>
      <trkpt lat="44.96925" lon="5.57165">
        <ele>885.99</ele>
        <time>2020-06-21T10:44:51Z</time>
      </trkpt>
      <trkpt lat="44.96922" lon="5.57162">
        <ele>885.51</ele>
        <time>2020-06-21T10:44:52Z</time>
      </trkpt>
      <trkpt lat="44.96914" lon="5.57155">
        <ele>885.99</ele>
        <time>2020-06-21T10:44:54Z</time>
      </trkpt>
      <trkpt lat="44.9691" lon="5.57152">
        <ele>885.99</ele>
        <time>2020-06-21T10:44:55Z</time>
      </trkpt>
      <trkpt lat="44.96872" lon="5.57137">
        <ele>886.47</ele>
        <time>2020-06-21T10:45:04Z</time>
      </trkpt>
      <trkpt lat="44.96841" lon="5.57115">
        <ele>886.47</ele>
        <time>2020-06-21T10:45:12Z</time>
      </trkpt>
      <trkpt lat="44.96837" lon="5.57112">
        <ele>886.47</ele>
        <time>2020-06-21T10:45:13Z</time>
      </trkpt>
      <trkpt lat="44.96826" lon="5.57104">
        <ele>886.47</ele>
        <time>2020-06-21T10:45:16Z</time>
      </trkpt>
      <trkpt lat="44.96759" lon="5.5708">
        <ele>886.95</ele>
        <time>2020-06-21T10:45:33Z</time>
      </trkpt>
      <trkpt lat="44.96721" lon="5.57077">
        <ele>886.95</ele>
        <time>2020-06-21T10:45:43Z</time>
      </trkpt>
      <trkpt lat="44.96717" lon="5.57077">
        <ele>886.95</ele>
        <time>2020-06-21T10:45:44Z</time>
      </trkpt>
      <trkpt lat="44.96652" lon="5.57082">
        <ele>885.51</ele>
        <time>2020-06-21T10:45:58Z</time>
      </trkpt>
      <trkpt lat="44.96634" lon="5.57086">
        <ele>885.51</ele>
        <time>2020-06-21T10:46:02Z</time>
      </trkpt>
      <trkpt lat="44.96612" lon="5.57087">
        <ele>885.03</ele>
        <time>2020-06-21T10:46:06Z</time>
      </trkpt>
      <trkpt lat="44.96548" lon="5.57082">
        <ele>885.51</ele>
        <time>2020-06-21T10:46:18Z</time>
      </trkpt>
      <trkpt lat="44.96533" lon="5.57079">
        <ele>885.51</ele>
        <time>2020-06-21T10:46:21Z</time>
      </trkpt>
      <trkpt lat="44.96528" lon="5.57077">
        <ele>885.51</ele>
        <time>2020-06-21T10:46:22Z</time>
      </trkpt>
      <trkpt lat="44.96508" lon="5.57071">
        <ele>885.51</ele>
        <time>2020-06-21T10:46:26Z</time>
      </trkpt>
      <trkpt lat="44.96503" lon="5.57069">
        <ele>885.51</ele>
        <time>2020-06-21T10:46:27Z</time>
      </trkpt>
      <trkpt lat="44.96424" lon="5.57041">
        <ele>886.47</ele>
        <time>2020-06-21T10:46:43Z</time>
      </trkpt>
      <trkpt lat="44.96353" lon="5.57014">
        <ele>886.95</ele>
        <time>2020-06-21T10:46:58Z</time>
      </trkpt>
      <trkpt lat="44.96348" lon="5.57015">
        <ele>886.95</ele>
        <time>2020-06-21T10:46:59Z</time>
      </trkpt>
      <trkpt lat="44.96278" lon="5.57048">
        <ele>884.07</ele>
        <time>2020-06-21T10:47:13Z</time>
      </trkpt>
      <trkpt lat="44.96207" lon="5.57065">
        <ele>882.15</ele>
        <time>2020-06-21T10:47:25Z</time>
      </trkpt>
      <trkpt lat="44.96188" lon="5.57063">
        <ele>880.71</ele>
        <time>2020-06-21T10:47:33Z</time>
      </trkpt>
      <trkpt lat="44.96185" lon="5.57063">
        <ele>881.19</ele>
        <time>2020-06-21T10:47:43Z</time>
      </trkpt>
      <trkpt lat="44.96188" lon="5.57061">
        <ele>880.22</ele>
        <time>2020-06-21T10:48:19Z</time>
      </trkpt>
      <trkpt lat="44.96188" lon="5.57062">
        <ele>880.71</ele>
        <time>2020-06-21T10:48:55Z</time>
      </trkpt>
      <trkpt lat="44.96185" lon="5.57062">
        <ele>880.22</ele>
        <time>2020-06-21T10:49:24Z</time>
      </trkpt>
      <trkpt lat="44.96184" lon="5.5706">
        <ele>880.22</ele>
        <time>2020-06-21T10:50:00Z</time>
      </trkpt>
      <trkpt lat="44.96183" lon="5.5706">
        <ele>880.22</ele>
        <time>2020-06-21T10:50:38Z</time>
      </trkpt>
      <trkpt lat="44.96182" lon="5.5706">
        <ele>879.74</ele>
        <time>2020-06-21T10:51:15Z</time>
      </trkpt>
      <trkpt lat="44.96183" lon="5.57059">
        <ele>880.22</ele>
        <time>2020-06-21T10:51:51Z</time>
      </trkpt>
      <trkpt lat="44.96183" lon="5.57058">
        <ele>880.22</ele>
        <time>2020-06-21T10:52:23Z</time>
      </trkpt>
      <trkpt lat="44.96183" lon="5.57059">
        <ele>880.71</ele>
        <time>2020-06-21T10:52:55Z</time>
      </trkpt>
      <trkpt lat="44.96185" lon="5.57059">
        <ele>881.19</ele>
        <time>2020-06-21T10:53:30Z</time>
      </trkpt>
      <trkpt lat="44.96185" lon="5.57058">
        <ele>880.71</ele>
        <time>2020-06-21T10:54:05Z</time>
      </trkpt>
      <trkpt lat="44.96184" lon="5.57058">
        <ele>881.19</ele>
        <time>2020-06-21T10:54:37Z</time>
      </trkpt>
      <trkpt lat="44.96186" lon="5.57059">
        <ele>882.15</ele>
        <time>2020-06-21T10:54:42Z</time>
      </trkpt>
      <trkpt lat="44.96187" lon="5.57064">
        <ele>882.15</ele>
        <time>2020-06-21T10:54:54Z</time>
      </trkpt>
      <trkpt lat="44.96186" lon="5.57071">
        <ele>882.15</ele>
        <time>2020-06-21T10:55:05Z</time>
      </trkpt>
      <trkpt lat="44.96185" lon="5.57073">
        <ele>881.67</ele>
        <time>2020-06-21T10:55:09Z</time>
      </trkpt>
      <trkpt lat="44.96183" lon="5.57075">
        <ele>881.67</ele>
        <time>2020-06-21T10:55:10Z</time>
      </trkpt>
      <trkpt lat="44.96181" lon="5.57076">
        <ele>881.67</ele>
        <time>2020-06-21T10:55:11Z</time>
      </trkpt>
      <trkpt lat="44.96179" lon="5.57077">
        <ele>881.67</ele>
        <time>2020-06-21T10:55:12Z</time>
      </trkpt>
      <trkpt lat="44.96176" lon="5.57079">
        <ele>880.71</ele>
        <time>2020-06-21T10:55:13Z</time>
      </trkpt>
      <trkpt lat="44.96173" lon="5.57082">
        <ele>881.19</ele>
        <time>2020-06-21T10:55:14Z</time>
      </trkpt>
      <trkpt lat="44.9617" lon="5.57085">
        <ele>880.22</ele>
        <time>2020-06-21T10:55:15Z</time>
      </trkpt>
      <trkpt lat="44.96166" lon="5.5709">
        <ele>880.22</ele>
        <time>2020-06-21T10:55:16Z</time>
      </trkpt>
      <trkpt lat="44.96159" lon="5.57098">
        <ele>879.26</ele>
        <time>2020-06-21T10:55:18Z</time>
      </trkpt>
      <trkpt lat="44.96148" lon="5.57105">
        <ele>878.3</ele>
        <time>2020-06-21T10:55:20Z</time>
      </trkpt>
      <trkpt lat="44.96142" lon="5.57107">
        <ele>877.82</ele>
        <time>2020-06-21T10:55:21Z</time>
      </trkpt>
      <trkpt lat="44.96136" lon="5.57109">
        <ele>877.34</ele>
        <time>2020-06-21T10:55:22Z</time>
      </trkpt>
      <trkpt lat="44.96115" lon="5.57115">
        <ele>875.9</ele>
        <time>2020-06-21T10:55:25Z</time>
      </trkpt>
      <trkpt lat="44.96108" lon="5.57118">
        <ele>876.38</ele>
        <time>2020-06-21T10:55:26Z</time>
      </trkpt>
      <trkpt lat="44.96103" lon="5.57125">
        <ele>874.94</ele>
        <time>2020-06-21T10:55:27Z</time>
      </trkpt>
      <trkpt lat="44.96099" lon="5.57134">
        <ele>873.98</ele>
        <time>2020-06-21T10:55:28Z</time>
      </trkpt>
      <trkpt lat="44.96096" lon="5.57144">
        <ele>872.53</ele>
        <time>2020-06-21T10:55:29Z</time>
      </trkpt>
      <trkpt lat="44.96094" lon="5.57155">
        <ele>871.57</ele>
        <time>2020-06-21T10:55:30Z</time>
      </trkpt>
      <trkpt lat="44.96092" lon="5.57167">
        <ele>871.09</ele>
        <time>2020-06-21T10:55:31Z</time>
      </trkpt>
      <trkpt lat="44.96087" lon="5.57178">
        <ele>870.61</ele>
        <time>2020-06-21T10:55:32Z</time>
      </trkpt>
      <trkpt lat="44.9608" lon="5.57188">
        <ele>869.17</ele>
        <time>2020-06-21T10:55:33Z</time>
      </trkpt>
      <trkpt lat="44.96057" lon="5.57217">
        <ele>865.8</ele>
        <time>2020-06-21T10:55:36Z</time>
      </trkpt>
      <trkpt lat="44.96034" lon="5.57253">
        <ele>861.48</ele>
        <time>2020-06-21T10:55:39Z</time>
      </trkpt>
      <trkpt lat="44.96027" lon="5.57263">
        <ele>861.48</ele>
        <time>2020-06-21T10:55:40Z</time>
      </trkpt>
      <trkpt lat="44.96" lon="5.57299">
        <ele>857.63</ele>
        <time>2020-06-21T10:55:44Z</time>
      </trkpt>
      <trkpt lat="44.95989" lon="5.57316">
        <ele>857.15</ele>
        <time>2020-06-21T10:55:46Z</time>
      </trkpt>
      <trkpt lat="44.95974" lon="5.57334">
        <ele>855.71</ele>
        <time>2020-06-21T10:55:49Z</time>
      </trkpt>
      <trkpt lat="44.95969" lon="5.5734">
        <ele>854.75</ele>
        <time>2020-06-21T10:55:50Z</time>
      </trkpt>
      <trkpt lat="44.9596" lon="5.57355">
        <ele>853.31</ele>
        <time>2020-06-21T10:55:52Z</time>
      </trkpt>
      <trkpt lat="44.95946" lon="5.5737">
        <ele>850.42</ele>
        <time>2020-06-21T10:55:54Z</time>
      </trkpt>
      <trkpt lat="44.95923" lon="5.57393">
        <ele>846.1</ele>
        <time>2020-06-21T10:55:57Z</time>
      </trkpt>
      <trkpt lat="44.95916" lon="5.574">
        <ele>846.1</ele>
        <time>2020-06-21T10:55:58Z</time>
      </trkpt>
      <trkpt lat="44.95897" lon="5.57416">
        <ele>843.21</ele>
        <time>2020-06-21T10:56:01Z</time>
      </trkpt>
      <trkpt lat="44.95858" lon="5.57452">
        <ele>839.85</ele>
        <time>2020-06-21T10:56:07Z</time>
      </trkpt>
      <trkpt lat="44.95853" lon="5.5746">
        <ele>838.41</ele>
        <time>2020-06-21T10:56:08Z</time>
      </trkpt>
      <trkpt lat="44.95849" lon="5.57469">
        <ele>837.93</ele>
        <time>2020-06-21T10:56:09Z</time>
      </trkpt>
      <trkpt lat="44.95848" lon="5.57478">
        <ele>836.96</ele>
        <time>2020-06-21T10:56:10Z</time>
      </trkpt>
      <trkpt lat="44.95849" lon="5.57488">
        <ele>835.52</ele>
        <time>2020-06-21T10:56:11Z</time>
      </trkpt>
      <trkpt lat="44.95852" lon="5.57495">
        <ele>833.6</ele>
        <time>2020-06-21T10:56:12Z</time>
      </trkpt>
      <trkpt lat="44.95858" lon="5.575">
        <ele>832.64</ele>
        <time>2020-06-21T10:56:13Z</time>
      </trkpt>
      <trkpt lat="44.95864" lon="5.57506">
        <ele>831.68</ele>
        <time>2020-06-21T10:56:14Z</time>
      </trkpt>
      <trkpt lat="44.9587" lon="5.57516">
        <ele>830.24</ele>
        <time>2020-06-21T10:56:15Z</time>
      </trkpt>
      <trkpt lat="44.95874" lon="5.57527">
        <ele>830.24</ele>
        <time>2020-06-21T10:56:16Z</time>
      </trkpt>
      <trkpt lat="44.95878" lon="5.57538">
        <ele>829.27</ele>
        <time>2020-06-21T10:56:17Z</time>
      </trkpt>
      <trkpt lat="44.95883" lon="5.5755">
        <ele>826.87</ele>
        <time>2020-06-21T10:56:18Z</time>
      </trkpt>
      <trkpt lat="44.95888" lon="5.57563">
        <ele>826.87</ele>
        <time>2020-06-21T10:56:19Z</time>
      </trkpt>
      <trkpt lat="44.95893" lon="5.57574">
        <ele>825.43</ele>
        <time>2020-06-21T10:56:20Z</time>
      </trkpt>
      <trkpt lat="44.95905" lon="5.57599">
        <ele>822.55</ele>
        <time>2020-06-21T10:56:22Z</time>
      </trkpt>
      <trkpt lat="44.9591" lon="5.57613">
        <ele>821.58</ele>
        <time>2020-06-21T10:56:23Z</time>
      </trkpt>
      <trkpt lat="44.95914" lon="5.57629">
        <ele>819.66</ele>
        <time>2020-06-21T10:56:24Z</time>
      </trkpt>
      <trkpt lat="44.95916" lon="5.57645">
        <ele>819.18</ele>
        <time>2020-06-21T10:56:25Z</time>
      </trkpt>
      <trkpt lat="44.95918" lon="5.57662">
        <ele>817.74</ele>
        <time>2020-06-21T10:56:26Z</time>
      </trkpt>
      <trkpt lat="44.95922" lon="5.57698">
        <ele>814.37</ele>
        <time>2020-06-21T10:56:28Z</time>
      </trkpt>
      <trkpt lat="44.95925" lon="5.57734">
        <ele>811.01</ele>
        <time>2020-06-21T10:56:30Z</time>
      </trkpt>
      <trkpt lat="44.95931" lon="5.57809">
        <ele>806.2</ele>
        <time>2020-06-21T10:56:34Z</time>
      </trkpt>
      <trkpt lat="44.95934" lon="5.57848">
        <ele>802.84</ele>
        <time>2020-06-21T10:56:36Z</time>
      </trkpt>
      <trkpt lat="44.9594" lon="5.57887">
        <ele>799.47</ele>
        <time>2020-06-21T10:56:38Z</time>
      </trkpt>
      <trkpt lat="44.95944" lon="5.57927">
        <ele>797.55</ele>
        <time>2020-06-21T10:56:40Z</time>
      </trkpt>
      <trkpt lat="44.95946" lon="5.57966">
        <ele>793.71</ele>
        <time>2020-06-21T10:56:42Z</time>
      </trkpt>
      <trkpt lat="44.95947" lon="5.58005">
        <ele>790.34</ele>
        <time>2020-06-21T10:56:44Z</time>
      </trkpt>
      <trkpt lat="44.95948" lon="5.58044">
        <ele>786.5</ele>
        <time>2020-06-21T10:56:46Z</time>
      </trkpt>
      <trkpt lat="44.95948" lon="5.58082">
        <ele>784.57</ele>
        <time>2020-06-21T10:56:48Z</time>
      </trkpt>
      <trkpt lat="44.95946" lon="5.58099">
        <ele>782.65</ele>
        <time>2020-06-21T10:56:49Z</time>
      </trkpt>
      <trkpt lat="44.95944" lon="5.58115">
        <ele>783.13</ele>
        <time>2020-06-21T10:56:50Z</time>
      </trkpt>
      <trkpt lat="44.95944" lon="5.58128">
        <ele>784.09</ele>
        <time>2020-06-21T10:56:51Z</time>
      </trkpt>
      <trkpt lat="44.95947" lon="5.58139">
        <ele>783.13</ele>
        <time>2020-06-21T10:56:52Z</time>
      </trkpt>
      <trkpt lat="44.95951" lon="5.58147">
        <ele>781.69</ele>
        <time>2020-06-21T10:56:53Z</time>
      </trkpt>
      <trkpt lat="44.95957" lon="5.58154">
        <ele>780.25</ele>
        <time>2020-06-21T10:56:54Z</time>
      </trkpt>
      <trkpt lat="44.95965" lon="5.58159">
        <ele>779.77</ele>
        <time>2020-06-21T10:56:55Z</time>
      </trkpt>
      <trkpt lat="44.95974" lon="5.58166">
        <ele>780.25</ele>
        <time>2020-06-21T10:56:56Z</time>
      </trkpt>
      <trkpt lat="44.95981" lon="5.58177">
        <ele>777.36</ele>
        <time>2020-06-21T10:56:57Z</time>
      </trkpt>
      <trkpt lat="44.95985" lon="5.58189">
        <ele>776.4</ele>
        <time>2020-06-21T10:56:58Z</time>
      </trkpt>
      <trkpt lat="44.95994" lon="5.58213">
        <ele>773.52</ele>
        <time>2020-06-21T10:57:00Z</time>
      </trkpt>
      <trkpt lat="44.95999" lon="5.58225">
        <ele>771.6</ele>
        <time>2020-06-21T10:57:01Z</time>
      </trkpt>
      <trkpt lat="44.96002" lon="5.58237">
        <ele>771.6</ele>
        <time>2020-06-21T10:57:02Z</time>
      </trkpt>
      <trkpt lat="44.96004" lon="5.5825">
        <ele>769.19</ele>
        <time>2020-06-21T10:57:03Z</time>
      </trkpt>
      <trkpt lat="44.96008" lon="5.58261">
        <ele>768.23</ele>
        <time>2020-06-21T10:57:04Z</time>
      </trkpt>
      <trkpt lat="44.96013" lon="5.58269">
        <ele>768.71</ele>
        <time>2020-06-21T10:57:05Z</time>
      </trkpt>
      <trkpt lat="44.96021" lon="5.58276">
        <ele>766.79</ele>
        <time>2020-06-21T10:57:06Z</time>
      </trkpt>
      <trkpt lat="44.9603" lon="5.58282">
        <ele>765.35</ele>
        <time>2020-06-21T10:57:07Z</time>
      </trkpt>
      <trkpt lat="44.96039" lon="5.58287">
        <ele>764.87</ele>
        <time>2020-06-21T10:57:08Z</time>
      </trkpt>
      <trkpt lat="44.96049" lon="5.58293">
        <ele>763.9</ele>
        <time>2020-06-21T10:57:09Z</time>
      </trkpt>
      <trkpt lat="44.9606" lon="5.58297">
        <ele>762.46</ele>
        <time>2020-06-21T10:57:10Z</time>
      </trkpt>
      <trkpt lat="44.9607" lon="5.583">
        <ele>761.02</ele>
        <time>2020-06-21T10:57:11Z</time>
      </trkpt>
      <trkpt lat="44.96081" lon="5.58306">
        <ele>761.02</ele>
        <time>2020-06-21T10:57:12Z</time>
      </trkpt>
      <trkpt lat="44.96091" lon="5.58315">
        <ele>759.1</ele>
        <time>2020-06-21T10:57:13Z</time>
      </trkpt>
      <trkpt lat="44.96099" lon="5.58328">
        <ele>758.14</ele>
        <time>2020-06-21T10:57:14Z</time>
      </trkpt>
      <trkpt lat="44.96106" lon="5.58343">
        <ele>756.21</ele>
        <time>2020-06-21T10:57:15Z</time>
      </trkpt>
      <trkpt lat="44.96112" lon="5.58358">
        <ele>755.25</ele>
        <time>2020-06-21T10:57:16Z</time>
      </trkpt>
      <trkpt lat="44.96116" lon="5.58376">
        <ele>754.29</ele>
        <time>2020-06-21T10:57:17Z</time>
      </trkpt>
      <trkpt lat="44.96119" lon="5.58394">
        <ele>752.37</ele>
        <time>2020-06-21T10:57:18Z</time>
      </trkpt>
      <trkpt lat="44.96129" lon="5.58443">
        <ele>748.04</ele>
        <time>2020-06-21T10:57:21Z</time>
      </trkpt>
      <trkpt lat="44.96135" lon="5.58455">
        <ele>747.56</ele>
        <time>2020-06-21T10:57:22Z</time>
      </trkpt>
      <trkpt lat="44.96141" lon="5.58466">
        <ele>746.12</ele>
        <time>2020-06-21T10:57:23Z</time>
      </trkpt>
      <trkpt lat="44.96146" lon="5.58477">
        <ele>746.12</ele>
        <time>2020-06-21T10:57:24Z</time>
      </trkpt>
      <trkpt lat="44.96149" lon="5.5849">
        <ele>744.2</ele>
        <time>2020-06-21T10:57:25Z</time>
      </trkpt>
      <trkpt lat="44.96149" lon="5.58502">
        <ele>744.2</ele>
        <time>2020-06-21T10:57:26Z</time>
      </trkpt>
      <trkpt lat="44.96149" lon="5.58515">
        <ele>744.2</ele>
        <time>2020-06-21T10:57:27Z</time>
      </trkpt>
      <trkpt lat="44.96148" lon="5.58528">
        <ele>743.72</ele>
        <time>2020-06-21T10:57:28Z</time>
      </trkpt>
      <trkpt lat="44.96149" lon="5.58538">
        <ele>743.24</ele>
        <time>2020-06-21T10:57:29Z</time>
      </trkpt>
      <trkpt lat="44.96152" lon="5.58547">
        <ele>742.28</ele>
        <time>2020-06-21T10:57:30Z</time>
      </trkpt>
      <trkpt lat="44.96158" lon="5.58556">
        <ele>741.79</ele>
        <time>2020-06-21T10:57:31Z</time>
      </trkpt>
      <trkpt lat="44.96165" lon="5.58565">
        <ele>739.87</ele>
        <time>2020-06-21T10:57:32Z</time>
      </trkpt>
      <trkpt lat="44.96178" lon="5.58585">
        <ele>736.99</ele>
        <time>2020-06-21T10:57:34Z</time>
      </trkpt>
      <trkpt lat="44.96183" lon="5.58597">
        <ele>738.43</ele>
        <time>2020-06-21T10:57:35Z</time>
      </trkpt>
      <trkpt lat="44.96185" lon="5.5861">
        <ele>736.03</ele>
        <time>2020-06-21T10:57:36Z</time>
      </trkpt>
      <trkpt lat="44.96187" lon="5.58623">
        <ele>733.62</ele>
        <time>2020-06-21T10:57:37Z</time>
      </trkpt>
      <trkpt lat="44.9619" lon="5.58636">
        <ele>731.7</ele>
        <time>2020-06-21T10:57:38Z</time>
      </trkpt>
      <trkpt lat="44.96194" lon="5.58649">
        <ele>729.78</ele>
        <time>2020-06-21T10:57:39Z</time>
      </trkpt>
      <trkpt lat="44.96199" lon="5.58663">
        <ele>729.78</ele>
        <time>2020-06-21T10:57:40Z</time>
      </trkpt>
      <trkpt lat="44.96211" lon="5.58692">
        <ele>727.37</ele>
        <time>2020-06-21T10:57:42Z</time>
      </trkpt>
      <trkpt lat="44.96216" lon="5.58708">
        <ele>726.89</ele>
        <time>2020-06-21T10:57:43Z</time>
      </trkpt>
      <trkpt lat="44.9623" lon="5.58755">
        <ele>723.05</ele>
        <time>2020-06-21T10:57:46Z</time>
      </trkpt>
      <trkpt lat="44.96237" lon="5.58788">
        <ele>721.61</ele>
        <time>2020-06-21T10:57:48Z</time>
      </trkpt>
      <trkpt lat="44.96238" lon="5.58805">
        <ele>719.68</ele>
        <time>2020-06-21T10:57:49Z</time>
      </trkpt>
      <trkpt lat="44.96243" lon="5.58874">
        <ele>716.32</ele>
        <time>2020-06-21T10:57:53Z</time>
      </trkpt>
      <trkpt lat="44.96245" lon="5.58889">
        <ele>717.28</ele>
        <time>2020-06-21T10:57:54Z</time>
      </trkpt>
      <trkpt lat="44.96248" lon="5.58899">
        <ele>717.76</ele>
        <time>2020-06-21T10:57:55Z</time>
      </trkpt>
      <trkpt lat="44.96247" lon="5.58906">
        <ele>718.24</ele>
        <time>2020-06-21T10:57:56Z</time>
      </trkpt>
      <trkpt lat="44.96245" lon="5.58909">
        <ele>718.24</ele>
        <time>2020-06-21T10:57:57Z</time>
      </trkpt>
      <trkpt lat="44.96241" lon="5.58908">
        <ele>717.28</ele>
        <time>2020-06-21T10:57:58Z</time>
      </trkpt>
      <trkpt lat="44.96239" lon="5.58904">
        <ele>716.8</ele>
        <time>2020-06-21T10:57:59Z</time>
      </trkpt>
      <trkpt lat="44.96237" lon="5.589">
        <ele>716.8</ele>
        <time>2020-06-21T10:58:00Z</time>
      </trkpt>
      <trkpt lat="44.96235" lon="5.58897">
        <ele>716.32</ele>
        <time>2020-06-21T10:58:01Z</time>
      </trkpt>
      <trkpt lat="44.96233" lon="5.58892">
        <ele>715.84</ele>
        <time>2020-06-21T10:58:02Z</time>
      </trkpt>
      <trkpt lat="44.96232" lon="5.58887">
        <ele>715.36</ele>
        <time>2020-06-21T10:58:03Z</time>
      </trkpt>
      <trkpt lat="44.96228" lon="5.58875">
        <ele>713.44</ele>
        <time>2020-06-21T10:58:05Z</time>
      </trkpt>
      <trkpt lat="44.96225" lon="5.5887">
        <ele>712.95</ele>
        <time>2020-06-21T10:58:06Z</time>
      </trkpt>
      <trkpt lat="44.96214" lon="5.5884">
        <ele>711.03</ele>
        <time>2020-06-21T10:58:10Z</time>
      </trkpt>
      <trkpt lat="44.9621" lon="5.58832">
        <ele>709.59</ele>
        <time>2020-06-21T10:58:11Z</time>
      </trkpt>
      <trkpt lat="44.96207" lon="5.58822">
        <ele>708.63</ele>
        <time>2020-06-21T10:58:12Z</time>
      </trkpt>
      <trkpt lat="44.96204" lon="5.58812">
        <ele>707.67</ele>
        <time>2020-06-21T10:58:13Z</time>
      </trkpt>
      <trkpt lat="44.96202" lon="5.58801">
        <ele>705.75</ele>
        <time>2020-06-21T10:58:14Z</time>
      </trkpt>
      <trkpt lat="44.96191" lon="5.58766">
        <ele>701.9</ele>
        <time>2020-06-21T10:58:17Z</time>
      </trkpt>
      <trkpt lat="44.96185" lon="5.58754">
        <ele>701.42</ele>
        <time>2020-06-21T10:58:18Z</time>
      </trkpt>
      <trkpt lat="44.96164" lon="5.58721">
        <ele>697.09</ele>
        <time>2020-06-21T10:58:21Z</time>
      </trkpt>
      <trkpt lat="44.96157" lon="5.58709">
        <ele>696.13</ele>
        <time>2020-06-21T10:58:22Z</time>
      </trkpt>
      <trkpt lat="44.96151" lon="5.58696">
        <ele>695.17</ele>
        <time>2020-06-21T10:58:23Z</time>
      </trkpt>
      <trkpt lat="44.9614" lon="5.58661">
        <ele>694.69</ele>
        <time>2020-06-21T10:58:26Z</time>
      </trkpt>
      <trkpt lat="44.96138" lon="5.58652">
        <ele>692.77</ele>
        <time>2020-06-21T10:58:27Z</time>
      </trkpt>
      <trkpt lat="44.96128" lon="5.58606">
        <ele>689.4</ele>
        <time>2020-06-21T10:58:32Z</time>
      </trkpt>
      <trkpt lat="44.96123" lon="5.58599">
        <ele>689.4</ele>
        <time>2020-06-21T10:58:33Z</time>
      </trkpt>
      <trkpt lat="44.96118" lon="5.58596">
        <ele>689.4</ele>
        <time>2020-06-21T10:58:34Z</time>
      </trkpt>
      <trkpt lat="44.96113" lon="5.58596">
        <ele>688.92</ele>
        <time>2020-06-21T10:58:35Z</time>
      </trkpt>
      <trkpt lat="44.96111" lon="5.58599">
        <ele>687.96</ele>
        <time>2020-06-21T10:58:36Z</time>
      </trkpt>
      <trkpt lat="44.96115" lon="5.58625">
        <ele>686.04</ele>
        <time>2020-06-21T10:58:38Z</time>
      </trkpt>
      <trkpt lat="44.96117" lon="5.58637">
        <ele>685.56</ele>
        <time>2020-06-21T10:58:39Z</time>
      </trkpt>
      <trkpt lat="44.96119" lon="5.58649">
        <ele>685.08</ele>
        <time>2020-06-21T10:58:40Z</time>
      </trkpt>
      <trkpt lat="44.96119" lon="5.58661">
        <ele>685.08</ele>
        <time>2020-06-21T10:58:41Z</time>
      </trkpt>
      <trkpt lat="44.9612" lon="5.58699">
        <ele>682.19</ele>
        <time>2020-06-21T10:58:44Z</time>
      </trkpt>
      <trkpt lat="44.96122" lon="5.5874">
        <ele>678.83</ele>
        <time>2020-06-21T10:58:47Z</time>
      </trkpt>
      <trkpt lat="44.96125" lon="5.58753">
        <ele>678.35</ele>
        <time>2020-06-21T10:58:48Z</time>
      </trkpt>
      <trkpt lat="44.96133" lon="5.58782">
        <ele>675.94</ele>
        <time>2020-06-21T10:58:50Z</time>
      </trkpt>
      <trkpt lat="44.96135" lon="5.58797">
        <ele>674.02</ele>
        <time>2020-06-21T10:58:51Z</time>
      </trkpt>
      <trkpt lat="44.96136" lon="5.5881">
        <ele>675.46</ele>
        <time>2020-06-21T10:58:52Z</time>
      </trkpt>
      <trkpt lat="44.96137" lon="5.58834">
        <ele>674.02</ele>
        <time>2020-06-21T10:58:54Z</time>
      </trkpt>
      <trkpt lat="44.96136" lon="5.58843">
        <ele>673.54</ele>
        <time>2020-06-21T10:58:55Z</time>
      </trkpt>
      <trkpt lat="44.96134" lon="5.5885">
        <ele>673.06</ele>
        <time>2020-06-21T10:58:56Z</time>
      </trkpt>
      <trkpt lat="44.96132" lon="5.58852">
        <ele>672.58</ele>
        <time>2020-06-21T10:58:57Z</time>
      </trkpt>
      <trkpt lat="44.96128" lon="5.58852">
        <ele>671.14</ele>
        <time>2020-06-21T10:58:58Z</time>
      </trkpt>
      <trkpt lat="44.96124" lon="5.5885">
        <ele>668.73</ele>
        <time>2020-06-21T10:58:59Z</time>
      </trkpt>
      <trkpt lat="44.96122" lon="5.58845">
        <ele>668.25</ele>
        <time>2020-06-21T10:59:00Z</time>
      </trkpt>
      <trkpt lat="44.96121" lon="5.58838">
        <ele>667.77</ele>
        <time>2020-06-21T10:59:01Z</time>
      </trkpt>
      <trkpt lat="44.96122" lon="5.5883">
        <ele>666.81</ele>
        <time>2020-06-21T10:59:02Z</time>
      </trkpt>
      <trkpt lat="44.96122" lon="5.58821">
        <ele>665.37</ele>
        <time>2020-06-21T10:59:03Z</time>
      </trkpt>
      <trkpt lat="44.96121" lon="5.58812">
        <ele>664.41</ele>
        <time>2020-06-21T10:59:04Z</time>
      </trkpt>
      <trkpt lat="44.9612" lon="5.58802">
        <ele>663.45</ele>
        <time>2020-06-21T10:59:05Z</time>
      </trkpt>
      <trkpt lat="44.96115" lon="5.58783">
        <ele>661.52</ele>
        <time>2020-06-21T10:59:07Z</time>
      </trkpt>
      <trkpt lat="44.96112" lon="5.58772">
        <ele>660.56</ele>
        <time>2020-06-21T10:59:08Z</time>
      </trkpt>
      <trkpt lat="44.96107" lon="5.58763">
        <ele>659.6</ele>
        <time>2020-06-21T10:59:09Z</time>
      </trkpt>
      <trkpt lat="44.96101" lon="5.58754">
        <ele>659.6</ele>
        <time>2020-06-21T10:59:10Z</time>
      </trkpt>
      <trkpt lat="44.96094" lon="5.58749">
        <ele>659.12</ele>
        <time>2020-06-21T10:59:11Z</time>
      </trkpt>
      <trkpt lat="44.96087" lon="5.58748">
        <ele>659.12</ele>
        <time>2020-06-21T10:59:12Z</time>
      </trkpt>
      <trkpt lat="44.96079" lon="5.58751">
        <ele>658.64</ele>
        <time>2020-06-21T10:59:13Z</time>
      </trkpt>
      <trkpt lat="44.96073" lon="5.58756">
        <ele>658.64</ele>
        <time>2020-06-21T10:59:14Z</time>
      </trkpt>
      <trkpt lat="44.96023" lon="5.58788">
        <ele>659.12</ele>
        <time>2020-06-21T10:59:22Z</time>
      </trkpt>
      <trkpt lat="44.96018" lon="5.58794">
        <ele>660.08</ele>
        <time>2020-06-21T10:59:23Z</time>
      </trkpt>
      <trkpt lat="44.96014" lon="5.588">
        <ele>661.52</ele>
        <time>2020-06-21T10:59:24Z</time>
      </trkpt>
      <trkpt lat="44.96011" lon="5.58806">
        <ele>662.01</ele>
        <time>2020-06-21T10:59:25Z</time>
      </trkpt>
      <trkpt lat="44.96009" lon="5.58812">
        <ele>662.49</ele>
        <time>2020-06-21T10:59:26Z</time>
      </trkpt>
      <trkpt lat="44.96002" lon="5.58845">
        <ele>665.37</ele>
        <time>2020-06-21T10:59:34Z</time>
      </trkpt>
      <trkpt lat="44.95998" lon="5.58875">
        <ele>666.81</ele>
        <time>2020-06-21T10:59:45Z</time>
      </trkpt>
      <trkpt lat="44.95983" lon="5.58907">
        <ele>668.25</ele>
        <time>2020-06-21T10:59:58Z</time>
      </trkpt>
      <trkpt lat="44.95962" lon="5.58921">
        <ele>670.66</ele>
        <time>2020-06-21T11:00:11Z</time>
      </trkpt>
      <trkpt lat="44.95954" lon="5.58922">
        <ele>670.66</ele>
        <time>2020-06-21T11:00:15Z</time>
      </trkpt>
      <trkpt lat="44.95953" lon="5.58922">
        <ele>671.14</ele>
        <time>2020-06-21T11:00:16Z</time>
      </trkpt>
      <trkpt lat="44.9593" lon="5.58928">
        <ele>672.1</ele>
        <time>2020-06-21T11:00:30Z</time>
      </trkpt>
      <trkpt lat="44.95921" lon="5.58931">
        <ele>673.54</ele>
        <time>2020-06-21T11:00:42Z</time>
      </trkpt>
      <trkpt lat="44.9592" lon="5.58931">
        <ele>673.06</ele>
        <time>2020-06-21T11:01:09Z</time>
      </trkpt>
      <trkpt lat="44.95919" lon="5.58931">
        <ele>673.54</ele>
        <time>2020-06-21T11:01:34Z</time>
      </trkpt>
      <trkpt lat="44.95918" lon="5.58929">
        <ele>673.54</ele>
        <time>2020-06-21T11:01:57Z</time>
      </trkpt>
      <trkpt lat="44.95908" lon="5.58929">
        <ele>673.54</ele>
        <time>2020-06-21T11:02:07Z</time>
      </trkpt>
      <trkpt lat="44.95911" lon="5.58926">
        <ele>673.54</ele>
        <time>2020-06-21T11:02:13Z</time>
      </trkpt>
      <trkpt lat="44.95911" lon="5.58926">
        <ele>673.54</ele>
        <time>2020-06-21T11:02:14Z</time>
      </trkpt>
      <trkpt lat="44.95911" lon="5.58925">
        <ele>672.58</ele>
        <time>2020-06-21T11:02:25Z</time>
      </trkpt>
      <trkpt lat="44.95912" lon="5.58924">
        <ele>673.06</ele>
        <time>2020-06-21T11:02:58Z</time>
      </trkpt>
      <trkpt lat="44.95911" lon="5.58925">
        <ele>673.54</ele>
        <time>2020-06-21T11:03:10Z</time>
      </trkpt>
      <trkpt lat="44.95912" lon="5.58926">
        <ele>673.54</ele>
        <time>2020-06-21T11:03:11Z</time>
      </trkpt>
      <trkpt lat="44.95912" lon="5.58932">
        <ele>672.58</ele>
        <time>2020-06-21T11:03:21Z</time>
      </trkpt>
      <trkpt lat="44.95911" lon="5.58931">
        <ele>674.5</ele>
        <time>2020-06-21T11:03:45Z</time>
      </trkpt>
      <trkpt lat="44.95911" lon="5.58931">
        <ele>674.5</ele>
        <time>2020-06-21T11:03:49Z</time>
      </trkpt>
      <trkpt lat="44.9591" lon="5.5893">
        <ele>674.5</ele>
        <time>2020-06-21T11:03:51Z</time>
      </trkpt>
      <trkpt lat="44.95885" lon="5.5893">
        <ele>675.94</ele>
        <time>2020-06-21T11:04:04Z</time>
      </trkpt>
      <trkpt lat="44.95856" lon="5.58933">
        <ele>676.42</ele>
        <time>2020-06-21T11:04:19Z</time>
      </trkpt>
      <trkpt lat="44.95821" lon="5.58937">
        <ele>679.31</ele>
        <time>2020-06-21T11:04:38Z</time>
      </trkpt>
      <trkpt lat="44.95779" lon="5.58944">
        <ele>682.19</ele>
        <time>2020-06-21T11:05:01Z</time>
      </trkpt>
      <trkpt lat="44.9575" lon="5.58948">
        <ele>684.6</ele>
        <time>2020-06-21T11:05:17Z</time>
      </trkpt>
      <trkpt lat="44.95718" lon="5.58965">
        <ele>686.04</ele>
        <time>2020-06-21T11:05:34Z</time>
      </trkpt>
      <trkpt lat="44.95694" lon="5.58986">
        <ele>687.48</ele>
        <time>2020-06-21T11:05:48Z</time>
      </trkpt>
      <trkpt lat="44.95672" lon="5.58976">
        <ele>689.88</ele>
        <time>2020-06-21T11:06:00Z</time>
      </trkpt>
      <trkpt lat="44.95675" lon="5.58944">
        <ele>691.33</ele>
        <time>2020-06-21T11:06:12Z</time>
      </trkpt>
      <trkpt lat="44.95683" lon="5.58911">
        <ele>693.25</ele>
        <time>2020-06-21T11:06:28Z</time>
      </trkpt>
      <trkpt lat="44.95691" lon="5.58876">
        <ele>696.61</ele>
        <time>2020-06-21T11:06:44Z</time>
      </trkpt>
      <trkpt lat="44.95702" lon="5.58835">
        <ele>697.09</ele>
        <time>2020-06-21T11:07:02Z</time>
      </trkpt>
      <trkpt lat="44.95713" lon="5.58793">
        <ele>699.02</ele>
        <time>2020-06-21T11:07:19Z</time>
      </trkpt>
      <trkpt lat="44.95722" lon="5.58758">
        <ele>700.46</ele>
        <time>2020-06-21T11:07:33Z</time>
      </trkpt>
      <trkpt lat="44.95723" lon="5.58731">
        <ele>703.82</ele>
        <time>2020-06-21T11:07:44Z</time>
      </trkpt>
      <trkpt lat="44.95722" lon="5.58729">
        <ele>703.82</ele>
        <time>2020-06-21T11:07:45Z</time>
      </trkpt>
      <trkpt lat="44.95707" lon="5.58719">
        <ele>703.82</ele>
        <time>2020-06-21T11:07:55Z</time>
      </trkpt>
      <trkpt lat="44.95688" lon="5.5873">
        <ele>704.3</ele>
        <time>2020-06-21T11:08:08Z</time>
      </trkpt>
      <trkpt lat="44.95664" lon="5.58745">
        <ele>706.71</ele>
        <time>2020-06-21T11:08:22Z</time>
      </trkpt>
      <trkpt lat="44.9564" lon="5.58752">
        <ele>708.15</ele>
        <time>2020-06-21T11:08:37Z</time>
      </trkpt>
      <trkpt lat="44.95611" lon="5.5876">
        <ele>710.07</ele>
        <time>2020-06-21T11:08:52Z</time>
      </trkpt>
      <trkpt lat="44.95586" lon="5.58766">
        <ele>711.51</ele>
        <time>2020-06-21T11:09:06Z</time>
      </trkpt>
      <trkpt lat="44.95565" lon="5.5878">
        <ele>711.99</ele>
        <time>2020-06-21T11:09:18Z</time>
      </trkpt>
      <trkpt lat="44.95552" lon="5.58825">
        <ele>709.59</ele>
        <time>2020-06-21T11:09:28Z</time>
      </trkpt>
      <trkpt lat="44.95532" lon="5.58859">
        <ele>710.07</ele>
        <time>2020-06-21T11:09:38Z</time>
      </trkpt>
      <trkpt lat="44.95519" lon="5.5887">
        <ele>711.51</ele>
        <time>2020-06-21T11:09:44Z</time>
      </trkpt>
      <trkpt lat="44.95487" lon="5.58864">
        <ele>713.44</ele>
        <time>2020-06-21T11:09:58Z</time>
      </trkpt>
      <trkpt lat="44.95458" lon="5.58857">
        <ele>714.88</ele>
        <time>2020-06-21T11:10:13Z</time>
      </trkpt>
      <trkpt lat="44.95432" lon="5.58862">
        <ele>716.32</ele>
        <time>2020-06-21T11:10:28Z</time>
      </trkpt>
      <trkpt lat="44.95413" lon="5.58878">
        <ele>719.2</ele>
        <time>2020-06-21T11:10:41Z</time>
      </trkpt>
      <trkpt lat="44.95401" lon="5.58893">
        <ele>720.16</ele>
        <time>2020-06-21T11:10:51Z</time>
      </trkpt>
      <trkpt lat="44.95398" lon="5.58904">
        <ele>720.65</ele>
        <time>2020-06-21T11:10:57Z</time>
      </trkpt>
      <trkpt lat="44.95396" lon="5.58911">
        <ele>721.13</ele>
        <time>2020-06-21T11:11:00Z</time>
      </trkpt>
      <trkpt lat="44.95389" lon="5.58939">
        <ele>722.57</ele>
        <time>2020-06-21T11:11:13Z</time>
      </trkpt>
      <trkpt lat="44.95389" lon="5.58941">
        <ele>722.57</ele>
        <time>2020-06-21T11:11:14Z</time>
      </trkpt>
      <trkpt lat="44.95382" lon="5.58968">
        <ele>724.49</ele>
        <time>2020-06-21T11:11:27Z</time>
      </trkpt>
      <trkpt lat="44.95378" lon="5.58983">
        <ele>724.97</ele>
        <time>2020-06-21T11:11:33Z</time>
      </trkpt>
      <trkpt lat="44.95371" lon="5.59009">
        <ele>726.89</ele>
        <time>2020-06-21T11:11:44Z</time>
      </trkpt>
      <trkpt lat="44.95368" lon="5.59019">
        <ele>726.89</ele>
        <time>2020-06-21T11:11:48Z</time>
      </trkpt>
      <trkpt lat="44.95363" lon="5.59031">
        <ele>727.86</ele>
        <time>2020-06-21T11:11:53Z</time>
      </trkpt>
      <trkpt lat="44.95359" lon="5.59039">
        <ele>728.34</ele>
        <time>2020-06-21T11:11:57Z</time>
      </trkpt>
      <trkpt lat="44.95356" lon="5.59048">
        <ele>728.34</ele>
        <time>2020-06-21T11:12:01Z</time>
      </trkpt>
      <trkpt lat="44.9535" lon="5.59061">
        <ele>729.3</ele>
        <time>2020-06-21T11:12:08Z</time>
      </trkpt>
      <trkpt lat="44.95329" lon="5.59088">
        <ele>731.22</ele>
        <time>2020-06-21T11:12:25Z</time>
      </trkpt>
      <trkpt lat="44.9531" lon="5.59105">
        <ele>732.66</ele>
        <time>2020-06-21T11:12:39Z</time>
      </trkpt>
      <trkpt lat="44.95292" lon="5.59123">
        <ele>734.1</ele>
        <time>2020-06-21T11:12:53Z</time>
      </trkpt>
      <trkpt lat="44.95284" lon="5.59136">
        <ele>736.03</ele>
        <time>2020-06-21T11:13:00Z</time>
      </trkpt>
      <trkpt lat="44.95279" lon="5.59163">
        <ele>737.95</ele>
        <time>2020-06-21T11:13:14Z</time>
      </trkpt>
      <trkpt lat="44.95277" lon="5.59188">
        <ele>738.43</ele>
        <time>2020-06-21T11:13:23Z</time>
      </trkpt>
      <trkpt lat="44.95279" lon="5.59219">
        <ele>740.35</ele>
        <time>2020-06-21T11:13:37Z</time>
      </trkpt>
      <trkpt lat="44.95281" lon="5.59228">
        <ele>741.31</ele>
        <time>2020-06-21T11:13:41Z</time>
      </trkpt>
      <trkpt lat="44.95283" lon="5.59237">
        <ele>741.31</ele>
        <time>2020-06-21T11:13:45Z</time>
      </trkpt>
      <trkpt lat="44.95284" lon="5.59251">
        <ele>741.79</ele>
        <time>2020-06-21T11:13:51Z</time>
      </trkpt>
      <trkpt lat="44.95284" lon="5.59255">
        <ele>742.28</ele>
        <time>2020-06-21T11:13:53Z</time>
      </trkpt>
      <trkpt lat="44.95285" lon="5.59274">
        <ele>743.24</ele>
        <time>2020-06-21T11:14:02Z</time>
      </trkpt>
      <trkpt lat="44.95286" lon="5.59312">
        <ele>744.68</ele>
        <time>2020-06-21T11:14:18Z</time>
      </trkpt>
      <trkpt lat="44.95282" lon="5.59341">
        <ele>745.64</ele>
        <time>2020-06-21T11:14:31Z</time>
      </trkpt>
      <trkpt lat="44.9528" lon="5.59376">
        <ele>748.04</ele>
        <time>2020-06-21T11:14:45Z</time>
      </trkpt>
      <trkpt lat="44.95276" lon="5.59411">
        <ele>749.49</ele>
        <time>2020-06-21T11:15:00Z</time>
      </trkpt>
      <trkpt lat="44.95266" lon="5.59413">
        <ele>749.97</ele>
        <time>2020-06-21T11:15:06Z</time>
      </trkpt>
      <trkpt lat="44.9526" lon="5.59382">
        <ele>752.37</ele>
        <time>2020-06-21T11:15:20Z</time>
      </trkpt>
      <trkpt lat="44.95258" lon="5.59356">
        <ele>753.33</ele>
        <time>2020-06-21T11:15:33Z</time>
      </trkpt>
      <trkpt lat="44.95257" lon="5.59347">
        <ele>754.29</ele>
        <time>2020-06-21T11:15:37Z</time>
      </trkpt>
      <trkpt lat="44.95253" lon="5.59319">
        <ele>756.21</ele>
        <time>2020-06-21T11:15:51Z</time>
      </trkpt>
      <trkpt lat="44.95252" lon="5.59292">
        <ele>758.14</ele>
        <time>2020-06-21T11:16:04Z</time>
      </trkpt>
      <trkpt lat="44.95252" lon="5.59285">
        <ele>758.62</ele>
        <time>2020-06-21T11:16:08Z</time>
      </trkpt>
      <trkpt lat="44.9525" lon="5.59256">
        <ele>760.06</ele>
        <time>2020-06-21T11:16:20Z</time>
      </trkpt>
      <trkpt lat="44.9525" lon="5.59252">
        <ele>760.54</ele>
        <time>2020-06-21T11:16:22Z</time>
      </trkpt>
      <trkpt lat="44.95233" lon="5.59233">
        <ele>762.94</ele>
        <time>2020-06-21T11:16:37Z</time>
      </trkpt>
      <trkpt lat="44.95225" lon="5.59224">
        <ele>763.9</ele>
        <time>2020-06-21T11:16:46Z</time>
      </trkpt>
      <trkpt lat="44.95213" lon="5.59201">
        <ele>765.83</ele>
        <time>2020-06-21T11:16:58Z</time>
      </trkpt>
      <trkpt lat="44.95204" lon="5.59164">
        <ele>767.27</ele>
        <time>2020-06-21T11:17:13Z</time>
      </trkpt>
      <trkpt lat="44.95206" lon="5.59139">
        <ele>769.67</ele>
        <time>2020-06-21T11:17:24Z</time>
      </trkpt>
      <trkpt lat="44.95206" lon="5.59132">
        <ele>769.19</ele>
        <time>2020-06-21T11:17:28Z</time>
      </trkpt>
      <trkpt lat="44.95207" lon="5.59128">
        <ele>769.67</ele>
        <time>2020-06-21T11:17:30Z</time>
      </trkpt>
      <trkpt lat="44.95206" lon="5.59114">
        <ele>771.11</ele>
        <time>2020-06-21T11:17:37Z</time>
      </trkpt>
      <trkpt lat="44.95202" lon="5.59084">
        <ele>772.56</ele>
        <time>2020-06-21T11:17:52Z</time>
      </trkpt>
      <trkpt lat="44.95202" lon="5.59054">
        <ele>774.48</ele>
        <time>2020-06-21T11:18:08Z</time>
      </trkpt>
      <trkpt lat="44.95201" lon="5.59047">
        <ele>774.96</ele>
        <time>2020-06-21T11:18:12Z</time>
      </trkpt>
      <trkpt lat="44.95198" lon="5.59038">
        <ele>775.44</ele>
        <time>2020-06-21T11:18:17Z</time>
      </trkpt>
      <trkpt lat="44.95191" lon="5.59008">
        <ele>777.36</ele>
        <time>2020-06-21T11:18:33Z</time>
      </trkpt>
      <trkpt lat="44.95182" lon="5.58978">
        <ele>779.29</ele>
        <time>2020-06-21T11:18:48Z</time>
      </trkpt>
      <trkpt lat="44.95171" lon="5.58952">
        <ele>780.73</ele>
        <time>2020-06-21T11:19:02Z</time>
      </trkpt>
      <trkpt lat="44.95166" lon="5.58934">
        <ele>782.17</ele>
        <time>2020-06-21T11:19:12Z</time>
      </trkpt>
      <trkpt lat="44.95155" lon="5.58905">
        <ele>784.09</ele>
        <time>2020-06-21T11:19:29Z</time>
      </trkpt>
      <trkpt lat="44.95151" lon="5.58892">
        <ele>785.05</ele>
        <time>2020-06-21T11:19:37Z</time>
      </trkpt>
      <trkpt lat="44.95146" lon="5.58877">
        <ele>785.53</ele>
        <time>2020-06-21T11:19:45Z</time>
      </trkpt>
      <trkpt lat="44.95144" lon="5.58864">
        <ele>786.5</ele>
        <time>2020-06-21T11:19:51Z</time>
      </trkpt>
      <trkpt lat="44.95142" lon="5.58856">
        <ele>786.5</ele>
        <time>2020-06-21T11:19:55Z</time>
      </trkpt>
      <trkpt lat="44.9514" lon="5.58829">
        <ele>788.42</ele>
        <time>2020-06-21T11:20:08Z</time>
      </trkpt>
      <trkpt lat="44.95138" lon="5.58814">
        <ele>789.38</ele>
        <time>2020-06-21T11:20:17Z</time>
      </trkpt>
      <trkpt lat="44.9514" lon="5.58792">
        <ele>790.34</ele>
        <time>2020-06-21T11:20:28Z</time>
      </trkpt>
      <trkpt lat="44.9514" lon="5.58788">
        <ele>790.82</ele>
        <time>2020-06-21T11:20:30Z</time>
      </trkpt>
      <trkpt lat="44.9514" lon="5.5878">
        <ele>791.3</ele>
        <time>2020-06-21T11:20:34Z</time>
      </trkpt>
      <trkpt lat="44.9514" lon="5.58764">
        <ele>792.26</ele>
        <time>2020-06-21T11:20:43Z</time>
      </trkpt>
      <trkpt lat="44.9514" lon="5.5876">
        <ele>792.74</ele>
        <time>2020-06-21T11:20:45Z</time>
      </trkpt>
      <trkpt lat="44.95134" lon="5.58752">
        <ele>793.71</ele>
        <time>2020-06-21T11:20:53Z</time>
      </trkpt>
      <trkpt lat="44.95126" lon="5.58757">
        <ele>794.19</ele>
        <time>2020-06-21T11:21:01Z</time>
      </trkpt>
      <trkpt lat="44.95125" lon="5.58776">
        <ele>795.63</ele>
        <time>2020-06-21T11:21:12Z</time>
      </trkpt>
      <trkpt lat="44.95124" lon="5.58788">
        <ele>795.63</ele>
        <time>2020-06-21T11:21:18Z</time>
      </trkpt>
      <trkpt lat="44.95125" lon="5.58815">
        <ele>797.55</ele>
        <time>2020-06-21T11:21:31Z</time>
      </trkpt>
      <trkpt lat="44.95122" lon="5.58823">
        <ele>798.03</ele>
        <time>2020-06-21T11:21:35Z</time>
      </trkpt>
      <trkpt lat="44.95119" lon="5.58837">
        <ele>798.51</ele>
        <time>2020-06-21T11:21:41Z</time>
      </trkpt>
      <trkpt lat="44.95113" lon="5.58863">
        <ele>799.95</ele>
        <time>2020-06-21T11:21:54Z</time>
      </trkpt>
      <trkpt lat="44.95111" lon="5.58866">
        <ele>800.44</ele>
        <time>2020-06-21T11:21:56Z</time>
      </trkpt>
      <trkpt lat="44.9511" lon="5.58872">
        <ele>801.4</ele>
        <time>2020-06-21T11:22:00Z</time>
      </trkpt>
      <trkpt lat="44.95108" lon="5.58884">
        <ele>801.88</ele>
        <time>2020-06-21T11:22:07Z</time>
      </trkpt>
      <trkpt lat="44.951" lon="5.58911">
        <ele>803.32</ele>
        <time>2020-06-21T11:22:21Z</time>
      </trkpt>
      <trkpt lat="44.95096" lon="5.58927">
        <ele>804.28</ele>
        <time>2020-06-21T11:22:29Z</time>
      </trkpt>
      <trkpt lat="44.95093" lon="5.58949">
        <ele>805.72</ele>
        <time>2020-06-21T11:22:40Z</time>
      </trkpt>
      <trkpt lat="44.95092" lon="5.58973">
        <ele>807.16</ele>
        <time>2020-06-21T11:22:52Z</time>
      </trkpt>
      <trkpt lat="44.95091" lon="5.58995">
        <ele>808.13</ele>
        <time>2020-06-21T11:23:04Z</time>
      </trkpt>
      <trkpt lat="44.95091" lon="5.59019">
        <ele>809.57</ele>
        <time>2020-06-21T11:23:16Z</time>
      </trkpt>
      <trkpt lat="44.95091" lon="5.59023">
        <ele>809.57</ele>
        <time>2020-06-21T11:23:18Z</time>
      </trkpt>
      <trkpt lat="44.95089" lon="5.59032">
        <ele>810.53</ele>
        <time>2020-06-21T11:23:23Z</time>
      </trkpt>
      <trkpt lat="44.95082" lon="5.5906">
        <ele>812.93</ele>
        <time>2020-06-21T11:23:37Z</time>
      </trkpt>
      <trkpt lat="44.95068" lon="5.59085">
        <ele>814.37</ele>
        <time>2020-06-21T11:23:54Z</time>
      </trkpt>
      <trkpt lat="44.95064" lon="5.59091">
        <ele>814.85</ele>
        <time>2020-06-21T11:23:58Z</time>
      </trkpt>
      <trkpt lat="44.95059" lon="5.591">
        <ele>815.82</ele>
        <time>2020-06-21T11:24:04Z</time>
      </trkpt>
      <trkpt lat="44.95056" lon="5.59106">
        <ele>816.3</ele>
        <time>2020-06-21T11:24:08Z</time>
      </trkpt>
      <trkpt lat="44.95045" lon="5.59124">
        <ele>817.26</ele>
        <time>2020-06-21T11:24:20Z</time>
      </trkpt>
      <trkpt lat="44.95038" lon="5.5914">
        <ele>818.7</ele>
        <time>2020-06-21T11:24:30Z</time>
      </trkpt>
      <trkpt lat="44.95036" lon="5.59149">
        <ele>818.7</ele>
        <time>2020-06-21T11:24:35Z</time>
      </trkpt>
      <trkpt lat="44.95035" lon="5.59152">
        <ele>819.18</ele>
        <time>2020-06-21T11:24:37Z</time>
      </trkpt>
      <trkpt lat="44.95033" lon="5.59162">
        <ele>820.14</ele>
        <time>2020-06-21T11:24:43Z</time>
      </trkpt>
      <trkpt lat="44.95032" lon="5.59169">
        <ele>820.62</ele>
        <time>2020-06-21T11:24:47Z</time>
      </trkpt>
      <trkpt lat="44.95031" lon="5.59172">
        <ele>820.14</ele>
        <time>2020-06-21T11:24:49Z</time>
      </trkpt>
      <trkpt lat="44.9503" lon="5.59181">
        <ele>821.1</ele>
        <time>2020-06-21T11:24:54Z</time>
      </trkpt>
      <trkpt lat="44.95029" lon="5.59189">
        <ele>821.58</ele>
        <time>2020-06-21T11:24:58Z</time>
      </trkpt>
      <trkpt lat="44.95028" lon="5.59197">
        <ele>822.06</ele>
        <time>2020-06-21T11:25:02Z</time>
      </trkpt>
      <trkpt lat="44.95024" lon="5.59235">
        <ele>824.95</ele>
        <time>2020-06-21T11:25:20Z</time>
      </trkpt>
      <trkpt lat="44.95019" lon="5.59265">
        <ele>826.87</ele>
        <time>2020-06-21T11:25:36Z</time>
      </trkpt>
      <trkpt lat="44.95004" lon="5.59299">
        <ele>828.31</ele>
        <time>2020-06-21T11:25:55Z</time>
      </trkpt>
      <trkpt lat="44.94991" lon="5.59325">
        <ele>830.72</ele>
        <time>2020-06-21T11:26:12Z</time>
      </trkpt>
      <trkpt lat="44.94989" lon="5.59334">
        <ele>831.2</ele>
        <time>2020-06-21T11:26:17Z</time>
      </trkpt>
      <trkpt lat="44.94984" lon="5.59363">
        <ele>833.12</ele>
        <time>2020-06-21T11:26:31Z</time>
      </trkpt>
      <trkpt lat="44.94968" lon="5.59393">
        <ele>835.04</ele>
        <time>2020-06-21T11:26:48Z</time>
      </trkpt>
      <trkpt lat="44.94967" lon="5.59394">
        <ele>835.52</ele>
        <time>2020-06-21T11:26:49Z</time>
      </trkpt>
      <trkpt lat="44.94964" lon="5.59401">
        <ele>835.52</ele>
        <time>2020-06-21T11:26:53Z</time>
      </trkpt>
      <trkpt lat="44.94963" lon="5.59404">
        <ele>836</ele>
        <time>2020-06-21T11:26:55Z</time>
      </trkpt>
      <trkpt lat="44.94958" lon="5.59427">
        <ele>837.45</ele>
        <time>2020-06-21T11:27:10Z</time>
      </trkpt>
      <trkpt lat="44.94958" lon="5.59432">
        <ele>837.93</ele>
        <time>2020-06-21T11:27:13Z</time>
      </trkpt>
      <trkpt lat="44.94957" lon="5.59438">
        <ele>838.41</ele>
        <time>2020-06-21T11:27:16Z</time>
      </trkpt>
      <trkpt lat="44.9495" lon="5.59456">
        <ele>838.89</ele>
        <time>2020-06-21T11:27:28Z</time>
      </trkpt>
      <trkpt lat="44.9495" lon="5.59461">
        <ele>838.41</ele>
        <time>2020-06-21T11:27:45Z</time>
      </trkpt>
      <trkpt lat="44.9495" lon="5.59462">
        <ele>839.37</ele>
        <time>2020-06-21T11:28:09Z</time>
      </trkpt>
      <trkpt lat="44.9495" lon="5.59462">
        <ele>838.89</ele>
        <time>2020-06-21T11:28:12Z</time>
      </trkpt>
      <trkpt lat="44.94949" lon="5.59462">
        <ele>838.89</ele>
        <time>2020-06-21T11:28:14Z</time>
      </trkpt>
      <trkpt lat="44.94936" lon="5.59495">
        <ele>839.85</ele>
        <time>2020-06-21T11:28:29Z</time>
      </trkpt>
      <trkpt lat="44.94935" lon="5.59504">
        <ele>840.33</ele>
        <time>2020-06-21T11:28:32Z</time>
      </trkpt>
      <trkpt lat="44.94932" lon="5.59539">
        <ele>840.81</ele>
        <time>2020-06-21T11:28:44Z</time>
      </trkpt>
      <trkpt lat="44.94928" lon="5.59565">
        <ele>839.85</ele>
        <time>2020-06-21T11:28:51Z</time>
      </trkpt>
      <trkpt lat="44.94903" lon="5.59598">
        <ele>839.37</ele>
        <time>2020-06-21T11:29:02Z</time>
      </trkpt>
      <trkpt lat="44.949" lon="5.59602">
        <ele>838.89</ele>
        <time>2020-06-21T11:29:03Z</time>
      </trkpt>
      <trkpt lat="44.94887" lon="5.59635">
        <ele>839.37</ele>
        <time>2020-06-21T11:29:11Z</time>
      </trkpt>
      <trkpt lat="44.94887" lon="5.59636">
        <ele>839.85</ele>
        <time>2020-06-21T11:29:12Z</time>
      </trkpt>
      <trkpt lat="44.94886" lon="5.59638">
        <ele>839.85</ele>
        <time>2020-06-21T11:29:13Z</time>
      </trkpt>
      <trkpt lat="44.94885" lon="5.5964">
        <ele>840.33</ele>
        <time>2020-06-21T11:29:14Z</time>
      </trkpt>
      <trkpt lat="44.94884" lon="5.59643">
        <ele>840.81</ele>
        <time>2020-06-21T11:29:15Z</time>
      </trkpt>
      <trkpt lat="44.94883" lon="5.59645">
        <ele>840.81</ele>
        <time>2020-06-21T11:29:16Z</time>
      </trkpt>
      <trkpt lat="44.94881" lon="5.59647">
        <ele>840.81</ele>
        <time>2020-06-21T11:29:17Z</time>
      </trkpt>
      <trkpt lat="44.9488" lon="5.59648">
        <ele>841.29</ele>
        <time>2020-06-21T11:29:18Z</time>
      </trkpt>
      <trkpt lat="44.94879" lon="5.5965">
        <ele>841.77</ele>
        <time>2020-06-21T11:29:19Z</time>
      </trkpt>
      <trkpt lat="44.94878" lon="5.59651">
        <ele>841.77</ele>
        <time>2020-06-21T11:29:20Z</time>
      </trkpt>
      <trkpt lat="44.94866" lon="5.5966">
        <ele>843.21</ele>
        <time>2020-06-21T11:29:30Z</time>
      </trkpt>
      <trkpt lat="44.94854" lon="5.59674">
        <ele>845.62</ele>
        <time>2020-06-21T11:29:41Z</time>
      </trkpt>
      <trkpt lat="44.94846" lon="5.59692">
        <ele>847.06</ele>
        <time>2020-06-21T11:29:53Z</time>
      </trkpt>
      <trkpt lat="44.94838" lon="5.59711">
        <ele>848.02</ele>
        <time>2020-06-21T11:30:05Z</time>
      </trkpt>
      <trkpt lat="44.94832" lon="5.59725">
        <ele>848.98</ele>
        <time>2020-06-21T11:30:13Z</time>
      </trkpt>
      <trkpt lat="44.94829" lon="5.59732">
        <ele>848.98</ele>
        <time>2020-06-21T11:30:16Z</time>
      </trkpt>
      <trkpt lat="44.94828" lon="5.59752">
        <ele>850.42</ele>
        <time>2020-06-21T11:30:26Z</time>
      </trkpt>
      <trkpt lat="44.9483" lon="5.59762">
        <ele>851.38</ele>
        <time>2020-06-21T11:30:31Z</time>
      </trkpt>
      <trkpt lat="44.94835" lon="5.59785">
        <ele>852.83</ele>
        <time>2020-06-21T11:30:44Z</time>
      </trkpt>
      <trkpt lat="44.94837" lon="5.59802">
        <ele>853.79</ele>
        <time>2020-06-21T11:30:54Z</time>
      </trkpt>
      <trkpt lat="44.94833" lon="5.59825">
        <ele>855.71</ele>
        <time>2020-06-21T11:31:07Z</time>
      </trkpt>
      <trkpt lat="44.94832" lon="5.5983">
        <ele>855.71</ele>
        <time>2020-06-21T11:31:10Z</time>
      </trkpt>
      <trkpt lat="44.94826" lon="5.59845">
        <ele>856.67</ele>
        <time>2020-06-21T11:31:19Z</time>
      </trkpt>
      <trkpt lat="44.94817" lon="5.59864">
        <ele>858.11</ele>
        <time>2020-06-21T11:31:29Z</time>
      </trkpt>
      <trkpt lat="44.94815" lon="5.59874">
        <ele>859.08</ele>
        <time>2020-06-21T11:31:34Z</time>
      </trkpt>
      <trkpt lat="44.94815" lon="5.59887">
        <ele>859.56</ele>
        <time>2020-06-21T11:31:41Z</time>
      </trkpt>
      <trkpt lat="44.94813" lon="5.59903">
        <ele>860.04</ele>
        <time>2020-06-21T11:31:48Z</time>
      </trkpt>
      <trkpt lat="44.94809" lon="5.59899">
        <ele>860.04</ele>
        <time>2020-06-21T11:31:55Z</time>
      </trkpt>
      <trkpt lat="44.94815" lon="5.59866">
        <ele>862.44</ele>
        <time>2020-06-21T11:32:11Z</time>
      </trkpt>
      <trkpt lat="44.94817" lon="5.59845">
        <ele>863.88</ele>
        <time>2020-06-21T11:32:23Z</time>
      </trkpt>
      <trkpt lat="44.94816" lon="5.59835">
        <ele>863.88</ele>
        <time>2020-06-21T11:32:27Z</time>
      </trkpt>
      <trkpt lat="44.94801" lon="5.598">
        <ele>865.32</ele>
        <time>2020-06-21T11:32:42Z</time>
      </trkpt>
      <trkpt lat="44.94783" lon="5.59772">
        <ele>866.29</ele>
        <time>2020-06-21T11:32:56Z</time>
      </trkpt>
      <trkpt lat="44.94776" lon="5.59734">
        <ele>868.21</ele>
        <time>2020-06-21T11:33:11Z</time>
      </trkpt>
      <trkpt lat="44.94786" lon="5.59693">
        <ele>870.13</ele>
        <time>2020-06-21T11:33:28Z</time>
      </trkpt>
      <trkpt lat="44.94797" lon="5.59654">
        <ele>871.57</ele>
        <time>2020-06-21T11:33:45Z</time>
      </trkpt>
      <trkpt lat="44.94798" lon="5.59623">
        <ele>873.98</ele>
        <time>2020-06-21T11:33:58Z</time>
      </trkpt>
      <trkpt lat="44.94798" lon="5.59613">
        <ele>873.98</ele>
        <time>2020-06-21T11:34:02Z</time>
      </trkpt>
      <trkpt lat="44.94798" lon="5.59596">
        <ele>874.94</ele>
        <time>2020-06-21T11:34:09Z</time>
      </trkpt>
      <trkpt lat="44.94795" lon="5.59569">
        <ele>876.38</ele>
        <time>2020-06-21T11:34:21Z</time>
      </trkpt>
      <trkpt lat="44.94795" lon="5.59564">
        <ele>876.38</ele>
        <time>2020-06-21T11:34:23Z</time>
      </trkpt>
      <trkpt lat="44.94795" lon="5.5956">
        <ele>876.38</ele>
        <time>2020-06-21T11:34:25Z</time>
      </trkpt>
      <trkpt lat="44.94795" lon="5.59547">
        <ele>876.38</ele>
        <time>2020-06-21T11:34:30Z</time>
      </trkpt>
      <trkpt lat="44.94796" lon="5.59545">
        <ele>876.86</ele>
        <time>2020-06-21T11:34:32Z</time>
      </trkpt>
      <trkpt lat="44.94796" lon="5.5953">
        <ele>877.82</ele>
        <time>2020-06-21T11:34:38Z</time>
      </trkpt>
      <trkpt lat="44.94796" lon="5.59517">
        <ele>877.34</ele>
        <time>2020-06-21T11:34:43Z</time>
      </trkpt>
      <trkpt lat="44.94795" lon="5.59496">
        <ele>878.78</ele>
        <time>2020-06-21T11:34:51Z</time>
      </trkpt>
      <trkpt lat="44.94796" lon="5.59466">
        <ele>880.71</ele>
        <time>2020-06-21T11:35:02Z</time>
      </trkpt>
      <trkpt lat="44.94798" lon="5.59452">
        <ele>881.19</ele>
        <time>2020-06-21T11:35:08Z</time>
      </trkpt>
      <trkpt lat="44.948" lon="5.59437">
        <ele>881.19</ele>
        <time>2020-06-21T11:35:16Z</time>
      </trkpt>
      <trkpt lat="44.94805" lon="5.5941">
        <ele>883.11</ele>
        <time>2020-06-21T11:35:29Z</time>
      </trkpt>
      <trkpt lat="44.94806" lon="5.59407">
        <ele>883.11</ele>
        <time>2020-06-21T11:35:30Z</time>
      </trkpt>
      <trkpt lat="44.94809" lon="5.59391">
        <ele>884.55</ele>
        <time>2020-06-21T11:35:38Z</time>
      </trkpt>
      <trkpt lat="44.9481" lon="5.59379">
        <ele>885.03</ele>
        <time>2020-06-21T11:35:43Z</time>
      </trkpt>
      <trkpt lat="44.94811" lon="5.59367">
        <ele>885.03</ele>
        <time>2020-06-21T11:35:48Z</time>
      </trkpt>
      <trkpt lat="44.94812" lon="5.59359">
        <ele>885.51</ele>
        <time>2020-06-21T11:35:52Z</time>
      </trkpt>
      <trkpt lat="44.94812" lon="5.59353">
        <ele>885.99</ele>
        <time>2020-06-21T11:35:55Z</time>
      </trkpt>
      <trkpt lat="44.94813" lon="5.59345">
        <ele>885.99</ele>
        <time>2020-06-21T11:35:59Z</time>
      </trkpt>
      <trkpt lat="44.94818" lon="5.5931">
        <ele>887.43</ele>
        <time>2020-06-21T11:36:15Z</time>
      </trkpt>
      <trkpt lat="44.94818" lon="5.59305">
        <ele>887.43</ele>
        <time>2020-06-21T11:36:17Z</time>
      </trkpt>
      <trkpt lat="44.94822" lon="5.59283">
        <ele>888.4</ele>
        <time>2020-06-21T11:36:27Z</time>
      </trkpt>
      <trkpt lat="44.94823" lon="5.59265">
        <ele>889.36</ele>
        <time>2020-06-21T11:36:35Z</time>
      </trkpt>
      <trkpt lat="44.94825" lon="5.59253">
        <ele>890.32</ele>
        <time>2020-06-21T11:36:41Z</time>
      </trkpt>
      <trkpt lat="44.94825" lon="5.59231">
        <ele>890.8</ele>
        <time>2020-06-21T11:36:51Z</time>
      </trkpt>
      <trkpt lat="44.94826" lon="5.5922">
        <ele>891.76</ele>
        <time>2020-06-21T11:36:56Z</time>
      </trkpt>
      <trkpt lat="44.94828" lon="5.59193">
        <ele>892.72</ele>
        <time>2020-06-21T11:37:08Z</time>
      </trkpt>
      <trkpt lat="44.94827" lon="5.59174">
        <ele>893.2</ele>
        <time>2020-06-21T11:37:16Z</time>
      </trkpt>
      <trkpt lat="44.94821" lon="5.59142">
        <ele>894.64</ele>
        <time>2020-06-21T11:37:31Z</time>
      </trkpt>
      <trkpt lat="44.94813" lon="5.59111">
        <ele>896.09</ele>
        <time>2020-06-21T11:37:45Z</time>
      </trkpt>
      <trkpt lat="44.94809" lon="5.59097">
        <ele>897.05</ele>
        <time>2020-06-21T11:37:52Z</time>
      </trkpt>
      <trkpt lat="44.948" lon="5.59066">
        <ele>898.97</ele>
        <time>2020-06-21T11:38:07Z</time>
      </trkpt>
      <trkpt lat="44.94789" lon="5.59032">
        <ele>899.93</ele>
        <time>2020-06-21T11:38:23Z</time>
      </trkpt>
      <trkpt lat="44.94789" lon="5.59026">
        <ele>899.45</ele>
        <time>2020-06-21T11:38:26Z</time>
      </trkpt>
      <trkpt lat="44.94787" lon="5.59001">
        <ele>901.37</ele>
        <time>2020-06-21T11:38:38Z</time>
      </trkpt>
      <trkpt lat="44.94784" lon="5.58978">
        <ele>902.33</ele>
        <time>2020-06-21T11:38:48Z</time>
      </trkpt>
      <trkpt lat="44.94781" lon="5.58945">
        <ele>903.78</ele>
        <time>2020-06-21T11:39:03Z</time>
      </trkpt>
      <trkpt lat="44.9478" lon="5.58923">
        <ele>904.74</ele>
        <time>2020-06-21T11:39:13Z</time>
      </trkpt>
      <trkpt lat="44.94779" lon="5.58915">
        <ele>905.22</ele>
        <time>2020-06-21T11:39:17Z</time>
      </trkpt>
      <trkpt lat="44.94777" lon="5.58886">
        <ele>906.18</ele>
        <time>2020-06-21T11:39:30Z</time>
      </trkpt>
      <trkpt lat="44.94776" lon="5.58853">
        <ele>908.1</ele>
        <time>2020-06-21T11:39:44Z</time>
      </trkpt>
      <trkpt lat="44.94776" lon="5.58817">
        <ele>909.06</ele>
        <time>2020-06-21T11:39:58Z</time>
      </trkpt>
      <trkpt lat="44.94776" lon="5.58812">
        <ele>909.06</ele>
        <time>2020-06-21T11:40:00Z</time>
      </trkpt>
      <trkpt lat="44.94778" lon="5.58789">
        <ele>910.03</ele>
        <time>2020-06-21T11:40:10Z</time>
      </trkpt>
      <trkpt lat="44.9478" lon="5.58779">
        <ele>910.03</ele>
        <time>2020-06-21T11:40:15Z</time>
      </trkpt>
      <trkpt lat="44.94784" lon="5.58766">
        <ele>910.99</ele>
        <time>2020-06-21T11:40:21Z</time>
      </trkpt>
      <trkpt lat="44.94792" lon="5.58736">
        <ele>912.43</ele>
        <time>2020-06-21T11:40:35Z</time>
      </trkpt>
      <trkpt lat="44.94797" lon="5.58717">
        <ele>912.91</ele>
        <time>2020-06-21T11:40:44Z</time>
      </trkpt>
      <trkpt lat="44.94804" lon="5.58696">
        <ele>913.87</ele>
        <time>2020-06-21T11:40:54Z</time>
      </trkpt>
      <trkpt lat="44.9481" lon="5.58683">
        <ele>914.83</ele>
        <time>2020-06-21T11:41:01Z</time>
      </trkpt>
      <trkpt lat="44.94813" lon="5.58672">
        <ele>915.31</ele>
        <time>2020-06-21T11:41:06Z</time>
      </trkpt>
      <trkpt lat="44.94814" lon="5.58665">
        <ele>916.27</ele>
        <time>2020-06-21T11:41:10Z</time>
      </trkpt>
      <trkpt lat="44.94814" lon="5.58659">
        <ele>916.27</ele>
        <time>2020-06-21T11:41:13Z</time>
      </trkpt>
      <trkpt lat="44.94811" lon="5.5864">
        <ele>917.24</ele>
        <time>2020-06-21T11:41:22Z</time>
      </trkpt>
      <trkpt lat="44.94805" lon="5.58616">
        <ele>917.72</ele>
        <time>2020-06-21T11:41:34Z</time>
      </trkpt>
      <trkpt lat="44.94804" lon="5.58579">
        <ele>919.64</ele>
        <time>2020-06-21T11:41:48Z</time>
      </trkpt>
      <trkpt lat="44.94813" lon="5.58566">
        <ele>920.6</ele>
        <time>2020-06-21T11:41:56Z</time>
      </trkpt>
      <trkpt lat="44.94834" lon="5.5855">
        <ele>922.52</ele>
        <time>2020-06-21T11:42:09Z</time>
      </trkpt>
      <trkpt lat="44.94839" lon="5.58545">
        <ele>923</ele>
        <time>2020-06-21T11:42:12Z</time>
      </trkpt>
      <trkpt lat="44.94853" lon="5.58513">
        <ele>924.45</ele>
        <time>2020-06-21T11:42:27Z</time>
      </trkpt>
      <trkpt lat="44.94861" lon="5.5848">
        <ele>925.89</ele>
        <time>2020-06-21T11:42:42Z</time>
      </trkpt>
      <trkpt lat="44.94862" lon="5.58473">
        <ele>926.37</ele>
        <time>2020-06-21T11:42:45Z</time>
      </trkpt>
      <trkpt lat="44.94856" lon="5.5843">
        <ele>927.33</ele>
        <time>2020-06-21T11:42:59Z</time>
      </trkpt>
      <trkpt lat="44.94866" lon="5.58405">
        <ele>929.25</ele>
        <time>2020-06-21T11:43:11Z</time>
      </trkpt>
      <trkpt lat="44.94885" lon="5.58373">
        <ele>931.17</ele>
        <time>2020-06-21T11:43:27Z</time>
      </trkpt>
      <trkpt lat="44.94893" lon="5.58349">
        <ele>932.14</ele>
        <time>2020-06-21T11:43:37Z</time>
      </trkpt>
      <trkpt lat="44.94891" lon="5.58322">
        <ele>933.58</ele>
        <time>2020-06-21T11:43:48Z</time>
      </trkpt>
      <trkpt lat="44.9489" lon="5.58306">
        <ele>934.06</ele>
        <time>2020-06-21T11:43:56Z</time>
      </trkpt>
      <trkpt lat="44.94887" lon="5.58286">
        <ele>935.02</ele>
        <time>2020-06-21T11:44:03Z</time>
      </trkpt>
      <trkpt lat="44.94893" lon="5.58276">
        <ele>935.02</ele>
        <time>2020-06-21T11:44:09Z</time>
      </trkpt>
      <trkpt lat="44.94904" lon="5.58264">
        <ele>935.98</ele>
        <time>2020-06-21T11:44:16Z</time>
      </trkpt>
      <trkpt lat="44.94914" lon="5.58236">
        <ele>937.42</ele>
        <time>2020-06-21T11:44:28Z</time>
      </trkpt>
      <trkpt lat="44.94918" lon="5.58216">
        <ele>938.86</ele>
        <time>2020-06-21T11:44:38Z</time>
      </trkpt>
      <trkpt lat="44.94927" lon="5.58194">
        <ele>939.35</ele>
        <time>2020-06-21T11:44:48Z</time>
      </trkpt>
      <trkpt lat="44.94941" lon="5.58154">
        <ele>940.79</ele>
        <time>2020-06-21T11:45:03Z</time>
      </trkpt>
      <trkpt lat="44.94945" lon="5.5811">
        <ele>942.71</ele>
        <time>2020-06-21T11:45:19Z</time>
      </trkpt>
      <trkpt lat="44.94947" lon="5.58101">
        <ele>943.19</ele>
        <time>2020-06-21T11:45:23Z</time>
      </trkpt>
      <trkpt lat="44.9495" lon="5.58088">
        <ele>943.67</ele>
        <time>2020-06-21T11:45:29Z</time>
      </trkpt>
      <trkpt lat="44.94955" lon="5.58069">
        <ele>944.63</ele>
        <time>2020-06-21T11:45:38Z</time>
      </trkpt>
      <trkpt lat="44.94959" lon="5.58056">
        <ele>945.59</ele>
        <time>2020-06-21T11:45:44Z</time>
      </trkpt>
      <trkpt lat="44.94963" lon="5.58045">
        <ele>945.11</ele>
        <time>2020-06-21T11:45:49Z</time>
      </trkpt>
      <trkpt lat="44.94964" lon="5.58034">
        <ele>946.56</ele>
        <time>2020-06-21T11:45:54Z</time>
      </trkpt>
      <trkpt lat="44.94968" lon="5.58018">
        <ele>947.04</ele>
        <time>2020-06-21T11:46:01Z</time>
      </trkpt>
      <trkpt lat="44.94975" lon="5.5799">
        <ele>948.48</ele>
        <time>2020-06-21T11:46:14Z</time>
      </trkpt>
      <trkpt lat="44.94976" lon="5.57986">
        <ele>948.48</ele>
        <time>2020-06-21T11:46:16Z</time>
      </trkpt>
      <trkpt lat="44.94976" lon="5.57983">
        <ele>948.48</ele>
        <time>2020-06-21T11:46:18Z</time>
      </trkpt>
      <trkpt lat="44.94978" lon="5.5798">
        <ele>948.48</ele>
        <time>2020-06-21T11:46:19Z</time>
      </trkpt>
      <trkpt lat="44.94979" lon="5.57966">
        <ele>949.92</ele>
        <time>2020-06-21T11:46:26Z</time>
      </trkpt>
      <trkpt lat="44.94981" lon="5.57961">
        <ele>949.92</ele>
        <time>2020-06-21T11:46:28Z</time>
      </trkpt>
      <trkpt lat="44.94986" lon="5.57939">
        <ele>950.88</ele>
        <time>2020-06-21T11:46:38Z</time>
      </trkpt>
      <trkpt lat="44.94988" lon="5.57936">
        <ele>951.36</ele>
        <time>2020-06-21T11:46:40Z</time>
      </trkpt>
      <trkpt lat="44.94999" lon="5.57915">
        <ele>951.84</ele>
        <time>2020-06-21T11:46:52Z</time>
      </trkpt>
      <trkpt lat="44.95006" lon="5.57898">
        <ele>952.8</ele>
        <time>2020-06-21T11:47:00Z</time>
      </trkpt>
      <trkpt lat="44.95009" lon="5.57892">
        <ele>952.8</ele>
        <time>2020-06-21T11:47:03Z</time>
      </trkpt>
      <trkpt lat="44.95019" lon="5.57867">
        <ele>954.73</ele>
        <time>2020-06-21T11:47:15Z</time>
      </trkpt>
      <trkpt lat="44.95032" lon="5.57829">
        <ele>956.65</ele>
        <time>2020-06-21T11:47:28Z</time>
      </trkpt>
      <trkpt lat="44.95048" lon="5.57787">
        <ele>959.05</ele>
        <time>2020-06-21T11:47:42Z</time>
      </trkpt>
      <trkpt lat="44.9505" lon="5.57775">
        <ele>959.53</ele>
        <time>2020-06-21T11:47:47Z</time>
      </trkpt>
      <trkpt lat="44.95059" lon="5.57748">
        <ele>960.49</ele>
        <time>2020-06-21T11:48:00Z</time>
      </trkpt>
      <trkpt lat="44.9506" lon="5.57712">
        <ele>962.42</ele>
        <time>2020-06-21T11:48:14Z</time>
      </trkpt>
      <trkpt lat="44.9506" lon="5.5771">
        <ele>962.9</ele>
        <time>2020-06-21T11:48:15Z</time>
      </trkpt>
      <trkpt lat="44.95063" lon="5.57695">
        <ele>963.38</ele>
        <time>2020-06-21T11:48:21Z</time>
      </trkpt>
      <trkpt lat="44.95065" lon="5.57683">
        <ele>962.9</ele>
        <time>2020-06-21T11:48:26Z</time>
      </trkpt>
      <trkpt lat="44.95069" lon="5.57651">
        <ele>964.34</ele>
        <time>2020-06-21T11:48:38Z</time>
      </trkpt>
      <trkpt lat="44.95073" lon="5.57642">
        <ele>964.82</ele>
        <time>2020-06-21T11:48:42Z</time>
      </trkpt>
      <trkpt lat="44.95086" lon="5.57609">
        <ele>965.78</ele>
        <time>2020-06-21T11:48:56Z</time>
      </trkpt>
      <trkpt lat="44.95104" lon="5.57565">
        <ele>967.7</ele>
        <time>2020-06-21T11:49:14Z</time>
      </trkpt>
      <trkpt lat="44.95107" lon="5.57521">
        <ele>969.63</ele>
        <time>2020-06-21T11:49:30Z</time>
      </trkpt>
      <trkpt lat="44.95091" lon="5.57482">
        <ele>971.55</ele>
        <time>2020-06-21T11:49:45Z</time>
      </trkpt>
      <trkpt lat="44.95068" lon="5.57471">
        <ele>972.99</ele>
        <time>2020-06-21T11:49:58Z</time>
      </trkpt>
      <trkpt lat="44.95042" lon="5.57465">
        <ele>974.43</ele>
        <time>2020-06-21T11:50:13Z</time>
      </trkpt>
      <trkpt lat="44.95022" lon="5.57457">
        <ele>975.39</ele>
        <time>2020-06-21T11:50:24Z</time>
      </trkpt>
      <trkpt lat="44.94998" lon="5.57446">
        <ele>976.84</ele>
        <time>2020-06-21T11:50:39Z</time>
      </trkpt>
      <trkpt lat="44.94976" lon="5.57434">
        <ele>978.28</ele>
        <time>2020-06-21T11:50:52Z</time>
      </trkpt>
      <trkpt lat="44.94956" lon="5.57426">
        <ele>979.24</ele>
        <time>2020-06-21T11:51:03Z</time>
      </trkpt>
      <trkpt lat="44.94947" lon="5.57423">
        <ele>980.2</ele>
        <time>2020-06-21T11:51:08Z</time>
      </trkpt>
      <trkpt lat="44.9494" lon="5.5742">
        <ele>980.68</ele>
        <time>2020-06-21T11:51:12Z</time>
      </trkpt>
      <trkpt lat="44.94909" lon="5.57428">
        <ele>982.12</ele>
        <time>2020-06-21T11:51:27Z</time>
      </trkpt>
      <trkpt lat="44.94888" lon="5.57422">
        <ele>983.57</ele>
        <time>2020-06-21T11:51:39Z</time>
      </trkpt>
      <trkpt lat="44.94862" lon="5.57404">
        <ele>985.01</ele>
        <time>2020-06-21T11:51:54Z</time>
      </trkpt>
      <trkpt lat="44.94842" lon="5.57391">
        <ele>986.93</ele>
        <time>2020-06-21T11:52:07Z</time>
      </trkpt>
      <trkpt lat="44.94821" lon="5.57386">
        <ele>987.89</ele>
        <time>2020-06-21T11:52:19Z</time>
      </trkpt>
      <trkpt lat="44.94794" lon="5.57386">
        <ele>988.37</ele>
        <time>2020-06-21T11:52:34Z</time>
      </trkpt>
      <trkpt lat="44.9477" lon="5.57387">
        <ele>989.81</ele>
        <time>2020-06-21T11:52:48Z</time>
      </trkpt>
      <trkpt lat="44.94748" lon="5.57381">
        <ele>991.26</ele>
        <time>2020-06-21T11:53:01Z</time>
      </trkpt>
      <trkpt lat="44.94727" lon="5.57363">
        <ele>992.22</ele>
        <time>2020-06-21T11:53:16Z</time>
      </trkpt>
      <trkpt lat="44.94706" lon="5.57345">
        <ele>994.62</ele>
        <time>2020-06-21T11:53:31Z</time>
      </trkpt>
      <trkpt lat="44.94679" lon="5.57325">
        <ele>995.58</ele>
        <time>2020-06-21T11:53:48Z</time>
      </trkpt>
      <trkpt lat="44.94657" lon="5.57314">
        <ele>996.54</ele>
        <time>2020-06-21T11:54:00Z</time>
      </trkpt>
      <trkpt lat="44.94626" lon="5.57295">
        <ele>997.99</ele>
        <time>2020-06-21T11:54:18Z</time>
      </trkpt>
      <trkpt lat="44.94595" lon="5.57282">
        <ele>999.91</ele>
        <time>2020-06-21T11:54:34Z</time>
      </trkpt>
      <trkpt lat="44.94593" lon="5.57282">
        <ele>1000.87</ele>
        <time>2020-06-21T11:54:35Z</time>
      </trkpt>
      <trkpt lat="44.94567" lon="5.5728">
        <ele>1002.31</ele>
        <time>2020-06-21T11:54:49Z</time>
      </trkpt>
      <trkpt lat="44.94542" lon="5.57281">
        <ele>1003.75</ele>
        <time>2020-06-21T11:55:05Z</time>
      </trkpt>
      <trkpt lat="44.94526" lon="5.57283">
        <ele>1004.72</ele>
        <time>2020-06-21T11:55:14Z</time>
      </trkpt>
      <trkpt lat="44.94501" lon="5.57282">
        <ele>1006.16</ele>
        <time>2020-06-21T11:55:30Z</time>
      </trkpt>
      <trkpt lat="44.94475" lon="5.57288">
        <ele>1007.6</ele>
        <time>2020-06-21T11:55:46Z</time>
      </trkpt>
      <trkpt lat="44.94452" lon="5.57283">
        <ele>1009.52</ele>
        <time>2020-06-21T11:56:00Z</time>
      </trkpt>
      <trkpt lat="44.94429" lon="5.57269">
        <ele>1010.96</ele>
        <time>2020-06-21T11:56:16Z</time>
      </trkpt>
      <trkpt lat="44.94411" lon="5.5725">
        <ele>1011.93</ele>
        <time>2020-06-21T11:56:31Z</time>
      </trkpt>
      <trkpt lat="44.94392" lon="5.57233">
        <ele>1013.37</ele>
        <time>2020-06-21T11:56:45Z</time>
      </trkpt>
      <trkpt lat="44.94367" lon="5.57222">
        <ele>1015.77</ele>
        <time>2020-06-21T11:57:01Z</time>
      </trkpt>
      <trkpt lat="44.94347" lon="5.57219">
        <ele>1016.73</ele>
        <time>2020-06-21T11:57:14Z</time>
      </trkpt>
      <trkpt lat="44.94323" lon="5.57221">
        <ele>1018.17</ele>
        <time>2020-06-21T11:57:29Z</time>
      </trkpt>
      <trkpt lat="44.94294" lon="5.57223">
        <ele>1019.13</ele>
        <time>2020-06-21T11:57:46Z</time>
      </trkpt>
      <trkpt lat="44.94285" lon="5.57222">
        <ele>1019.62</ele>
        <time>2020-06-21T11:57:51Z</time>
      </trkpt>
      <trkpt lat="44.94276" lon="5.57219">
        <ele>1020.58</ele>
        <time>2020-06-21T11:57:58Z</time>
      </trkpt>
      <trkpt lat="44.94272" lon="5.57218">
        <ele>1020.58</ele>
        <time>2020-06-21T11:58:01Z</time>
      </trkpt>
      <trkpt lat="44.94246" lon="5.57202">
        <ele>1022.02</ele>
        <time>2020-06-21T11:58:18Z</time>
      </trkpt>
      <trkpt lat="44.94227" lon="5.57188">
        <ele>1023.94</ele>
        <time>2020-06-21T11:58:30Z</time>
      </trkpt>
      <trkpt lat="44.94204" lon="5.57176">
        <ele>1024.9</ele>
        <time>2020-06-21T11:58:44Z</time>
      </trkpt>
      <trkpt lat="44.94182" lon="5.5717">
        <ele>1026.34</ele>
        <time>2020-06-21T11:58:59Z</time>
      </trkpt>
      <trkpt lat="44.94162" lon="5.57162">
        <ele>1027.31</ele>
        <time>2020-06-21T11:59:11Z</time>
      </trkpt>
      <trkpt lat="44.94136" lon="5.57163">
        <ele>1028.75</ele>
        <time>2020-06-21T11:59:28Z</time>
      </trkpt>
      <trkpt lat="44.94114" lon="5.57172">
        <ele>1030.67</ele>
        <time>2020-06-21T11:59:45Z</time>
      </trkpt>
      <trkpt lat="44.94089" lon="5.57182">
        <ele>1032.11</ele>
        <time>2020-06-21T12:00:00Z</time>
      </trkpt>
      <trkpt lat="44.94059" lon="5.57195">
        <ele>1034.04</ele>
        <time>2020-06-21T12:00:16Z</time>
      </trkpt>
      <trkpt lat="44.94035" lon="5.57191">
        <ele>1035.48</ele>
        <time>2020-06-21T12:00:31Z</time>
      </trkpt>
      <trkpt lat="44.94012" lon="5.57183">
        <ele>1036.92</ele>
        <time>2020-06-21T12:00:48Z</time>
      </trkpt>
      <trkpt lat="44.93994" lon="5.5718">
        <ele>1037.88</ele>
        <time>2020-06-21T12:01:00Z</time>
      </trkpt>
      <trkpt lat="44.93978" lon="5.57179">
        <ele>1039.32</ele>
        <time>2020-06-21T12:01:12Z</time>
      </trkpt>
      <trkpt lat="44.93977" lon="5.57179">
        <ele>1039.32</ele>
        <time>2020-06-21T12:01:13Z</time>
      </trkpt>
      <trkpt lat="44.93961" lon="5.57178">
        <ele>1039.8</ele>
        <time>2020-06-21T12:01:23Z</time>
      </trkpt>
      <trkpt lat="44.93935" lon="5.57171">
        <ele>1041.25</ele>
        <time>2020-06-21T12:01:40Z</time>
      </trkpt>
      <trkpt lat="44.93911" lon="5.57154">
        <ele>1042.21</ele>
        <time>2020-06-21T12:01:55Z</time>
      </trkpt>
      <trkpt lat="44.93882" lon="5.57162">
        <ele>1043.65</ele>
        <time>2020-06-21T12:02:09Z</time>
      </trkpt>
      <trkpt lat="44.93846" lon="5.57171">
        <ele>1043.65</ele>
        <time>2020-06-21T12:02:22Z</time>
      </trkpt>
      <trkpt lat="44.93803" lon="5.57181">
        <ele>1044.61</ele>
        <time>2020-06-21T12:02:35Z</time>
      </trkpt>
      <trkpt lat="44.93751" lon="5.57184">
        <ele>1045.09</ele>
        <time>2020-06-21T12:02:50Z</time>
      </trkpt>
      <trkpt lat="44.93706" lon="5.57188">
        <ele>1046.53</ele>
        <time>2020-06-21T12:03:05Z</time>
      </trkpt>
      <trkpt lat="44.93675" lon="5.57199">
        <ele>1047.97</ele>
        <time>2020-06-21T12:03:18Z</time>
      </trkpt>
      <trkpt lat="44.93645" lon="5.57211">
        <ele>1048.94</ele>
        <time>2020-06-21T12:03:30Z</time>
      </trkpt>
      <trkpt lat="44.93613" lon="5.57222">
        <ele>1049.9</ele>
        <time>2020-06-21T12:03:43Z</time>
      </trkpt>
      <trkpt lat="44.93579" lon="5.57232">
        <ele>1050.86</ele>
        <time>2020-06-21T12:03:56Z</time>
      </trkpt>
      <trkpt lat="44.93544" lon="5.5724">
        <ele>1050.38</ele>
        <time>2020-06-21T12:04:09Z</time>
      </trkpt>
      <trkpt lat="44.935" lon="5.57254">
        <ele>1050.86</ele>
        <time>2020-06-21T12:04:23Z</time>
      </trkpt>
      <trkpt lat="44.93456" lon="5.57274">
        <ele>1052.3</ele>
        <time>2020-06-21T12:04:39Z</time>
      </trkpt>
      <trkpt lat="44.93422" lon="5.57286">
        <ele>1053.74</ele>
        <time>2020-06-21T12:04:53Z</time>
      </trkpt>
      <trkpt lat="44.93386" lon="5.573">
        <ele>1055.67</ele>
        <time>2020-06-21T12:05:09Z</time>
      </trkpt>
      <trkpt lat="44.93374" lon="5.57303">
        <ele>1056.15</ele>
        <time>2020-06-21T12:05:15Z</time>
      </trkpt>
      <trkpt lat="44.93364" lon="5.57305">
        <ele>1056.63</ele>
        <time>2020-06-21T12:05:20Z</time>
      </trkpt>
      <trkpt lat="44.93347" lon="5.57304">
        <ele>1057.59</ele>
        <time>2020-06-21T12:05:30Z</time>
      </trkpt>
      <trkpt lat="44.93321" lon="5.57294">
        <ele>1059.51</ele>
        <time>2020-06-21T12:05:44Z</time>
      </trkpt>
      <trkpt lat="44.93301" lon="5.57273">
        <ele>1061.43</ele>
        <time>2020-06-21T12:05:58Z</time>
      </trkpt>
      <trkpt lat="44.93285" lon="5.57251">
        <ele>1062.87</ele>
        <time>2020-06-21T12:06:13Z</time>
      </trkpt>
      <trkpt lat="44.93272" lon="5.57234">
        <ele>1063.84</ele>
        <time>2020-06-21T12:06:26Z</time>
      </trkpt>
      <trkpt lat="44.93269" lon="5.5723">
        <ele>1064.8</ele>
        <time>2020-06-21T12:06:30Z</time>
      </trkpt>
      <trkpt lat="44.93252" lon="5.57216">
        <ele>1065.28</ele>
        <time>2020-06-21T12:06:42Z</time>
      </trkpt>
      <trkpt lat="44.93246" lon="5.57214">
        <ele>1065.76</ele>
        <time>2020-06-21T12:06:47Z</time>
      </trkpt>
      <trkpt lat="44.9324" lon="5.57207">
        <ele>1066.72</ele>
        <time>2020-06-21T12:06:52Z</time>
      </trkpt>
      <trkpt lat="44.93232" lon="5.57202">
        <ele>1066.24</ele>
        <time>2020-06-21T12:06:58Z</time>
      </trkpt>
      <trkpt lat="44.93211" lon="5.57185">
        <ele>1068.64</ele>
        <time>2020-06-21T12:07:15Z</time>
      </trkpt>
      <trkpt lat="44.93199" lon="5.57174">
        <ele>1069.6</ele>
        <time>2020-06-21T12:07:25Z</time>
      </trkpt>
      <trkpt lat="44.93181" lon="5.57157">
        <ele>1071.05</ele>
        <time>2020-06-21T12:07:41Z</time>
      </trkpt>
      <trkpt lat="44.93162" lon="5.57145">
        <ele>1072.01</ele>
        <time>2020-06-21T12:07:56Z</time>
      </trkpt>
      <trkpt lat="44.93143" lon="5.57132">
        <ele>1072.97</ele>
        <time>2020-06-21T12:08:10Z</time>
      </trkpt>
      <trkpt lat="44.93123" lon="5.57118">
        <ele>1073.93</ele>
        <time>2020-06-21T12:08:25Z</time>
      </trkpt>
      <trkpt lat="44.93104" lon="5.57102">
        <ele>1074.89</ele>
        <time>2020-06-21T12:08:41Z</time>
      </trkpt>
      <trkpt lat="44.93088" lon="5.57091">
        <ele>1076.81</ele>
        <time>2020-06-21T12:08:55Z</time>
      </trkpt>
      <trkpt lat="44.9307" lon="5.5709">
        <ele>1077.78</ele>
        <time>2020-06-21T12:09:07Z</time>
      </trkpt>
      <trkpt lat="44.93049" lon="5.57095">
        <ele>1078.74</ele>
        <time>2020-06-21T12:09:20Z</time>
      </trkpt>
      <trkpt lat="44.93028" lon="5.57101">
        <ele>1079.22</ele>
        <time>2020-06-21T12:09:33Z</time>
      </trkpt>
      <trkpt lat="44.93007" lon="5.57106">
        <ele>1081.14</ele>
        <time>2020-06-21T12:09:48Z</time>
      </trkpt>
      <trkpt lat="44.93005" lon="5.57106">
        <ele>1081.14</ele>
        <time>2020-06-21T12:09:49Z</time>
      </trkpt>
      <trkpt lat="44.92975" lon="5.57111">
        <ele>1083.54</ele>
        <time>2020-06-21T12:10:08Z</time>
      </trkpt>
      <trkpt lat="44.92972" lon="5.57111">
        <ele>1083.54</ele>
        <time>2020-06-21T12:10:10Z</time>
      </trkpt>
      <trkpt lat="44.92967" lon="5.57111">
        <ele>1084.02</ele>
        <time>2020-06-21T12:10:13Z</time>
      </trkpt>
      <trkpt lat="44.9296" lon="5.57112">
        <ele>1084.02</ele>
        <time>2020-06-21T12:10:18Z</time>
      </trkpt>
      <trkpt lat="44.92933" lon="5.57118">
        <ele>1085.47</ele>
        <time>2020-06-21T12:10:37Z</time>
      </trkpt>
      <trkpt lat="44.92911" lon="5.57122">
        <ele>1087.39</ele>
        <time>2020-06-21T12:10:53Z</time>
      </trkpt>
      <trkpt lat="44.92888" lon="5.5713">
        <ele>1089.31</ele>
        <time>2020-06-21T12:11:09Z</time>
      </trkpt>
      <trkpt lat="44.92863" lon="5.57129">
        <ele>1090.27</ele>
        <time>2020-06-21T12:11:25Z</time>
      </trkpt>
      <trkpt lat="44.92841" lon="5.57124">
        <ele>1091.23</ele>
        <time>2020-06-21T12:11:39Z</time>
      </trkpt>
      <trkpt lat="44.92818" lon="5.57117">
        <ele>1091.71</ele>
        <time>2020-06-21T12:11:54Z</time>
      </trkpt>
      <trkpt lat="44.92793" lon="5.57112">
        <ele>1093.16</ele>
        <time>2020-06-21T12:12:09Z</time>
      </trkpt>
      <trkpt lat="44.92771" lon="5.57108">
        <ele>1094.6</ele>
        <time>2020-06-21T12:12:22Z</time>
      </trkpt>
      <trkpt lat="44.92764" lon="5.57106">
        <ele>1094.6</ele>
        <time>2020-06-21T12:12:26Z</time>
      </trkpt>
      <trkpt lat="44.92757" lon="5.57103">
        <ele>1095.08</ele>
        <time>2020-06-21T12:12:30Z</time>
      </trkpt>
      <trkpt lat="44.92734" lon="5.57083">
        <ele>1096.52</ele>
        <time>2020-06-21T12:12:45Z</time>
      </trkpt>
      <trkpt lat="44.92713" lon="5.57064">
        <ele>1097.48</ele>
        <time>2020-06-21T12:12:59Z</time>
      </trkpt>
      <trkpt lat="44.92693" lon="5.57052">
        <ele>1097.96</ele>
        <time>2020-06-21T12:13:13Z</time>
      </trkpt>
      <trkpt lat="44.92674" lon="5.57043">
        <ele>1097.96</ele>
        <time>2020-06-21T12:13:26Z</time>
      </trkpt>
      <trkpt lat="44.92674" lon="5.57042">
        <ele>1098.44</ele>
        <time>2020-06-21T12:13:38Z</time>
      </trkpt>
      <trkpt lat="44.92674" lon="5.57042">
        <ele>1097.96</ele>
        <time>2020-06-21T12:13:51Z</time>
      </trkpt>
      <trkpt lat="44.92673" lon="5.57041">
        <ele>1097.96</ele>
        <time>2020-06-21T12:14:21Z</time>
      </trkpt>
      <trkpt lat="44.9267" lon="5.57044">
        <ele>1098.44</ele>
        <time>2020-06-21T12:14:46Z</time>
      </trkpt>
      <trkpt lat="44.92665" lon="5.57044">
        <ele>1098.92</ele>
        <time>2020-06-21T12:15:01Z</time>
      </trkpt>
      <trkpt lat="44.92647" lon="5.57041">
        <ele>1098.92</ele>
        <time>2020-06-21T12:15:11Z</time>
      </trkpt>
      <trkpt lat="44.92622" lon="5.57028">
        <ele>1099.89</ele>
        <time>2020-06-21T12:15:26Z</time>
      </trkpt>
      <trkpt lat="44.92597" lon="5.57013">
        <ele>1100.85</ele>
        <time>2020-06-21T12:15:42Z</time>
      </trkpt>
      <trkpt lat="44.92567" lon="5.56997">
        <ele>1101.81</ele>
        <time>2020-06-21T12:15:58Z</time>
      </trkpt>
      <trkpt lat="44.92544" lon="5.56981">
        <ele>1103.25</ele>
        <time>2020-06-21T12:16:12Z</time>
      </trkpt>
      <trkpt lat="44.9252" lon="5.56959">
        <ele>1105.17</ele>
        <time>2020-06-21T12:16:29Z</time>
      </trkpt>
      <trkpt lat="44.92494" lon="5.56936">
        <ele>1106.13</ele>
        <time>2020-06-21T12:16:43Z</time>
      </trkpt>
      <trkpt lat="44.92466" lon="5.56937">
        <ele>1107.58</ele>
        <time>2020-06-21T12:16:56Z</time>
      </trkpt>
      <trkpt lat="44.92437" lon="5.56958">
        <ele>1108.54</ele>
        <time>2020-06-21T12:17:11Z</time>
      </trkpt>
      <trkpt lat="44.92413" lon="5.56978">
        <ele>1109.5</ele>
        <time>2020-06-21T12:17:24Z</time>
      </trkpt>
      <trkpt lat="44.92387" lon="5.56986">
        <ele>1110.46</ele>
        <time>2020-06-21T12:17:36Z</time>
      </trkpt>
      <trkpt lat="44.92359" lon="5.56988">
        <ele>1111.9</ele>
        <time>2020-06-21T12:17:50Z</time>
      </trkpt>
      <trkpt lat="44.92332" lon="5.56992">
        <ele>1112.86</ele>
        <time>2020-06-21T12:18:03Z</time>
      </trkpt>
      <trkpt lat="44.92302" lon="5.56983">
        <ele>1114.31</ele>
        <time>2020-06-21T12:18:20Z</time>
      </trkpt>
      <trkpt lat="44.92275" lon="5.56964">
        <ele>1116.71</ele>
        <time>2020-06-21T12:18:37Z</time>
      </trkpt>
      <trkpt lat="44.92251" lon="5.56951">
        <ele>1118.15</ele>
        <time>2020-06-21T12:18:52Z</time>
      </trkpt>
      <trkpt lat="44.92224" lon="5.56944">
        <ele>1119.11</ele>
        <time>2020-06-21T12:19:06Z</time>
      </trkpt>
      <trkpt lat="44.92199" lon="5.56932">
        <ele>1119.11</ele>
        <time>2020-06-21T12:19:21Z</time>
      </trkpt>
      <trkpt lat="44.92187" lon="5.56925">
        <ele>1120.07</ele>
        <time>2020-06-21T12:19:27Z</time>
      </trkpt>
      <trkpt lat="44.92158" lon="5.56907">
        <ele>1121.52</ele>
        <time>2020-06-21T12:19:45Z</time>
      </trkpt>
      <trkpt lat="44.92128" lon="5.56898">
        <ele>1122.96</ele>
        <time>2020-06-21T12:20:03Z</time>
      </trkpt>
      <trkpt lat="44.921" lon="5.56906">
        <ele>1125.84</ele>
        <time>2020-06-21T12:20:20Z</time>
      </trkpt>
      <trkpt lat="44.92077" lon="5.5693">
        <ele>1127.28</ele>
        <time>2020-06-21T12:20:37Z</time>
      </trkpt>
      <trkpt lat="44.92055" lon="5.56962">
        <ele>1127.28</ele>
        <time>2020-06-21T12:20:51Z</time>
      </trkpt>
      <trkpt lat="44.92023" lon="5.5701">
        <ele>1127.76</ele>
        <time>2020-06-21T12:21:08Z</time>
      </trkpt>
      <trkpt lat="44.91998" lon="5.57045">
        <ele>1128.24</ele>
        <time>2020-06-21T12:21:21Z</time>
      </trkpt>
      <trkpt lat="44.91962" lon="5.57076">
        <ele>1128.73</ele>
        <time>2020-06-21T12:21:36Z</time>
      </trkpt>
      <trkpt lat="44.9193" lon="5.57084">
        <ele>1129.21</ele>
        <time>2020-06-21T12:21:49Z</time>
      </trkpt>
      <trkpt lat="44.91907" lon="5.57048">
        <ele>1129.21</ele>
        <time>2020-06-21T12:22:01Z</time>
      </trkpt>
      <trkpt lat="44.91902" lon="5.5699">
        <ele>1131.61</ele>
        <time>2020-06-21T12:22:16Z</time>
      </trkpt>
      <trkpt lat="44.91881" lon="5.56945">
        <ele>1132.57</ele>
        <time>2020-06-21T12:22:30Z</time>
      </trkpt>
      <trkpt lat="44.9184" lon="5.56916">
        <ele>1134.01</ele>
        <time>2020-06-21T12:22:46Z</time>
      </trkpt>
      <trkpt lat="44.91812" lon="5.56883">
        <ele>1135.45</ele>
        <time>2020-06-21T12:23:01Z</time>
      </trkpt>
      <trkpt lat="44.91778" lon="5.56863">
        <ele>1136.9</ele>
        <time>2020-06-21T12:23:16Z</time>
      </trkpt>
      <trkpt lat="44.91734" lon="5.56866">
        <ele>1136.42</ele>
        <time>2020-06-21T12:23:31Z</time>
      </trkpt>
      <trkpt lat="44.91681" lon="5.56856">
        <ele>1137.86</ele>
        <time>2020-06-21T12:23:49Z</time>
      </trkpt>
      <trkpt lat="44.91634" lon="5.5684">
        <ele>1139.3</ele>
        <time>2020-06-21T12:24:06Z</time>
      </trkpt>
      <trkpt lat="44.91586" lon="5.56815">
        <ele>1140.26</ele>
        <time>2020-06-21T12:24:23Z</time>
      </trkpt>
      <trkpt lat="44.9154" lon="5.56804">
        <ele>1141.22</ele>
        <time>2020-06-21T12:24:39Z</time>
      </trkpt>
      <trkpt lat="44.91492" lon="5.56806">
        <ele>1141.7</ele>
        <time>2020-06-21T12:24:54Z</time>
      </trkpt>
      <trkpt lat="44.9145" lon="5.56813">
        <ele>1142.18</ele>
        <time>2020-06-21T12:25:08Z</time>
      </trkpt>
      <trkpt lat="44.914" lon="5.56822">
        <ele>1143.63</ele>
        <time>2020-06-21T12:25:24Z</time>
      </trkpt>
      <trkpt lat="44.9136" lon="5.5683">
        <ele>1144.59</ele>
        <time>2020-06-21T12:25:38Z</time>
      </trkpt>
      <trkpt lat="44.91324" lon="5.56839">
        <ele>1145.07</ele>
        <time>2020-06-21T12:25:51Z</time>
      </trkpt>
      <trkpt lat="44.91289" lon="5.5685">
        <ele>1146.51</ele>
        <time>2020-06-21T12:26:04Z</time>
      </trkpt>
      <trkpt lat="44.91248" lon="5.56868">
        <ele>1147.95</ele>
        <time>2020-06-21T12:26:19Z</time>
      </trkpt>
      <trkpt lat="44.91211" lon="5.56883">
        <ele>1148.91</ele>
        <time>2020-06-21T12:26:32Z</time>
      </trkpt>
      <trkpt lat="44.91168" lon="5.569">
        <ele>1150.35</ele>
        <time>2020-06-21T12:26:48Z</time>
      </trkpt>
      <trkpt lat="44.91125" lon="5.56915">
        <ele>1151.32</ele>
        <time>2020-06-21T12:27:04Z</time>
      </trkpt>
      <trkpt lat="44.91091" lon="5.56927">
        <ele>1152.76</ele>
        <time>2020-06-21T12:27:17Z</time>
      </trkpt>
      <trkpt lat="44.91057" lon="5.56939">
        <ele>1152.76</ele>
        <time>2020-06-21T12:27:30Z</time>
      </trkpt>
      <trkpt lat="44.91013" lon="5.56953">
        <ele>1154.2</ele>
        <time>2020-06-21T12:27:46Z</time>
      </trkpt>
      <trkpt lat="44.90971" lon="5.56955">
        <ele>1155.64</ele>
        <time>2020-06-21T12:28:01Z</time>
      </trkpt>
      <trkpt lat="44.90934" lon="5.56953">
        <ele>1156.12</ele>
        <time>2020-06-21T12:28:14Z</time>
      </trkpt>
      <trkpt lat="44.90902" lon="5.56952">
        <ele>1156.6</ele>
        <time>2020-06-21T12:28:26Z</time>
      </trkpt>
      <trkpt lat="44.90862" lon="5.5695">
        <ele>1157.56</ele>
        <time>2020-06-21T12:28:39Z</time>
      </trkpt>
      <trkpt lat="44.90811" lon="5.56948">
        <ele>1159.01</ele>
        <time>2020-06-21T12:28:56Z</time>
      </trkpt>
      <trkpt lat="44.90772" lon="5.56961">
        <ele>1159.49</ele>
        <time>2020-06-21T12:29:11Z</time>
      </trkpt>
      <trkpt lat="44.90737" lon="5.56974">
        <ele>1162.37</ele>
        <time>2020-06-21T12:29:26Z</time>
      </trkpt>
      <trkpt lat="44.90705" lon="5.56985">
        <ele>1163.81</ele>
        <time>2020-06-21T12:29:42Z</time>
      </trkpt>
      <trkpt lat="44.90664" lon="5.57001">
        <ele>1164.77</ele>
        <time>2020-06-21T12:30:01Z</time>
      </trkpt>
      <trkpt lat="44.90624" lon="5.57008">
        <ele>1166.7</ele>
        <time>2020-06-21T12:30:19Z</time>
      </trkpt>
      <trkpt lat="44.90591" lon="5.5701">
        <ele>1168.14</ele>
        <time>2020-06-21T12:30:36Z</time>
      </trkpt>
      <trkpt lat="44.90563" lon="5.57">
        <ele>1169.58</ele>
        <time>2020-06-21T12:30:51Z</time>
      </trkpt>
      <trkpt lat="44.90537" lon="5.5698">
        <ele>1171.02</ele>
        <time>2020-06-21T12:31:06Z</time>
      </trkpt>
      <trkpt lat="44.90505" lon="5.56966">
        <ele>1173.43</ele>
        <time>2020-06-21T12:31:23Z</time>
      </trkpt>
      <trkpt lat="44.9048" lon="5.56961">
        <ele>1174.39</ele>
        <time>2020-06-21T12:31:37Z</time>
      </trkpt>
      <trkpt lat="44.90451" lon="5.56961">
        <ele>1176.31</ele>
        <time>2020-06-21T12:31:53Z</time>
      </trkpt>
      <trkpt lat="44.90423" lon="5.56958">
        <ele>1178.23</ele>
        <time>2020-06-21T12:32:09Z</time>
      </trkpt>
      <trkpt lat="44.90395" lon="5.56952">
        <ele>1179.67</ele>
        <time>2020-06-21T12:32:24Z</time>
      </trkpt>
      <trkpt lat="44.90367" lon="5.56945">
        <ele>1180.64</ele>
        <time>2020-06-21T12:32:39Z</time>
      </trkpt>
      <trkpt lat="44.90341" lon="5.5693">
        <ele>1182.56</ele>
        <time>2020-06-21T12:32:54Z</time>
      </trkpt>
      <trkpt lat="44.90311" lon="5.56903">
        <ele>1183.52</ele>
        <time>2020-06-21T12:33:13Z</time>
      </trkpt>
      <trkpt lat="44.90294" lon="5.56882">
        <ele>1185.44</ele>
        <time>2020-06-21T12:33:24Z</time>
      </trkpt>
      <trkpt lat="44.90288" lon="5.56875">
        <ele>1185.92</ele>
        <time>2020-06-21T12:33:28Z</time>
      </trkpt>
      <trkpt lat="44.90272" lon="5.56854">
        <ele>1187.37</ele>
        <time>2020-06-21T12:33:42Z</time>
      </trkpt>
      <trkpt lat="44.90268" lon="5.56844">
        <ele>1188.33</ele>
        <time>2020-06-21T12:33:54Z</time>
      </trkpt>
      <trkpt lat="44.90266" lon="5.56842">
        <ele>1187.37</ele>
        <time>2020-06-21T12:34:06Z</time>
      </trkpt>
      <trkpt lat="44.90259" lon="5.56831">
        <ele>1187.85</ele>
        <time>2020-06-21T12:34:20Z</time>
      </trkpt>
      <trkpt lat="44.90258" lon="5.56829">
        <ele>1187.85</ele>
        <time>2020-06-21T12:34:30Z</time>
      </trkpt>
      <trkpt lat="44.90259" lon="5.56829">
        <ele>1188.33</ele>
        <time>2020-06-21T12:34:54Z</time>
      </trkpt>
      <trkpt lat="44.90258" lon="5.56832">
        <ele>1188.81</ele>
        <time>2020-06-21T12:35:30Z</time>
      </trkpt>
      <trkpt lat="44.90258" lon="5.56833">
        <ele>1189.29</ele>
        <time>2020-06-21T12:36:00Z</time>
      </trkpt>
      <trkpt lat="44.90258" lon="5.56832">
        <ele>1189.29</ele>
        <time>2020-06-21T12:36:16Z</time>
      </trkpt>
    </trkseg>
  </trk>
</gpx>